<?xml version="1.0" encoding="UTF-8" standalone="no" ?>
<gpx xmlns="http://www.topografix.com/GPX/1/1" xmlns:xsi="http://www.w3.org/2001/XMLSchema-instance" xsi:schemaLocation="http://www.topografix.com/GPX/1/1 http://www.topografix.com/GPX/1/1/gpx.xsd" version="1.1" creator="VisuGPX - https://www.visugpx.com">
  <metadata>
    <name>Défrichage du côté de Clavière (Italie)</name>
  </metadata>
  <trk>
    <name><![CDATA[Défrichage du côté de Clavière (Italie)_1]]></name>
    <trkseg>
      <trkpt lat="44.92802" lon="6.72015">
        <ele>1877.9</ele>
        <time>2014-09-03T08:24:34Z</time>
      </trkpt>
      <trkpt lat="44.92805" lon="6.72052">
        <ele>1863.7</ele>
        <time>2014-09-03T08:24:40Z</time>
      </trkpt>
      <trkpt lat="44.92825" lon="6.72056">
        <ele>1855.4</ele>
        <time>2014-09-03T08:25:46Z</time>
      </trkpt>
      <trkpt lat="44.92848" lon="6.72071">
        <ele>1854.9</ele>
        <time>2014-09-03T08:25:49Z</time>
      </trkpt>
      <trkpt lat="44.92872" lon="6.72086">
        <ele>1853.2</ele>
        <time>2014-09-03T08:25:52Z</time>
      </trkpt>
      <trkpt lat="44.92892" lon="6.72104">
        <ele>1851.4</ele>
        <time>2014-09-03T08:25:55Z</time>
      </trkpt>
      <trkpt lat="44.92909" lon="6.72119">
        <ele>1849.6</ele>
        <time>2014-09-03T08:25:58Z</time>
      </trkpt>
      <trkpt lat="44.92928" lon="6.72125">
        <ele>1847.6</ele>
        <time>2014-09-03T08:26:01Z</time>
      </trkpt>
      <trkpt lat="44.9295" lon="6.72131">
        <ele>1845.6</ele>
        <time>2014-09-03T08:26:04Z</time>
      </trkpt>
      <trkpt lat="44.92975" lon="6.72143">
        <ele>1842.7</ele>
        <time>2014-09-03T08:26:07Z</time>
      </trkpt>
      <trkpt lat="44.92998" lon="6.72155">
        <ele>1840.2</ele>
        <time>2014-09-03T08:26:10Z</time>
      </trkpt>
      <trkpt lat="44.93008" lon="6.72181">
        <ele>1841</ele>
        <time>2014-09-03T08:26:15Z</time>
      </trkpt>
      <trkpt lat="44.93006" lon="6.72211">
        <ele>1841.9</ele>
        <time>2014-09-03T08:26:21Z</time>
      </trkpt>
      <trkpt lat="44.93004" lon="6.72241">
        <ele>1842.4</ele>
        <time>2014-09-03T08:26:28Z</time>
      </trkpt>
      <trkpt lat="44.93008" lon="6.72267">
        <ele>1842.5</ele>
        <time>2014-09-03T08:26:34Z</time>
      </trkpt>
      <trkpt lat="44.9302" lon="6.72289">
        <ele>1842.7</ele>
        <time>2014-09-03T08:26:41Z</time>
      </trkpt>
      <trkpt lat="44.9303" lon="6.72312">
        <ele>1843</ele>
        <time>2014-09-03T08:26:48Z</time>
      </trkpt>
      <trkpt lat="44.93039" lon="6.72337">
        <ele>1843.3</ele>
        <time>2014-09-03T08:26:55Z</time>
      </trkpt>
      <trkpt lat="44.93047" lon="6.7237">
        <ele>1843.7</ele>
        <time>2014-09-03T08:27:00Z</time>
      </trkpt>
      <trkpt lat="44.93055" lon="6.724">
        <ele>1843.4</ele>
        <time>2014-09-03T08:27:04Z</time>
      </trkpt>
      <trkpt lat="44.93063" lon="6.72429">
        <ele>1843.4</ele>
        <time>2014-09-03T08:27:09Z</time>
      </trkpt>
      <trkpt lat="44.93069" lon="6.72454">
        <ele>1843.6</ele>
        <time>2014-09-03T08:27:13Z</time>
      </trkpt>
      <trkpt lat="44.93075" lon="6.7248">
        <ele>1843.8</ele>
        <time>2014-09-03T08:27:17Z</time>
      </trkpt>
      <trkpt lat="44.93082" lon="6.72505">
        <ele>1844.2</ele>
        <time>2014-09-03T08:27:21Z</time>
      </trkpt>
      <trkpt lat="44.93091" lon="6.72531">
        <ele>1844.9</ele>
        <time>2014-09-03T08:27:26Z</time>
      </trkpt>
      <trkpt lat="44.93103" lon="6.72551">
        <ele>1845.3</ele>
        <time>2014-09-03T08:27:32Z</time>
      </trkpt>
      <trkpt lat="44.93117" lon="6.72573">
        <ele>1845.7</ele>
        <time>2014-09-03T08:27:39Z</time>
      </trkpt>
      <trkpt lat="44.93127" lon="6.72602">
        <ele>1847</ele>
        <time>2014-09-03T08:27:45Z</time>
      </trkpt>
      <trkpt lat="44.93138" lon="6.72624">
        <ele>1847</ele>
        <time>2014-09-03T08:27:49Z</time>
      </trkpt>
      <trkpt lat="44.9315" lon="6.72646">
        <ele>1846.6</ele>
        <time>2014-09-03T08:27:53Z</time>
      </trkpt>
      <trkpt lat="44.93162" lon="6.72668">
        <ele>1846.2</ele>
        <time>2014-09-03T08:27:57Z</time>
      </trkpt>
      <trkpt lat="44.93174" lon="6.72687">
        <ele>1846.1</ele>
        <time>2014-09-03T08:28:01Z</time>
      </trkpt>
      <trkpt lat="44.93184" lon="6.72709">
        <ele>1846.2</ele>
        <time>2014-09-03T08:28:06Z</time>
      </trkpt>
      <trkpt lat="44.93176" lon="6.72737">
        <ele>1847</ele>
        <time>2014-09-03T08:28:15Z</time>
      </trkpt>
      <trkpt lat="44.93159" lon="6.72748">
        <ele>1847.5</ele>
        <time>2014-09-03T08:28:18Z</time>
      </trkpt>
      <trkpt lat="44.93137" lon="6.7275">
        <ele>1847.1</ele>
        <time>2014-09-03T08:28:22Z</time>
      </trkpt>
      <trkpt lat="44.93117" lon="6.72748">
        <ele>1846.9</ele>
        <time>2014-09-03T08:28:28Z</time>
      </trkpt>
      <trkpt lat="44.93096" lon="6.72747">
        <ele>1847.6</ele>
        <time>2014-09-03T08:28:35Z</time>
      </trkpt>
      <trkpt lat="44.93088" lon="6.72771">
        <ele>1849.2</ele>
        <time>2014-09-03T08:28:43Z</time>
      </trkpt>
      <trkpt lat="44.93098" lon="6.72796">
        <ele>1856.7</ele>
        <time>2014-09-03T08:28:48Z</time>
      </trkpt>
      <trkpt lat="44.93108" lon="6.72823">
        <ele>1860.1</ele>
        <time>2014-09-03T08:28:52Z</time>
      </trkpt>
      <trkpt lat="44.93119" lon="6.72853">
        <ele>1860.3</ele>
        <time>2014-09-03T08:28:56Z</time>
      </trkpt>
      <trkpt lat="44.93132" lon="6.72879">
        <ele>1859.6</ele>
        <time>2014-09-03T08:29:00Z</time>
      </trkpt>
      <trkpt lat="44.93139" lon="6.72906">
        <ele>1859.5</ele>
        <time>2014-09-03T08:29:09Z</time>
      </trkpt>
      <trkpt lat="44.93136" lon="6.72933">
        <ele>1859.1</ele>
        <time>2014-09-03T08:29:15Z</time>
      </trkpt>
      <trkpt lat="44.9314" lon="6.72959">
        <ele>1860.3</ele>
        <time>2014-09-03T08:29:21Z</time>
      </trkpt>
      <trkpt lat="44.93145" lon="6.72988">
        <ele>1861.6</ele>
        <time>2014-09-03T08:29:26Z</time>
      </trkpt>
      <trkpt lat="44.93148" lon="6.73018">
        <ele>1864.6</ele>
        <time>2014-09-03T08:29:32Z</time>
      </trkpt>
      <trkpt lat="44.93146" lon="6.73046">
        <ele>1868.5</ele>
        <time>2014-09-03T08:29:37Z</time>
      </trkpt>
      <trkpt lat="44.93145" lon="6.73073">
        <ele>1868.7</ele>
        <time>2014-09-03T08:29:41Z</time>
      </trkpt>
      <trkpt lat="44.93148" lon="6.73102">
        <ele>1867.2</ele>
        <time>2014-09-03T08:29:45Z</time>
      </trkpt>
      <trkpt lat="44.93152" lon="6.73132">
        <ele>1867.1</ele>
        <time>2014-09-03T08:29:49Z</time>
      </trkpt>
      <trkpt lat="44.93156" lon="6.73159">
        <ele>1868.2</ele>
        <time>2014-09-03T08:29:53Z</time>
      </trkpt>
      <trkpt lat="44.9316" lon="6.73189">
        <ele>1868.6</ele>
        <time>2014-09-03T08:29:57Z</time>
      </trkpt>
      <trkpt lat="44.93164" lon="6.7322">
        <ele>1868.9</ele>
        <time>2014-09-03T08:30:00Z</time>
      </trkpt>
      <trkpt lat="44.93169" lon="6.73253">
        <ele>1868.4</ele>
        <time>2014-09-03T08:30:03Z</time>
      </trkpt>
      <trkpt lat="44.9317" lon="6.73282">
        <ele>1865.9</ele>
        <time>2014-09-03T08:30:05Z</time>
      </trkpt>
      <trkpt lat="44.93163" lon="6.73312">
        <ele>1860</ele>
        <time>2014-09-03T08:30:08Z</time>
      </trkpt>
      <trkpt lat="44.93156" lon="6.73339">
        <ele>1853.7</ele>
        <time>2014-09-03T08:30:12Z</time>
      </trkpt>
      <trkpt lat="44.93147" lon="6.73369">
        <ele>1850.2</ele>
        <time>2014-09-03T08:30:16Z</time>
      </trkpt>
      <trkpt lat="44.93137" lon="6.73393">
        <ele>1848.6</ele>
        <time>2014-09-03T08:30:20Z</time>
      </trkpt>
      <trkpt lat="44.93127" lon="6.73415">
        <ele>1847.8</ele>
        <time>2014-09-03T08:30:24Z</time>
      </trkpt>
      <trkpt lat="44.93117" lon="6.7344">
        <ele>1848.1</ele>
        <time>2014-09-03T08:30:28Z</time>
      </trkpt>
      <trkpt lat="44.93113" lon="6.73467">
        <ele>1848.3</ele>
        <time>2014-09-03T08:30:32Z</time>
      </trkpt>
      <trkpt lat="44.9311" lon="6.73494">
        <ele>1849.5</ele>
        <time>2014-09-03T08:30:36Z</time>
      </trkpt>
      <trkpt lat="44.93105" lon="6.73521">
        <ele>1848.9</ele>
        <time>2014-09-03T08:30:40Z</time>
      </trkpt>
      <trkpt lat="44.93091" lon="6.73544">
        <ele>1850.5</ele>
        <time>2014-09-03T08:30:45Z</time>
      </trkpt>
      <trkpt lat="44.93072" lon="6.73557">
        <ele>1851.4</ele>
        <time>2014-09-03T08:30:50Z</time>
      </trkpt>
      <trkpt lat="44.93051" lon="6.7356">
        <ele>1851.3</ele>
        <time>2014-09-03T08:30:56Z</time>
      </trkpt>
      <trkpt lat="44.9303" lon="6.73553">
        <ele>1851</ele>
        <time>2014-09-03T08:31:01Z</time>
      </trkpt>
      <trkpt lat="44.93011" lon="6.7355">
        <ele>1850.6</ele>
        <time>2014-09-03T08:31:05Z</time>
      </trkpt>
      <trkpt lat="44.92993" lon="6.73539">
        <ele>1850</ele>
        <time>2014-09-03T08:31:10Z</time>
      </trkpt>
      <trkpt lat="44.92972" lon="6.73541">
        <ele>1849.9</ele>
        <time>2014-09-03T08:31:16Z</time>
      </trkpt>
      <trkpt lat="44.92954" lon="6.73535">
        <ele>1850.2</ele>
        <time>2014-09-03T08:31:24Z</time>
      </trkpt>
      <trkpt lat="44.92941" lon="6.73515">
        <ele>1851.4</ele>
        <time>2014-09-03T08:31:35Z</time>
      </trkpt>
      <trkpt lat="44.9293" lon="6.73495">
        <ele>1852.2</ele>
        <time>2014-09-03T08:31:50Z</time>
      </trkpt>
      <trkpt lat="44.92914" lon="6.73481">
        <ele>1853.1</ele>
        <time>2014-09-03T08:32:01Z</time>
      </trkpt>
      <trkpt lat="44.92896" lon="6.73479">
        <ele>1853.5</ele>
        <time>2014-09-03T08:32:07Z</time>
      </trkpt>
      <trkpt lat="44.92876" lon="6.73476">
        <ele>1854.3</ele>
        <time>2014-09-03T08:32:15Z</time>
      </trkpt>
      <trkpt lat="44.92889" lon="6.73504">
        <ele>1854.8</ele>
        <time>2014-09-03T08:33:01Z</time>
      </trkpt>
      <trkpt lat="44.92911" lon="6.73524">
        <ele>1852.8</ele>
        <time>2014-09-03T08:33:04Z</time>
      </trkpt>
      <trkpt lat="44.92929" lon="6.73539">
        <ele>1849.8</ele>
        <time>2014-09-03T08:33:07Z</time>
      </trkpt>
      <trkpt lat="44.92941" lon="6.7356">
        <ele>1845.9</ele>
        <time>2014-09-03T08:33:11Z</time>
      </trkpt>
      <trkpt lat="44.92947" lon="6.73586">
        <ele>1843.9</ele>
        <time>2014-09-03T08:33:50Z</time>
      </trkpt>
      <trkpt lat="44.92963" lon="6.736">
        <ele>1841.2</ele>
        <time>2014-09-03T08:33:54Z</time>
      </trkpt>
      <trkpt lat="44.92981" lon="6.73619">
        <ele>1839.4</ele>
        <time>2014-09-03T08:33:57Z</time>
      </trkpt>
      <trkpt lat="44.92998" lon="6.73648">
        <ele>1838</ele>
        <time>2014-09-03T08:34:00Z</time>
      </trkpt>
      <trkpt lat="44.93009" lon="6.73668">
        <ele>1836.2</ele>
        <time>2014-09-03T08:34:02Z</time>
      </trkpt>
      <trkpt lat="44.93022" lon="6.73686">
        <ele>1833.8</ele>
        <time>2014-09-03T08:34:04Z</time>
      </trkpt>
      <trkpt lat="44.93045" lon="6.73701">
        <ele>1829.8</ele>
        <time>2014-09-03T08:34:07Z</time>
      </trkpt>
      <trkpt lat="44.93058" lon="6.73725">
        <ele>1826.6</ele>
        <time>2014-09-03T08:34:12Z</time>
      </trkpt>
      <trkpt lat="44.93075" lon="6.73742">
        <ele>1826.9</ele>
        <time>2014-09-03T08:34:22Z</time>
      </trkpt>
      <trkpt lat="44.93093" lon="6.73761">
        <ele>1826.6</ele>
        <time>2014-09-03T08:34:26Z</time>
      </trkpt>
      <trkpt lat="44.93111" lon="6.73779">
        <ele>1825</ele>
        <time>2014-09-03T08:34:30Z</time>
      </trkpt>
      <trkpt lat="44.93123" lon="6.73805">
        <ele>1824.4</ele>
        <time>2014-09-03T08:34:34Z</time>
      </trkpt>
      <trkpt lat="44.9313" lon="6.73833">
        <ele>1824.6</ele>
        <time>2014-09-03T08:34:38Z</time>
      </trkpt>
      <trkpt lat="44.93134" lon="6.73861">
        <ele>1826.8</ele>
        <time>2014-09-03T08:34:43Z</time>
      </trkpt>
      <trkpt lat="44.93137" lon="6.73886">
        <ele>1828.9</ele>
        <time>2014-09-03T08:34:48Z</time>
      </trkpt>
      <trkpt lat="44.93142" lon="6.73914">
        <ele>1830.3</ele>
        <time>2014-09-03T08:34:56Z</time>
      </trkpt>
      <trkpt lat="44.93146" lon="6.73944">
        <ele>1831.4</ele>
        <time>2014-09-03T08:35:02Z</time>
      </trkpt>
      <trkpt lat="44.93149" lon="6.73969">
        <ele>1832.4</ele>
        <time>2014-09-03T08:35:08Z</time>
      </trkpt>
      <trkpt lat="44.93153" lon="6.73995">
        <ele>1833.4</ele>
        <time>2014-09-03T08:35:15Z</time>
      </trkpt>
      <trkpt lat="44.9315" lon="6.74021">
        <ele>1833.5</ele>
        <time>2014-09-03T08:35:23Z</time>
      </trkpt>
      <trkpt lat="44.93142" lon="6.74045">
        <ele>1833.5</ele>
        <time>2014-09-03T08:35:32Z</time>
      </trkpt>
      <trkpt lat="44.93153" lon="6.74066">
        <ele>1834</ele>
        <time>2014-09-03T08:35:50Z</time>
      </trkpt>
      <trkpt lat="44.93168" lon="6.74088">
        <ele>1833.3</ele>
        <time>2014-09-03T08:36:16Z</time>
      </trkpt>
      <trkpt lat="44.93188" lon="6.74113">
        <ele>1833.6</ele>
        <time>2014-09-03T08:36:54Z</time>
      </trkpt>
      <trkpt lat="44.93194" lon="6.74139">
        <ele>1834.6</ele>
        <time>2014-09-03T08:37:10Z</time>
      </trkpt>
      <trkpt lat="44.93202" lon="6.74163">
        <ele>1836.1</ele>
        <time>2014-09-03T08:37:20Z</time>
      </trkpt>
      <trkpt lat="44.93216" lon="6.74179">
        <ele>1835.6</ele>
        <time>2014-09-03T08:37:36Z</time>
      </trkpt>
      <trkpt lat="44.93231" lon="6.74197">
        <ele>1835.6</ele>
        <time>2014-09-03T08:37:43Z</time>
      </trkpt>
      <trkpt lat="44.93236" lon="6.74223">
        <ele>1827.6</ele>
        <time>2014-09-03T08:42:05Z</time>
      </trkpt>
      <trkpt lat="44.93237" lon="6.74249">
        <ele>1828.4</ele>
        <time>2014-09-03T08:42:14Z</time>
      </trkpt>
      <trkpt lat="44.93249" lon="6.74272">
        <ele>1830</ele>
        <time>2014-09-03T08:42:25Z</time>
      </trkpt>
      <trkpt lat="44.93258" lon="6.74294">
        <ele>1830.5</ele>
        <time>2014-09-03T08:42:40Z</time>
      </trkpt>
      <trkpt lat="44.93264" lon="6.74319">
        <ele>1831.3</ele>
        <time>2014-09-03T08:42:50Z</time>
      </trkpt>
      <trkpt lat="44.93246" lon="6.74314">
        <ele>1834.8</ele>
        <time>2014-09-03T08:43:53Z</time>
      </trkpt>
      <trkpt lat="44.9323" lon="6.74298">
        <ele>1836.5</ele>
        <time>2014-09-03T08:44:03Z</time>
      </trkpt>
      <trkpt lat="44.93216" lon="6.74281">
        <ele>1838.8</ele>
        <time>2014-09-03T08:44:14Z</time>
      </trkpt>
      <trkpt lat="44.93219" lon="6.74307">
        <ele>1844.9</ele>
        <time>2014-09-03T08:44:57Z</time>
      </trkpt>
      <trkpt lat="44.93227" lon="6.74332">
        <ele>1846.5</ele>
        <time>2014-09-03T08:45:04Z</time>
      </trkpt>
      <trkpt lat="44.93222" lon="6.74357">
        <ele>1848</ele>
        <time>2014-09-03T08:45:13Z</time>
      </trkpt>
      <trkpt lat="44.93218" lon="6.74383">
        <ele>1849.5</ele>
        <time>2014-09-03T08:45:25Z</time>
      </trkpt>
      <trkpt lat="44.93231" lon="6.74405">
        <ele>1851.3</ele>
        <time>2014-09-03T08:45:35Z</time>
      </trkpt>
      <trkpt lat="44.93246" lon="6.74421">
        <ele>1852.3</ele>
        <time>2014-09-03T08:45:40Z</time>
      </trkpt>
      <trkpt lat="44.93262" lon="6.7444">
        <ele>1853.1</ele>
        <time>2014-09-03T08:45:45Z</time>
      </trkpt>
      <trkpt lat="44.93277" lon="6.74458">
        <ele>1853.2</ele>
        <time>2014-09-03T08:45:51Z</time>
      </trkpt>
      <trkpt lat="44.93292" lon="6.74475">
        <ele>1853.5</ele>
        <time>2014-09-03T08:46:02Z</time>
      </trkpt>
      <trkpt lat="44.93305" lon="6.74496">
        <ele>1853.3</ele>
        <time>2014-09-03T08:46:08Z</time>
      </trkpt>
      <trkpt lat="44.9332" lon="6.74516">
        <ele>1849.7</ele>
        <time>2014-09-03T08:46:13Z</time>
      </trkpt>
      <trkpt lat="44.93338" lon="6.74531">
        <ele>1843.3</ele>
        <time>2014-09-03T08:46:17Z</time>
      </trkpt>
      <trkpt lat="44.93356" lon="6.74547">
        <ele>1836</ele>
        <time>2014-09-03T08:46:21Z</time>
      </trkpt>
      <trkpt lat="44.93373" lon="6.74557">
        <ele>1831</ele>
        <time>2014-09-03T08:46:32Z</time>
      </trkpt>
      <trkpt lat="44.93383" lon="6.74579">
        <ele>1828.5</ele>
        <time>2014-09-03T08:46:54Z</time>
      </trkpt>
      <trkpt lat="44.93382" lon="6.74553">
        <ele>1823.1</ele>
        <time>2014-09-03T08:49:03Z</time>
      </trkpt>
      <trkpt lat="44.9337" lon="6.74531">
        <ele>1823.5</ele>
        <time>2014-09-03T08:49:13Z</time>
      </trkpt>
      <trkpt lat="44.93359" lon="6.74506">
        <ele>1823.7</ele>
        <time>2014-09-03T08:49:18Z</time>
      </trkpt>
      <trkpt lat="44.93352" lon="6.74476">
        <ele>1823.3</ele>
        <time>2014-09-03T08:49:25Z</time>
      </trkpt>
      <trkpt lat="44.93347" lon="6.74449">
        <ele>1821.9</ele>
        <time>2014-09-03T08:49:30Z</time>
      </trkpt>
      <trkpt lat="44.93356" lon="6.74426">
        <ele>1820.4</ele>
        <time>2014-09-03T08:49:40Z</time>
      </trkpt>
      <trkpt lat="44.93362" lon="6.744">
        <ele>1818.9</ele>
        <time>2014-09-03T08:49:49Z</time>
      </trkpt>
      <trkpt lat="44.93368" lon="6.74375">
        <ele>1817.8</ele>
        <time>2014-09-03T08:50:00Z</time>
      </trkpt>
      <trkpt lat="44.93353" lon="6.74359">
        <ele>1817.4</ele>
        <time>2014-09-03T08:50:08Z</time>
      </trkpt>
      <trkpt lat="44.93334" lon="6.74347">
        <ele>1817</ele>
        <time>2014-09-03T08:50:16Z</time>
      </trkpt>
      <trkpt lat="44.93319" lon="6.74329">
        <ele>1816.5</ele>
        <time>2014-09-03T08:50:24Z</time>
      </trkpt>
      <trkpt lat="44.93305" lon="6.74311">
        <ele>1816.1</ele>
        <time>2014-09-03T08:50:34Z</time>
      </trkpt>
      <trkpt lat="44.93289" lon="6.74295">
        <ele>1816.9</ele>
        <time>2014-09-03T08:50:44Z</time>
      </trkpt>
      <trkpt lat="44.93276" lon="6.74278">
        <ele>1816.6</ele>
        <time>2014-09-03T08:50:54Z</time>
      </trkpt>
      <trkpt lat="44.93257" lon="6.74276">
        <ele>1816.5</ele>
        <time>2014-09-03T08:51:05Z</time>
      </trkpt>
      <trkpt lat="44.93241" lon="6.74264">
        <ele>1817.9</ele>
        <time>2014-09-03T08:51:18Z</time>
      </trkpt>
      <trkpt lat="44.93234" lon="6.74239">
        <ele>1820</ele>
        <time>2014-09-03T08:51:28Z</time>
      </trkpt>
      <trkpt lat="44.9323" lon="6.74214">
        <ele>1821.2</ele>
        <time>2014-09-03T08:51:35Z</time>
      </trkpt>
      <trkpt lat="44.93221" lon="6.74191">
        <ele>1821.7</ele>
        <time>2014-09-03T08:51:42Z</time>
      </trkpt>
      <trkpt lat="44.93211" lon="6.7417">
        <ele>1823.3</ele>
        <time>2014-09-03T08:52:05Z</time>
      </trkpt>
      <trkpt lat="44.93193" lon="6.74164">
        <ele>1827.1</ele>
        <time>2014-09-03T08:52:59Z</time>
      </trkpt>
      <trkpt lat="44.93192" lon="6.74136">
        <ele>1828.9</ele>
        <time>2014-09-03T08:53:18Z</time>
      </trkpt>
      <trkpt lat="44.93188" lon="6.7411">
        <ele>1830.3</ele>
        <time>2014-09-03T08:53:33Z</time>
      </trkpt>
      <trkpt lat="44.93171" lon="6.74099">
        <ele>1830.4</ele>
        <time>2014-09-03T08:57:55Z</time>
      </trkpt>
      <trkpt lat="44.93157" lon="6.74082">
        <ele>1831.3</ele>
        <time>2014-09-03T08:58:14Z</time>
      </trkpt>
      <trkpt lat="44.93159" lon="6.74056">
        <ele>1831.3</ele>
        <time>2014-09-03T08:58:35Z</time>
      </trkpt>
      <trkpt lat="44.93169" lon="6.7403">
        <ele>1831.1</ele>
        <time>2014-09-03T08:58:42Z</time>
      </trkpt>
      <trkpt lat="44.93176" lon="6.74006">
        <ele>1829.5</ele>
        <time>2014-09-03T08:58:46Z</time>
      </trkpt>
      <trkpt lat="44.93182" lon="6.73982">
        <ele>1827.8</ele>
        <time>2014-09-03T08:58:51Z</time>
      </trkpt>
      <trkpt lat="44.93185" lon="6.73955">
        <ele>1825.2</ele>
        <time>2014-09-03T08:58:57Z</time>
      </trkpt>
      <trkpt lat="44.93179" lon="6.73929">
        <ele>1825.2</ele>
        <time>2014-09-03T08:59:07Z</time>
      </trkpt>
      <trkpt lat="44.93172" lon="6.73904">
        <ele>1824.5</ele>
        <time>2014-09-03T08:59:16Z</time>
      </trkpt>
      <trkpt lat="44.93162" lon="6.73878">
        <ele>1824.1</ele>
        <time>2014-09-03T08:59:23Z</time>
      </trkpt>
      <trkpt lat="44.9315" lon="6.73857">
        <ele>1824</ele>
        <time>2014-09-03T08:59:32Z</time>
      </trkpt>
      <trkpt lat="44.9314" lon="6.73834">
        <ele>1823.5</ele>
        <time>2014-09-03T08:59:41Z</time>
      </trkpt>
      <trkpt lat="44.93128" lon="6.73813">
        <ele>1822.1</ele>
        <time>2014-09-03T08:59:58Z</time>
      </trkpt>
      <trkpt lat="44.93113" lon="6.73795">
        <ele>1821.3</ele>
        <time>2014-09-03T09:00:14Z</time>
      </trkpt>
      <trkpt lat="44.93102" lon="6.73774">
        <ele>1821.3</ele>
        <time>2014-09-03T09:00:22Z</time>
      </trkpt>
      <trkpt lat="44.93086" lon="6.73759">
        <ele>1821.6</ele>
        <time>2014-09-03T09:00:31Z</time>
      </trkpt>
      <trkpt lat="44.93071" lon="6.7374">
        <ele>1821.9</ele>
        <time>2014-09-03T09:00:39Z</time>
      </trkpt>
      <trkpt lat="44.93059" lon="6.7372">
        <ele>1822.6</ele>
        <time>2014-09-03T09:00:48Z</time>
      </trkpt>
      <trkpt lat="44.93048" lon="6.73698">
        <ele>1823.9</ele>
        <time>2014-09-03T09:01:00Z</time>
      </trkpt>
      <trkpt lat="44.93051" lon="6.73672">
        <ele>1824.9</ele>
        <time>2014-09-03T09:01:15Z</time>
      </trkpt>
      <trkpt lat="44.93062" lon="6.73649">
        <ele>1824.8</ele>
        <time>2014-09-03T09:01:26Z</time>
      </trkpt>
      <trkpt lat="44.93076" lon="6.73631">
        <ele>1824.8</ele>
        <time>2014-09-03T09:01:31Z</time>
      </trkpt>
      <trkpt lat="44.93094" lon="6.73614">
        <ele>1824.5</ele>
        <time>2014-09-03T09:01:37Z</time>
      </trkpt>
      <trkpt lat="44.9311" lon="6.73601">
        <ele>1824.1</ele>
        <time>2014-09-03T09:01:43Z</time>
      </trkpt>
      <trkpt lat="44.93124" lon="6.73584">
        <ele>1823.9</ele>
        <time>2014-09-03T09:01:49Z</time>
      </trkpt>
      <trkpt lat="44.93138" lon="6.73565">
        <ele>1823.8</ele>
        <time>2014-09-03T09:01:56Z</time>
      </trkpt>
      <trkpt lat="44.93148" lon="6.73541">
        <ele>1823.7</ele>
        <time>2014-09-03T09:02:04Z</time>
      </trkpt>
      <trkpt lat="44.93155" lon="6.73514">
        <ele>1823.7</ele>
        <time>2014-09-03T09:02:13Z</time>
      </trkpt>
      <trkpt lat="44.93158" lon="6.73487">
        <ele>1823.7</ele>
        <time>2014-09-03T09:02:21Z</time>
      </trkpt>
      <trkpt lat="44.93167" lon="6.73463">
        <ele>1824.4</ele>
        <time>2014-09-03T09:02:31Z</time>
      </trkpt>
      <trkpt lat="44.93186" lon="6.73455">
        <ele>1825.6</ele>
        <time>2014-09-03T09:02:40Z</time>
      </trkpt>
      <trkpt lat="44.93203" lon="6.73447">
        <ele>1826.9</ele>
        <time>2014-09-03T09:02:49Z</time>
      </trkpt>
      <trkpt lat="44.93213" lon="6.73426">
        <ele>1828</ele>
        <time>2014-09-03T09:02:58Z</time>
      </trkpt>
      <trkpt lat="44.93208" lon="6.734">
        <ele>1828.8</ele>
        <time>2014-09-03T09:03:06Z</time>
      </trkpt>
      <trkpt lat="44.93197" lon="6.73376">
        <ele>1829.8</ele>
        <time>2014-09-03T09:03:14Z</time>
      </trkpt>
      <trkpt lat="44.9319" lon="6.73351">
        <ele>1830.9</ele>
        <time>2014-09-03T09:03:22Z</time>
      </trkpt>
      <trkpt lat="44.93183" lon="6.73326">
        <ele>1832</ele>
        <time>2014-09-03T09:03:30Z</time>
      </trkpt>
      <trkpt lat="44.93172" lon="6.73306">
        <ele>1834.2</ele>
        <time>2014-09-03T09:03:46Z</time>
      </trkpt>
      <trkpt lat="44.93171" lon="6.7328">
        <ele>1839.8</ele>
        <time>2014-09-03T09:04:15Z</time>
      </trkpt>
      <trkpt lat="44.93166" lon="6.73254">
        <ele>1840.6</ele>
        <time>2014-09-03T09:04:22Z</time>
      </trkpt>
      <trkpt lat="44.93162" lon="6.73228">
        <ele>1841.3</ele>
        <time>2014-09-03T09:04:28Z</time>
      </trkpt>
      <trkpt lat="44.93158" lon="6.73202">
        <ele>1841.9</ele>
        <time>2014-09-03T09:04:35Z</time>
      </trkpt>
      <trkpt lat="44.93154" lon="6.73176">
        <ele>1842.6</ele>
        <time>2014-09-03T09:04:42Z</time>
      </trkpt>
      <trkpt lat="44.93149" lon="6.73146">
        <ele>1843.8</ele>
        <time>2014-09-03T09:04:49Z</time>
      </trkpt>
      <trkpt lat="44.93145" lon="6.73118">
        <ele>1844.7</ele>
        <time>2014-09-03T09:04:55Z</time>
      </trkpt>
      <trkpt lat="44.93142" lon="6.7309">
        <ele>1845.5</ele>
        <time>2014-09-03T09:05:02Z</time>
      </trkpt>
      <trkpt lat="44.93143" lon="6.73064">
        <ele>1846.4</ele>
        <time>2014-09-03T09:05:08Z</time>
      </trkpt>
      <trkpt lat="44.93146" lon="6.73037">
        <ele>1847.2</ele>
        <time>2014-09-03T09:05:14Z</time>
      </trkpt>
      <trkpt lat="44.93147" lon="6.73008">
        <ele>1847.8</ele>
        <time>2014-09-03T09:05:21Z</time>
      </trkpt>
      <trkpt lat="44.9314" lon="6.72981">
        <ele>1848.4</ele>
        <time>2014-09-03T09:05:27Z</time>
      </trkpt>
      <trkpt lat="44.93136" lon="6.72953">
        <ele>1848.8</ele>
        <time>2014-09-03T09:05:33Z</time>
      </trkpt>
      <trkpt lat="44.93136" lon="6.72927">
        <ele>1849.9</ele>
        <time>2014-09-03T09:05:38Z</time>
      </trkpt>
      <trkpt lat="44.93139" lon="6.72902">
        <ele>1850.3</ele>
        <time>2014-09-03T09:05:46Z</time>
      </trkpt>
      <trkpt lat="44.93131" lon="6.72876">
        <ele>1850.8</ele>
        <time>2014-09-03T09:05:54Z</time>
      </trkpt>
      <trkpt lat="44.93119" lon="6.72854">
        <ele>1851.5</ele>
        <time>2014-09-03T09:06:01Z</time>
      </trkpt>
      <trkpt lat="44.93109" lon="6.72829">
        <ele>1852.3</ele>
        <time>2014-09-03T09:06:08Z</time>
      </trkpt>
      <trkpt lat="44.931" lon="6.72803">
        <ele>1853.2</ele>
        <time>2014-09-03T09:06:15Z</time>
      </trkpt>
      <trkpt lat="44.93091" lon="6.72778">
        <ele>1854.2</ele>
        <time>2014-09-03T09:06:22Z</time>
      </trkpt>
      <trkpt lat="44.93083" lon="6.72751">
        <ele>1855.3</ele>
        <time>2014-09-03T09:06:29Z</time>
      </trkpt>
      <trkpt lat="44.93073" lon="6.7273">
        <ele>1856.9</ele>
        <time>2014-09-03T09:06:40Z</time>
      </trkpt>
      <trkpt lat="44.93072" lon="6.72701">
        <ele>1858.6</ele>
        <time>2014-09-03T09:06:55Z</time>
      </trkpt>
      <trkpt lat="44.93082" lon="6.72675">
        <ele>1859.9</ele>
        <time>2014-09-03T09:06:59Z</time>
      </trkpt>
      <trkpt lat="44.93091" lon="6.72645">
        <ele>1860.5</ele>
        <time>2014-09-03T09:07:03Z</time>
      </trkpt>
      <trkpt lat="44.93099" lon="6.72618">
        <ele>1860.4</ele>
        <time>2014-09-03T09:07:06Z</time>
      </trkpt>
      <trkpt lat="44.9311" lon="6.72586">
        <ele>1859.8</ele>
        <time>2014-09-03T09:07:09Z</time>
      </trkpt>
      <trkpt lat="44.93111" lon="6.72555">
        <ele>1857.9</ele>
        <time>2014-09-03T09:07:12Z</time>
      </trkpt>
      <trkpt lat="44.93093" lon="6.72535">
        <ele>1855.8</ele>
        <time>2014-09-03T09:07:15Z</time>
      </trkpt>
      <trkpt lat="44.93079" lon="6.72504">
        <ele>1853.2</ele>
        <time>2014-09-03T09:07:18Z</time>
      </trkpt>
      <trkpt lat="44.93069" lon="6.72471">
        <ele>1850.7</ele>
        <time>2014-09-03T09:07:21Z</time>
      </trkpt>
      <trkpt lat="44.93062" lon="6.7244">
        <ele>1849.4</ele>
        <time>2014-09-03T09:07:24Z</time>
      </trkpt>
      <trkpt lat="44.93057" lon="6.72411">
        <ele>1849.1</ele>
        <time>2014-09-03T09:07:27Z</time>
      </trkpt>
      <trkpt lat="44.9305" lon="6.72383">
        <ele>1848.6</ele>
        <time>2014-09-03T09:07:30Z</time>
      </trkpt>
      <trkpt lat="44.93044" lon="6.72359">
        <ele>1848.8</ele>
        <time>2014-09-03T09:07:33Z</time>
      </trkpt>
      <trkpt lat="44.93038" lon="6.72333">
        <ele>1850.2</ele>
        <time>2014-09-03T09:07:39Z</time>
      </trkpt>
      <trkpt lat="44.9303" lon="6.72307">
        <ele>1850.2</ele>
        <time>2014-09-03T09:07:44Z</time>
      </trkpt>
      <trkpt lat="44.93018" lon="6.72279">
        <ele>1849.6</ele>
        <time>2014-09-03T09:07:48Z</time>
      </trkpt>
      <trkpt lat="44.93007" lon="6.72251">
        <ele>1848</ele>
        <time>2014-09-03T09:07:51Z</time>
      </trkpt>
      <trkpt lat="44.93003" lon="6.72224">
        <ele>1846</ele>
        <time>2014-09-03T09:07:54Z</time>
      </trkpt>
      <trkpt lat="44.93009" lon="6.72195">
        <ele>1845.8</ele>
        <time>2014-09-03T09:07:57Z</time>
      </trkpt>
      <trkpt lat="44.93006" lon="6.72169">
        <ele>1845.7</ele>
        <time>2014-09-03T09:08:00Z</time>
      </trkpt>
      <trkpt lat="44.92987" lon="6.72149">
        <ele>1844.4</ele>
        <time>2014-09-03T09:08:03Z</time>
      </trkpt>
      <trkpt lat="44.92966" lon="6.7214">
        <ele>1842.9</ele>
        <time>2014-09-03T09:08:06Z</time>
      </trkpt>
      <trkpt lat="44.92947" lon="6.72133">
        <ele>1843.2</ele>
        <time>2014-09-03T09:08:12Z</time>
      </trkpt>
      <trkpt lat="44.92929" lon="6.72128">
        <ele>1843.9</ele>
        <time>2014-09-03T09:08:20Z</time>
      </trkpt>
      <trkpt lat="44.9291" lon="6.72124">
        <ele>1844.9</ele>
        <time>2014-09-03T09:08:28Z</time>
      </trkpt>
      <trkpt lat="44.92893" lon="6.72111">
        <ele>1845.5</ele>
        <time>2014-09-03T09:08:35Z</time>
      </trkpt>
      <trkpt lat="44.92878" lon="6.72096">
        <ele>1845.8</ele>
        <time>2014-09-03T09:08:42Z</time>
      </trkpt>
      <trkpt lat="44.92861" lon="6.72083">
        <ele>1846.3</ele>
        <time>2014-09-03T09:08:50Z</time>
      </trkpt>
      <trkpt lat="44.92844" lon="6.7207">
        <ele>1847.1</ele>
        <time>2014-09-03T09:08:58Z</time>
      </trkpt>
      <trkpt lat="44.92828" lon="6.72052">
        <ele>1848.1</ele>
        <time>2014-09-03T09:09:07Z</time>
      </trkpt>
      <trkpt lat="44.92819" lon="6.72028">
        <ele>1849.7</ele>
        <time>2014-09-03T09:09:15Z</time>
      </trkpt>
      <trkpt lat="44.92819" lon="6.71999">
        <ele>1851.1</ele>
        <time>2014-09-03T09:09:22Z</time>
      </trkpt>
      <trkpt lat="44.92818" lon="6.71969">
        <ele>1851.9</ele>
        <time>2014-09-03T09:09:28Z</time>
      </trkpt>
      <trkpt lat="44.92819" lon="6.71938">
        <ele>1855.1</ele>
        <time>2014-09-03T09:09:33Z</time>
      </trkpt>
      <trkpt lat="44.92805" lon="6.71919">
        <ele>1855.1</ele>
        <time>2014-09-03T09:10:00Z</time>
      </trkpt>
      <trkpt lat="44.92787" lon="6.71928">
        <ele>1854.6</ele>
        <time>2014-09-03T09:10:07Z</time>
      </trkpt>
      <trkpt lat="44.92767" lon="6.71923">
        <ele>1854.2</ele>
        <time>2014-09-03T09:10:14Z</time>
      </trkpt>
      <trkpt lat="44.9275" lon="6.71912">
        <ele>1854.6</ele>
        <time>2014-09-03T09:10:23Z</time>
      </trkpt>
      <trkpt lat="44.92767" lon="6.71896">
        <ele>1855.1</ele>
        <time>2014-09-03T09:11:25Z</time>
      </trkpt>
      <trkpt lat="44.92781" lon="6.71877">
        <ele>1853.7</ele>
        <time>2014-09-03T09:11:30Z</time>
      </trkpt>
      <trkpt lat="44.92792" lon="6.71855">
        <ele>1850.5</ele>
        <time>2014-09-03T09:11:40Z</time>
      </trkpt>
      <trkpt lat="44.92811" lon="6.71853">
        <ele>1848</ele>
        <time>2014-09-03T09:12:00Z</time>
      </trkpt>
      <trkpt lat="44.92799" lon="6.7183">
        <ele>1843.1</ele>
        <time>2014-09-03T09:12:05Z</time>
      </trkpt>
      <trkpt lat="44.92785" lon="6.71814">
        <ele>1840.8</ele>
        <time>2014-09-03T09:12:08Z</time>
      </trkpt>
      <trkpt lat="44.92772" lon="6.7179">
        <ele>1839.2</ele>
        <time>2014-09-03T09:12:11Z</time>
      </trkpt>
      <trkpt lat="44.92761" lon="6.71766">
        <ele>1837.8</ele>
        <time>2014-09-03T09:12:14Z</time>
      </trkpt>
      <trkpt lat="44.92746" lon="6.71748">
        <ele>1837.2</ele>
        <time>2014-09-03T09:12:19Z</time>
      </trkpt>
      <trkpt lat="44.92734" lon="6.71727">
        <ele>1836.9</ele>
        <time>2014-09-03T09:12:26Z</time>
      </trkpt>
      <trkpt lat="44.92724" lon="6.717">
        <ele>1836.8</ele>
        <time>2014-09-03T09:12:33Z</time>
      </trkpt>
      <trkpt lat="44.92722" lon="6.71672">
        <ele>1836.9</ele>
        <time>2014-09-03T09:12:39Z</time>
      </trkpt>
      <trkpt lat="44.92723" lon="6.71646">
        <ele>1836.9</ele>
        <time>2014-09-03T09:12:45Z</time>
      </trkpt>
      <trkpt lat="44.92723" lon="6.71619">
        <ele>1837.5</ele>
        <time>2014-09-03T09:12:52Z</time>
      </trkpt>
      <trkpt lat="44.92723" lon="6.71588">
        <ele>1838.4</ele>
        <time>2014-09-03T09:12:59Z</time>
      </trkpt>
      <trkpt lat="44.92719" lon="6.71563">
        <ele>1839.9</ele>
        <time>2014-09-03T09:13:03Z</time>
      </trkpt>
      <trkpt lat="44.92711" lon="6.71535">
        <ele>1839.5</ele>
        <time>2014-09-03T09:13:07Z</time>
      </trkpt>
      <trkpt lat="44.92704" lon="6.71511">
        <ele>1837.9</ele>
        <time>2014-09-03T09:13:10Z</time>
      </trkpt>
      <trkpt lat="44.92689" lon="6.71496">
        <ele>1837.2</ele>
        <time>2014-09-03T09:13:13Z</time>
      </trkpt>
      <trkpt lat="44.92671" lon="6.71478">
        <ele>1837.6</ele>
        <time>2014-09-03T09:13:17Z</time>
      </trkpt>
      <trkpt lat="44.92661" lon="6.71456">
        <ele>1837.6</ele>
        <time>2014-09-03T09:13:23Z</time>
      </trkpt>
      <trkpt lat="44.92651" lon="6.71431">
        <ele>1837.4</ele>
        <time>2014-09-03T09:13:30Z</time>
      </trkpt>
      <trkpt lat="44.9264" lon="6.71411">
        <ele>1837.8</ele>
        <time>2014-09-03T09:13:38Z</time>
      </trkpt>
      <trkpt lat="44.92626" lon="6.71393">
        <ele>1838.2</ele>
        <time>2014-09-03T09:13:45Z</time>
      </trkpt>
      <trkpt lat="44.92612" lon="6.71374">
        <ele>1839.1</ele>
        <time>2014-09-03T09:13:54Z</time>
      </trkpt>
      <trkpt lat="44.92596" lon="6.71358">
        <ele>1839.9</ele>
        <time>2014-09-03T09:14:02Z</time>
      </trkpt>
      <trkpt lat="44.92578" lon="6.71344">
        <ele>1841.6</ele>
        <time>2014-09-03T09:14:12Z</time>
      </trkpt>
      <trkpt lat="44.92558" lon="6.71334">
        <ele>1842.6</ele>
        <time>2014-09-03T09:14:19Z</time>
      </trkpt>
      <trkpt lat="44.92539" lon="6.71329">
        <ele>1843.1</ele>
        <time>2014-09-03T09:14:27Z</time>
      </trkpt>
      <trkpt lat="44.9252" lon="6.71335">
        <ele>1844.2</ele>
        <time>2014-09-03T09:14:37Z</time>
      </trkpt>
      <trkpt lat="44.92504" lon="6.7135">
        <ele>1845.4</ele>
        <time>2014-09-03T09:14:45Z</time>
      </trkpt>
      <trkpt lat="44.92491" lon="6.71369">
        <ele>1846.9</ele>
        <time>2014-09-03T09:14:54Z</time>
      </trkpt>
      <trkpt lat="44.92477" lon="6.71387">
        <ele>1848.1</ele>
        <time>2014-09-03T09:15:02Z</time>
      </trkpt>
      <trkpt lat="44.92464" lon="6.71404">
        <ele>1849.1</ele>
        <time>2014-09-03T09:15:10Z</time>
      </trkpt>
      <trkpt lat="44.92448" lon="6.71421">
        <ele>1850.2</ele>
        <time>2014-09-03T09:15:19Z</time>
      </trkpt>
      <trkpt lat="44.9244" lon="6.71443">
        <ele>1851.9</ele>
        <time>2014-09-03T09:15:27Z</time>
      </trkpt>
      <trkpt lat="44.92432" lon="6.71469">
        <ele>1852.7</ele>
        <time>2014-09-03T09:15:35Z</time>
      </trkpt>
      <trkpt lat="44.92423" lon="6.71494">
        <ele>1853.9</ele>
        <time>2014-09-03T09:15:44Z</time>
      </trkpt>
      <trkpt lat="44.92414" lon="6.71518">
        <ele>1856.2</ele>
        <time>2014-09-03T09:15:53Z</time>
      </trkpt>
      <trkpt lat="44.92407" lon="6.71545">
        <ele>1858.5</ele>
        <time>2014-09-03T09:16:01Z</time>
      </trkpt>
      <trkpt lat="44.92397" lon="6.71568">
        <ele>1860.1</ele>
        <time>2014-09-03T09:16:10Z</time>
      </trkpt>
      <trkpt lat="44.92384" lon="6.71588">
        <ele>1861</ele>
        <time>2014-09-03T09:16:18Z</time>
      </trkpt>
      <trkpt lat="44.92371" lon="6.71608">
        <ele>1862.4</ele>
        <time>2014-09-03T09:16:26Z</time>
      </trkpt>
      <trkpt lat="44.92361" lon="6.71632">
        <ele>1864.4</ele>
        <time>2014-09-03T09:16:35Z</time>
      </trkpt>
      <trkpt lat="44.92351" lon="6.71655">
        <ele>1866.4</ele>
        <time>2014-09-03T09:16:43Z</time>
      </trkpt>
      <trkpt lat="44.92337" lon="6.71672">
        <ele>1868.2</ele>
        <time>2014-09-03T09:16:50Z</time>
      </trkpt>
      <trkpt lat="44.92322" lon="6.71656">
        <ele>1871.1</ele>
        <time>2014-09-03T09:17:00Z</time>
      </trkpt>
      <trkpt lat="44.92311" lon="6.71635">
        <ele>1874.2</ele>
        <time>2014-09-03T09:17:09Z</time>
      </trkpt>
      <trkpt lat="44.92298" lon="6.71617">
        <ele>1877</ele>
        <time>2014-09-03T09:17:17Z</time>
      </trkpt>
      <trkpt lat="44.92288" lon="6.71592">
        <ele>1879.8</ele>
        <time>2014-09-03T09:17:26Z</time>
      </trkpt>
      <trkpt lat="44.92276" lon="6.7157">
        <ele>1882.4</ele>
        <time>2014-09-03T09:17:35Z</time>
      </trkpt>
      <trkpt lat="44.92269" lon="6.71593">
        <ele>1885.9</ele>
        <time>2014-09-03T09:17:49Z</time>
      </trkpt>
      <trkpt lat="44.92278" lon="6.71617">
        <ele>1888.4</ele>
        <time>2014-09-03T09:17:57Z</time>
      </trkpt>
      <trkpt lat="44.9228" lon="6.71644">
        <ele>1891.3</ele>
        <time>2014-09-03T09:18:06Z</time>
      </trkpt>
      <trkpt lat="44.92278" lon="6.71671">
        <ele>1894</ele>
        <time>2014-09-03T09:18:15Z</time>
      </trkpt>
      <trkpt lat="44.92275" lon="6.71699">
        <ele>1895.9</ele>
        <time>2014-09-03T09:18:24Z</time>
      </trkpt>
      <trkpt lat="44.92279" lon="6.71724">
        <ele>1897.5</ele>
        <time>2014-09-03T09:18:32Z</time>
      </trkpt>
      <trkpt lat="44.92281" lon="6.71752">
        <ele>1900.1</ele>
        <time>2014-09-03T09:18:41Z</time>
      </trkpt>
      <trkpt lat="44.92279" lon="6.7178">
        <ele>1902.5</ele>
        <time>2014-09-03T09:18:50Z</time>
      </trkpt>
      <trkpt lat="44.92278" lon="6.71806">
        <ele>1904.7</ele>
        <time>2014-09-03T09:18:58Z</time>
      </trkpt>
      <trkpt lat="44.92283" lon="6.71832">
        <ele>1907</ele>
        <time>2014-09-03T09:19:06Z</time>
      </trkpt>
      <trkpt lat="44.9229" lon="6.71856">
        <ele>1909.7</ele>
        <time>2014-09-03T09:19:13Z</time>
      </trkpt>
      <trkpt lat="44.92291" lon="6.71884">
        <ele>1912.4</ele>
        <time>2014-09-03T09:19:22Z</time>
      </trkpt>
      <trkpt lat="44.92286" lon="6.71911">
        <ele>1914.3</ele>
        <time>2014-09-03T09:19:31Z</time>
      </trkpt>
      <trkpt lat="44.9228" lon="6.71936">
        <ele>1915.4</ele>
        <time>2014-09-03T09:19:40Z</time>
      </trkpt>
      <trkpt lat="44.92275" lon="6.71962">
        <ele>1916.6</ele>
        <time>2014-09-03T09:19:49Z</time>
      </trkpt>
      <trkpt lat="44.92276" lon="6.71988">
        <ele>1919.1</ele>
        <time>2014-09-03T09:20:00Z</time>
      </trkpt>
      <trkpt lat="44.92263" lon="6.71969">
        <ele>1923.4</ele>
        <time>2014-09-03T09:20:21Z</time>
      </trkpt>
      <trkpt lat="44.92262" lon="6.71941">
        <ele>1925.3</ele>
        <time>2014-09-03T09:20:30Z</time>
      </trkpt>
      <trkpt lat="44.92257" lon="6.71916">
        <ele>1926.9</ele>
        <time>2014-09-03T09:20:37Z</time>
      </trkpt>
      <trkpt lat="44.92249" lon="6.71891">
        <ele>1928.7</ele>
        <time>2014-09-03T09:20:45Z</time>
      </trkpt>
      <trkpt lat="44.92241" lon="6.71866">
        <ele>1930.2</ele>
        <time>2014-09-03T09:20:53Z</time>
      </trkpt>
      <trkpt lat="44.92236" lon="6.71842">
        <ele>1931.4</ele>
        <time>2014-09-03T09:21:00Z</time>
      </trkpt>
      <trkpt lat="44.92231" lon="6.71816">
        <ele>1932.5</ele>
        <time>2014-09-03T09:21:08Z</time>
      </trkpt>
      <trkpt lat="44.92219" lon="6.71797">
        <ele>1933.9</ele>
        <time>2014-09-03T09:21:16Z</time>
      </trkpt>
      <trkpt lat="44.92203" lon="6.71782">
        <ele>1935.6</ele>
        <time>2014-09-03T09:21:24Z</time>
      </trkpt>
      <trkpt lat="44.92191" lon="6.71764">
        <ele>1937.7</ele>
        <time>2014-09-03T09:21:32Z</time>
      </trkpt>
      <trkpt lat="44.92181" lon="6.71742">
        <ele>1940.1</ele>
        <time>2014-09-03T09:21:40Z</time>
      </trkpt>
      <trkpt lat="44.92179" lon="6.71714">
        <ele>1942.6</ele>
        <time>2014-09-03T09:21:49Z</time>
      </trkpt>
      <trkpt lat="44.92166" lon="6.71693">
        <ele>1943.9</ele>
        <time>2014-09-03T09:21:58Z</time>
      </trkpt>
      <trkpt lat="44.92159" lon="6.71716">
        <ele>1947.6</ele>
        <time>2014-09-03T09:22:11Z</time>
      </trkpt>
      <trkpt lat="44.92165" lon="6.71741">
        <ele>1950.1</ele>
        <time>2014-09-03T09:22:18Z</time>
      </trkpt>
      <trkpt lat="44.92173" lon="6.71766">
        <ele>1952.9</ele>
        <time>2014-09-03T09:22:26Z</time>
      </trkpt>
      <trkpt lat="44.92177" lon="6.71792">
        <ele>1955.2</ele>
        <time>2014-09-03T09:22:34Z</time>
      </trkpt>
      <trkpt lat="44.92181" lon="6.7182">
        <ele>1957.4</ele>
        <time>2014-09-03T09:22:43Z</time>
      </trkpt>
      <trkpt lat="44.92185" lon="6.71845">
        <ele>1959.5</ele>
        <time>2014-09-03T09:22:51Z</time>
      </trkpt>
      <trkpt lat="44.92191" lon="6.7187">
        <ele>1961.2</ele>
        <time>2014-09-03T09:22:59Z</time>
      </trkpt>
      <trkpt lat="44.92195" lon="6.71897">
        <ele>1963</ele>
        <time>2014-09-03T09:23:07Z</time>
      </trkpt>
      <trkpt lat="44.9219" lon="6.71924">
        <ele>1964.6</ele>
        <time>2014-09-03T09:23:16Z</time>
      </trkpt>
      <trkpt lat="44.92181" lon="6.7195">
        <ele>1966.3</ele>
        <time>2014-09-03T09:23:25Z</time>
      </trkpt>
      <trkpt lat="44.92172" lon="6.71972">
        <ele>1967.3</ele>
        <time>2014-09-03T09:23:33Z</time>
      </trkpt>
      <trkpt lat="44.92163" lon="6.71996">
        <ele>1969</ele>
        <time>2014-09-03T09:23:42Z</time>
      </trkpt>
      <trkpt lat="44.92155" lon="6.72021">
        <ele>1973.9</ele>
        <time>2014-09-03T09:23:54Z</time>
      </trkpt>
      <trkpt lat="44.92143" lon="6.72042">
        <ele>1976.8</ele>
        <time>2014-09-03T09:24:03Z</time>
      </trkpt>
      <trkpt lat="44.9213" lon="6.7206">
        <ele>1979.1</ele>
        <time>2014-09-03T09:24:13Z</time>
      </trkpt>
      <trkpt lat="44.92117" lon="6.72078">
        <ele>1981.5</ele>
        <time>2014-09-03T09:24:22Z</time>
      </trkpt>
      <trkpt lat="44.92102" lon="6.72096">
        <ele>1983.9</ele>
        <time>2014-09-03T09:24:31Z</time>
      </trkpt>
      <trkpt lat="44.92088" lon="6.72115">
        <ele>1986.3</ele>
        <time>2014-09-03T09:24:40Z</time>
      </trkpt>
      <trkpt lat="44.92076" lon="6.72135">
        <ele>1988.9</ele>
        <time>2014-09-03T09:24:49Z</time>
      </trkpt>
      <trkpt lat="44.92062" lon="6.72153">
        <ele>1991.1</ele>
        <time>2014-09-03T09:24:59Z</time>
      </trkpt>
      <trkpt lat="44.92045" lon="6.7217">
        <ele>1993.5</ele>
        <time>2014-09-03T09:25:08Z</time>
      </trkpt>
      <trkpt lat="44.92028" lon="6.7218">
        <ele>1995.1</ele>
        <time>2014-09-03T09:25:15Z</time>
      </trkpt>
      <trkpt lat="44.9201" lon="6.72191">
        <ele>1997.1</ele>
        <time>2014-09-03T09:25:25Z</time>
      </trkpt>
      <trkpt lat="44.91994" lon="6.72204">
        <ele>1999.2</ele>
        <time>2014-09-03T09:25:35Z</time>
      </trkpt>
      <trkpt lat="44.91976" lon="6.72217">
        <ele>2002.1</ele>
        <time>2014-09-03T09:25:44Z</time>
      </trkpt>
      <trkpt lat="44.91958" lon="6.72223">
        <ele>2004.4</ele>
        <time>2014-09-03T09:25:52Z</time>
      </trkpt>
      <trkpt lat="44.91939" lon="6.72228">
        <ele>2006.5</ele>
        <time>2014-09-03T09:26:01Z</time>
      </trkpt>
      <trkpt lat="44.91921" lon="6.72234">
        <ele>2008.3</ele>
        <time>2014-09-03T09:26:09Z</time>
      </trkpt>
      <trkpt lat="44.91904" lon="6.72243">
        <ele>2010.6</ele>
        <time>2014-09-03T09:26:19Z</time>
      </trkpt>
      <trkpt lat="44.91886" lon="6.72254">
        <ele>2013.3</ele>
        <time>2014-09-03T09:26:28Z</time>
      </trkpt>
      <trkpt lat="44.91869" lon="6.72264">
        <ele>2015.2</ele>
        <time>2014-09-03T09:26:36Z</time>
      </trkpt>
      <trkpt lat="44.91853" lon="6.72276">
        <ele>2016.8</ele>
        <time>2014-09-03T09:26:46Z</time>
      </trkpt>
      <trkpt lat="44.91836" lon="6.72286">
        <ele>2019.6</ele>
        <time>2014-09-03T09:26:59Z</time>
      </trkpt>
      <trkpt lat="44.91818" lon="6.72293">
        <ele>2020.8</ele>
        <time>2014-09-03T09:27:08Z</time>
      </trkpt>
      <trkpt lat="44.91802" lon="6.72305">
        <ele>2024.3</ele>
        <time>2014-09-03T09:27:21Z</time>
      </trkpt>
      <trkpt lat="44.91784" lon="6.72315">
        <ele>2027</ele>
        <time>2014-09-03T09:27:32Z</time>
      </trkpt>
      <trkpt lat="44.91766" lon="6.72323">
        <ele>2028.9</ele>
        <time>2014-09-03T09:27:42Z</time>
      </trkpt>
      <trkpt lat="44.91748" lon="6.72333">
        <ele>2030.3</ele>
        <time>2014-09-03T09:27:50Z</time>
      </trkpt>
      <trkpt lat="44.91732" lon="6.72346">
        <ele>2032.8</ele>
        <time>2014-09-03T09:28:01Z</time>
      </trkpt>
      <trkpt lat="44.91714" lon="6.72355">
        <ele>2035.2</ele>
        <time>2014-09-03T09:28:11Z</time>
      </trkpt>
      <trkpt lat="44.91696" lon="6.72359">
        <ele>2036.7</ele>
        <time>2014-09-03T09:28:21Z</time>
      </trkpt>
      <trkpt lat="44.91676" lon="6.72365">
        <ele>2038.3</ele>
        <time>2014-09-03T09:28:31Z</time>
      </trkpt>
      <trkpt lat="44.91658" lon="6.72369">
        <ele>2039.5</ele>
        <time>2014-09-03T09:28:39Z</time>
      </trkpt>
      <trkpt lat="44.91639" lon="6.7237">
        <ele>2040.8</ele>
        <time>2014-09-03T09:28:48Z</time>
      </trkpt>
      <trkpt lat="44.91621" lon="6.72377">
        <ele>2041.8</ele>
        <time>2014-09-03T09:28:58Z</time>
      </trkpt>
      <trkpt lat="44.91604" lon="6.7239">
        <ele>2044.8</ele>
        <time>2014-09-03T09:29:11Z</time>
      </trkpt>
      <trkpt lat="44.91593" lon="6.72412">
        <ele>2048</ele>
        <time>2014-09-03T09:29:21Z</time>
      </trkpt>
      <trkpt lat="44.91585" lon="6.72435">
        <ele>2051.7</ele>
        <time>2014-09-03T09:29:31Z</time>
      </trkpt>
      <trkpt lat="44.91569" lon="6.72452">
        <ele>2055.6</ele>
        <time>2014-09-03T09:29:42Z</time>
      </trkpt>
      <trkpt lat="44.91552" lon="6.7246">
        <ele>2058.8</ele>
        <time>2014-09-03T09:29:51Z</time>
      </trkpt>
      <trkpt lat="44.91534" lon="6.72459">
        <ele>2061.9</ele>
        <time>2014-09-03T09:30:00Z</time>
      </trkpt>
      <trkpt lat="44.91517" lon="6.72445">
        <ele>2063.6</ele>
        <time>2014-09-03T09:30:08Z</time>
      </trkpt>
      <trkpt lat="44.91502" lon="6.72428">
        <ele>2064.1</ele>
        <time>2014-09-03T09:30:15Z</time>
      </trkpt>
      <trkpt lat="44.91482" lon="6.72418">
        <ele>2063.4</ele>
        <time>2014-09-03T09:30:23Z</time>
      </trkpt>
      <trkpt lat="44.91463" lon="6.7241">
        <ele>2061.8</ele>
        <time>2014-09-03T09:30:30Z</time>
      </trkpt>
      <trkpt lat="44.91446" lon="6.72402">
        <ele>2060.5</ele>
        <time>2014-09-03T09:30:37Z</time>
      </trkpt>
      <trkpt lat="44.91428" lon="6.7239">
        <ele>2058.8</ele>
        <time>2014-09-03T09:30:45Z</time>
      </trkpt>
      <trkpt lat="44.91409" lon="6.72389">
        <ele>2056.9</ele>
        <time>2014-09-03T09:30:54Z</time>
      </trkpt>
      <trkpt lat="44.91391" lon="6.72391">
        <ele>2056.4</ele>
        <time>2014-09-03T09:31:04Z</time>
      </trkpt>
      <trkpt lat="44.9137" lon="6.72391">
        <ele>2057.3</ele>
        <time>2014-09-03T09:31:14Z</time>
      </trkpt>
      <trkpt lat="44.91352" lon="6.72388">
        <ele>2058.5</ele>
        <time>2014-09-03T09:31:21Z</time>
      </trkpt>
      <trkpt lat="44.91333" lon="6.72382">
        <ele>2059.7</ele>
        <time>2014-09-03T09:31:29Z</time>
      </trkpt>
      <trkpt lat="44.91315" lon="6.72372">
        <ele>2061.7</ele>
        <time>2014-09-03T09:31:40Z</time>
      </trkpt>
      <trkpt lat="44.913" lon="6.72354">
        <ele>2062.6</ele>
        <time>2014-09-03T09:31:49Z</time>
      </trkpt>
      <trkpt lat="44.91288" lon="6.72333">
        <ele>2063.4</ele>
        <time>2014-09-03T09:31:58Z</time>
      </trkpt>
      <trkpt lat="44.91275" lon="6.72313">
        <ele>2064</ele>
        <time>2014-09-03T09:32:07Z</time>
      </trkpt>
      <trkpt lat="44.91257" lon="6.72304">
        <ele>2064.5</ele>
        <time>2014-09-03T09:32:15Z</time>
      </trkpt>
      <trkpt lat="44.91237" lon="6.72303">
        <ele>2064.9</ele>
        <time>2014-09-03T09:32:24Z</time>
      </trkpt>
      <trkpt lat="44.91219" lon="6.72307">
        <ele>2065.8</ele>
        <time>2014-09-03T09:32:33Z</time>
      </trkpt>
      <trkpt lat="44.912" lon="6.72313">
        <ele>2067.9</ele>
        <time>2014-09-03T09:32:42Z</time>
      </trkpt>
      <trkpt lat="44.9118" lon="6.72311">
        <ele>2072</ele>
        <time>2014-09-03T09:32:53Z</time>
      </trkpt>
      <trkpt lat="44.91162" lon="6.72303">
        <ele>2076.1</ele>
        <time>2014-09-03T09:33:02Z</time>
      </trkpt>
      <trkpt lat="44.91144" lon="6.72294">
        <ele>2078.2</ele>
        <time>2014-09-03T09:33:08Z</time>
      </trkpt>
      <trkpt lat="44.91125" lon="6.72281">
        <ele>2079.8</ele>
        <time>2014-09-03T09:33:16Z</time>
      </trkpt>
      <trkpt lat="44.91107" lon="6.72274">
        <ele>2080.7</ele>
        <time>2014-09-03T09:33:25Z</time>
      </trkpt>
      <trkpt lat="44.91088" lon="6.72276">
        <ele>2082</ele>
        <time>2014-09-03T09:33:33Z</time>
      </trkpt>
      <trkpt lat="44.9107" lon="6.72287">
        <ele>2083.8</ele>
        <time>2014-09-03T09:33:41Z</time>
      </trkpt>
      <trkpt lat="44.91054" lon="6.723">
        <ele>2085.4</ele>
        <time>2014-09-03T09:33:47Z</time>
      </trkpt>
      <trkpt lat="44.91039" lon="6.72315">
        <ele>2086.8</ele>
        <time>2014-09-03T09:33:54Z</time>
      </trkpt>
      <trkpt lat="44.91025" lon="6.72334">
        <ele>2088.1</ele>
        <time>2014-09-03T09:34:04Z</time>
      </trkpt>
      <trkpt lat="44.91015" lon="6.72355">
        <ele>2089.8</ele>
        <time>2014-09-03T09:34:15Z</time>
      </trkpt>
      <trkpt lat="44.91001" lon="6.72372">
        <ele>2092.9</ele>
        <time>2014-09-03T09:34:31Z</time>
      </trkpt>
      <trkpt lat="44.90984" lon="6.72384">
        <ele>2096.7</ele>
        <time>2014-09-03T09:34:44Z</time>
      </trkpt>
      <trkpt lat="44.90976" lon="6.72407">
        <ele>2097.3</ele>
        <time>2014-09-03T09:34:57Z</time>
      </trkpt>
      <trkpt lat="44.90982" lon="6.72432">
        <ele>2098.1</ele>
        <time>2014-09-03T09:35:08Z</time>
      </trkpt>
      <trkpt lat="44.90992" lon="6.72455">
        <ele>2098.5</ele>
        <time>2014-09-03T09:35:19Z</time>
      </trkpt>
      <trkpt lat="44.90995" lon="6.72481">
        <ele>2099.5</ele>
        <time>2014-09-03T09:35:31Z</time>
      </trkpt>
      <trkpt lat="44.90978" lon="6.72491">
        <ele>2103.1</ele>
        <time>2014-09-03T09:35:48Z</time>
      </trkpt>
      <trkpt lat="44.9096" lon="6.72485">
        <ele>2108</ele>
        <time>2014-09-03T09:36:01Z</time>
      </trkpt>
      <trkpt lat="44.90942" lon="6.72477">
        <ele>2111.5</ele>
        <time>2014-09-03T09:36:11Z</time>
      </trkpt>
      <trkpt lat="44.90924" lon="6.72469">
        <ele>2115.7</ele>
        <time>2014-09-03T09:36:23Z</time>
      </trkpt>
      <trkpt lat="44.90914" lon="6.72491">
        <ele>2117.9</ele>
        <time>2014-09-03T09:36:34Z</time>
      </trkpt>
      <trkpt lat="44.90914" lon="6.72518">
        <ele>2119.2</ele>
        <time>2014-09-03T09:36:44Z</time>
      </trkpt>
      <trkpt lat="44.90916" lon="6.72545">
        <ele>2120.3</ele>
        <time>2014-09-03T09:36:54Z</time>
      </trkpt>
      <trkpt lat="44.90917" lon="6.72571">
        <ele>2121.5</ele>
        <time>2014-09-03T09:37:03Z</time>
      </trkpt>
      <trkpt lat="44.90922" lon="6.72597">
        <ele>2122.6</ele>
        <time>2014-09-03T09:37:12Z</time>
      </trkpt>
      <trkpt lat="44.90935" lon="6.72617">
        <ele>2123.3</ele>
        <time>2014-09-03T09:37:21Z</time>
      </trkpt>
      <trkpt lat="44.90949" lon="6.72635">
        <ele>2123.7</ele>
        <time>2014-09-03T09:37:30Z</time>
      </trkpt>
      <trkpt lat="44.90939" lon="6.72657">
        <ele>2124.1</ele>
        <time>2014-09-03T09:37:44Z</time>
      </trkpt>
      <trkpt lat="44.90941" lon="6.72683">
        <ele>2126.1</ele>
        <time>2014-09-03T09:37:59Z</time>
      </trkpt>
      <trkpt lat="44.90957" lon="6.72694">
        <ele>2127.9</ele>
        <time>2014-09-03T09:38:08Z</time>
      </trkpt>
      <trkpt lat="44.90975" lon="6.72705">
        <ele>2129.1</ele>
        <time>2014-09-03T09:38:15Z</time>
      </trkpt>
      <trkpt lat="44.90995" lon="6.7271">
        <ele>2130.1</ele>
        <time>2014-09-03T09:38:22Z</time>
      </trkpt>
      <trkpt lat="44.91013" lon="6.72712">
        <ele>2133.5</ele>
        <time>2014-09-03T09:38:27Z</time>
      </trkpt>
      <trkpt lat="44.91033" lon="6.72718">
        <ele>2134.8</ele>
        <time>2014-09-03T09:38:33Z</time>
      </trkpt>
      <trkpt lat="44.91053" lon="6.72728">
        <ele>2135</ele>
        <time>2014-09-03T09:38:39Z</time>
      </trkpt>
      <trkpt lat="44.91071" lon="6.72736">
        <ele>2134.9</ele>
        <time>2014-09-03T09:38:44Z</time>
      </trkpt>
      <trkpt lat="44.91089" lon="6.72746">
        <ele>2134.9</ele>
        <time>2014-09-03T09:38:51Z</time>
      </trkpt>
      <trkpt lat="44.91107" lon="6.72759">
        <ele>2134.8</ele>
        <time>2014-09-03T09:38:59Z</time>
      </trkpt>
      <trkpt lat="44.91124" lon="6.72773">
        <ele>2134.6</ele>
        <time>2014-09-03T09:39:06Z</time>
      </trkpt>
      <trkpt lat="44.91143" lon="6.72783">
        <ele>2134.5</ele>
        <time>2014-09-03T09:39:14Z</time>
      </trkpt>
      <trkpt lat="44.91162" lon="6.72789">
        <ele>2134.8</ele>
        <time>2014-09-03T09:39:22Z</time>
      </trkpt>
      <trkpt lat="44.91181" lon="6.72792">
        <ele>2135</ele>
        <time>2014-09-03T09:39:30Z</time>
      </trkpt>
      <trkpt lat="44.91199" lon="6.72795">
        <ele>2135.3</ele>
        <time>2014-09-03T09:39:39Z</time>
      </trkpt>
      <trkpt lat="44.91218" lon="6.72796">
        <ele>2136.3</ele>
        <time>2014-09-03T09:39:50Z</time>
      </trkpt>
      <trkpt lat="44.91236" lon="6.72801">
        <ele>2138.3</ele>
        <time>2014-09-03T09:40:02Z</time>
      </trkpt>
      <trkpt lat="44.91255" lon="6.72808">
        <ele>2140.7</ele>
        <time>2014-09-03T09:40:12Z</time>
      </trkpt>
      <trkpt lat="44.91273" lon="6.72812">
        <ele>2142.2</ele>
        <time>2014-09-03T09:40:22Z</time>
      </trkpt>
      <trkpt lat="44.91291" lon="6.72812">
        <ele>2143.4</ele>
        <time>2014-09-03T09:40:33Z</time>
      </trkpt>
      <trkpt lat="44.91309" lon="6.72815">
        <ele>2144.6</ele>
        <time>2014-09-03T09:40:44Z</time>
      </trkpt>
      <trkpt lat="44.91328" lon="6.72818">
        <ele>2145.8</ele>
        <time>2014-09-03T09:40:55Z</time>
      </trkpt>
      <trkpt lat="44.91347" lon="6.72824">
        <ele>2147.1</ele>
        <time>2014-09-03T09:41:06Z</time>
      </trkpt>
      <trkpt lat="44.91365" lon="6.72828">
        <ele>2148.9</ele>
        <time>2014-09-03T09:41:17Z</time>
      </trkpt>
      <trkpt lat="44.91383" lon="6.72836">
        <ele>2151</ele>
        <time>2014-09-03T09:41:29Z</time>
      </trkpt>
      <trkpt lat="44.91402" lon="6.72843">
        <ele>2153.4</ele>
        <time>2014-09-03T09:41:40Z</time>
      </trkpt>
      <trkpt lat="44.91419" lon="6.72852">
        <ele>2155.4</ele>
        <time>2014-09-03T09:41:51Z</time>
      </trkpt>
      <trkpt lat="44.91437" lon="6.72852">
        <ele>2157.1</ele>
        <time>2014-09-03T09:42:01Z</time>
      </trkpt>
      <trkpt lat="44.91455" lon="6.7285">
        <ele>2158.8</ele>
        <time>2014-09-03T09:42:11Z</time>
      </trkpt>
      <trkpt lat="44.91474" lon="6.72843">
        <ele>2162.3</ele>
        <time>2014-09-03T09:42:24Z</time>
      </trkpt>
      <trkpt lat="44.91493" lon="6.72845">
        <ele>2165.5</ele>
        <time>2014-09-03T09:42:36Z</time>
      </trkpt>
      <trkpt lat="44.91512" lon="6.7285">
        <ele>2168.4</ele>
        <time>2014-09-03T09:42:48Z</time>
      </trkpt>
      <trkpt lat="44.9153" lon="6.7286">
        <ele>2172.3</ele>
        <time>2014-09-03T09:43:01Z</time>
      </trkpt>
      <trkpt lat="44.91546" lon="6.72872">
        <ele>2175.6</ele>
        <time>2014-09-03T09:43:13Z</time>
      </trkpt>
      <trkpt lat="44.91558" lon="6.72893">
        <ele>2178.6</ele>
        <time>2014-09-03T09:43:26Z</time>
      </trkpt>
      <trkpt lat="44.91563" lon="6.72917">
        <ele>2187.6</ele>
        <time>2014-09-03T09:44:53Z</time>
      </trkpt>
      <trkpt lat="44.91575" lon="6.72939">
        <ele>2190.3</ele>
        <time>2014-09-03T09:45:34Z</time>
      </trkpt>
      <trkpt lat="44.91578" lon="6.72965">
        <ele>2189.4</ele>
        <time>2014-09-03T09:45:41Z</time>
      </trkpt>
      <trkpt lat="44.91559" lon="6.72973">
        <ele>2186.3</ele>
        <time>2014-09-03T09:46:01Z</time>
      </trkpt>
      <trkpt lat="44.9154" lon="6.72981">
        <ele>2182.3</ele>
        <time>2014-09-03T09:46:05Z</time>
      </trkpt>
      <trkpt lat="44.91522" lon="6.72995">
        <ele>2178.4</ele>
        <time>2014-09-03T09:46:08Z</time>
      </trkpt>
      <trkpt lat="44.91502" lon="6.73013">
        <ele>2174.3</ele>
        <time>2014-09-03T09:46:11Z</time>
      </trkpt>
      <trkpt lat="44.91486" lon="6.73028">
        <ele>2171.6</ele>
        <time>2014-09-03T09:46:13Z</time>
      </trkpt>
      <trkpt lat="44.91472" lon="6.73046">
        <ele>2169.4</ele>
        <time>2014-09-03T09:46:15Z</time>
      </trkpt>
      <trkpt lat="44.91457" lon="6.73065">
        <ele>2167.7</ele>
        <time>2014-09-03T09:46:19Z</time>
      </trkpt>
      <trkpt lat="44.91442" lon="6.73079">
        <ele>2169.6</ele>
        <time>2014-09-03T09:46:33Z</time>
      </trkpt>
      <trkpt lat="44.91425" lon="6.73091">
        <ele>2172.5</ele>
        <time>2014-09-03T09:46:45Z</time>
      </trkpt>
      <trkpt lat="44.91407" lon="6.73103">
        <ele>2175</ele>
        <time>2014-09-03T09:46:57Z</time>
      </trkpt>
      <trkpt lat="44.91391" lon="6.73116">
        <ele>2176.8</ele>
        <time>2014-09-03T09:47:08Z</time>
      </trkpt>
      <trkpt lat="44.91376" lon="6.73131">
        <ele>2181.2</ele>
        <time>2014-09-03T09:47:21Z</time>
      </trkpt>
      <trkpt lat="44.91366" lon="6.73153">
        <ele>2184.5</ele>
        <time>2014-09-03T09:47:37Z</time>
      </trkpt>
      <trkpt lat="44.91351" lon="6.7317">
        <ele>2186</ele>
        <time>2014-09-03T09:47:51Z</time>
      </trkpt>
      <trkpt lat="44.91335" lon="6.73187">
        <ele>2187.1</ele>
        <time>2014-09-03T09:48:05Z</time>
      </trkpt>
      <trkpt lat="44.91327" lon="6.73211">
        <ele>2189.7</ele>
        <time>2014-09-03T09:48:19Z</time>
      </trkpt>
      <trkpt lat="44.91312" lon="6.73237">
        <ele>2195.2</ele>
        <time>2014-09-03T09:48:44Z</time>
      </trkpt>
      <trkpt lat="44.913" lon="6.73257">
        <ele>2202</ele>
        <time>2014-09-03T09:49:02Z</time>
      </trkpt>
      <trkpt lat="44.91296" lon="6.73282">
        <ele>2201</ele>
        <time>2014-09-03T09:49:15Z</time>
      </trkpt>
      <trkpt lat="44.91287" lon="6.73306">
        <ele>2201.8</ele>
        <time>2014-09-03T09:49:29Z</time>
      </trkpt>
      <trkpt lat="44.91272" lon="6.7332">
        <ele>2203.1</ele>
        <time>2014-09-03T09:49:40Z</time>
      </trkpt>
      <trkpt lat="44.91258" lon="6.73338">
        <ele>2206.1</ele>
        <time>2014-09-03T09:49:55Z</time>
      </trkpt>
      <trkpt lat="44.91253" lon="6.73363">
        <ele>2208.8</ele>
        <time>2014-09-03T09:50:12Z</time>
      </trkpt>
      <trkpt lat="44.91255" lon="6.73388">
        <ele>2210.9</ele>
        <time>2014-09-03T09:50:29Z</time>
      </trkpt>
      <trkpt lat="44.91272" lon="6.73409">
        <ele>2214.7</ele>
        <time>2014-09-03T09:50:47Z</time>
      </trkpt>
      <trkpt lat="44.91291" lon="6.73416">
        <ele>2218.5</ele>
        <time>2014-09-03T09:51:03Z</time>
      </trkpt>
      <trkpt lat="44.91305" lon="6.73434">
        <ele>2221.4</ele>
        <time>2014-09-03T09:51:19Z</time>
      </trkpt>
      <trkpt lat="44.91317" lon="6.73454">
        <ele>2224.9</ele>
        <time>2014-09-03T09:51:35Z</time>
      </trkpt>
      <trkpt lat="44.91329" lon="6.73474">
        <ele>2227</ele>
        <time>2014-09-03T09:51:50Z</time>
      </trkpt>
      <trkpt lat="44.91328" lon="6.73501">
        <ele>2228.2</ele>
        <time>2014-09-03T09:52:05Z</time>
      </trkpt>
      <trkpt lat="44.91327" lon="6.73528">
        <ele>2229.6</ele>
        <time>2014-09-03T09:52:17Z</time>
      </trkpt>
      <trkpt lat="44.91322" lon="6.73553">
        <ele>2231</ele>
        <time>2014-09-03T09:52:28Z</time>
      </trkpt>
      <trkpt lat="44.91316" lon="6.73579">
        <ele>2232.3</ele>
        <time>2014-09-03T09:52:40Z</time>
      </trkpt>
      <trkpt lat="44.91307" lon="6.73603">
        <ele>2234.7</ele>
        <time>2014-09-03T09:52:54Z</time>
      </trkpt>
      <trkpt lat="44.91291" lon="6.73613">
        <ele>2238.5</ele>
        <time>2014-09-03T09:53:09Z</time>
      </trkpt>
      <trkpt lat="44.91277" lon="6.73631">
        <ele>2241</ele>
        <time>2014-09-03T09:53:22Z</time>
      </trkpt>
      <trkpt lat="44.91264" lon="6.7365">
        <ele>2243</ele>
        <time>2014-09-03T09:53:35Z</time>
      </trkpt>
      <trkpt lat="44.91251" lon="6.73669">
        <ele>2245.1</ele>
        <time>2014-09-03T09:53:49Z</time>
      </trkpt>
      <trkpt lat="44.91245" lon="6.73693">
        <ele>2246.5</ele>
        <time>2014-09-03T09:54:01Z</time>
      </trkpt>
      <trkpt lat="44.91237" lon="6.73717">
        <ele>2247.9</ele>
        <time>2014-09-03T09:54:17Z</time>
      </trkpt>
      <trkpt lat="44.91226" lon="6.73738">
        <ele>2249.8</ele>
        <time>2014-09-03T09:54:32Z</time>
      </trkpt>
      <trkpt lat="44.91218" lon="6.73762">
        <ele>2257.8</ele>
        <time>2014-09-03T09:55:04Z</time>
      </trkpt>
      <trkpt lat="44.91204" lon="6.73777">
        <ele>2263.1</ele>
        <time>2014-09-03T09:55:28Z</time>
      </trkpt>
      <trkpt lat="44.91187" lon="6.73789">
        <ele>2272.8</ele>
        <time>2014-09-03T09:56:05Z</time>
      </trkpt>
      <trkpt lat="44.91171" lon="6.73778">
        <ele>2278</ele>
        <time>2014-09-03T09:56:25Z</time>
      </trkpt>
      <trkpt lat="44.91154" lon="6.73769">
        <ele>2281.3</ele>
        <time>2014-09-03T09:56:47Z</time>
      </trkpt>
      <trkpt lat="44.91139" lon="6.73753">
        <ele>2283.5</ele>
        <time>2014-09-03T09:57:09Z</time>
      </trkpt>
      <trkpt lat="44.91123" lon="6.73739">
        <ele>2285.2</ele>
        <time>2014-09-03T09:57:26Z</time>
      </trkpt>
      <trkpt lat="44.91104" lon="6.73741">
        <ele>2286.9</ele>
        <time>2014-09-03T09:57:42Z</time>
      </trkpt>
      <trkpt lat="44.91089" lon="6.73754">
        <ele>2288.1</ele>
        <time>2014-09-03T09:58:01Z</time>
      </trkpt>
      <trkpt lat="44.91081" lon="6.73778">
        <ele>2292.5</ele>
        <time>2014-09-03T10:05:46Z</time>
      </trkpt>
      <trkpt lat="44.91072" lon="6.738">
        <ele>2292.7</ele>
        <time>2014-09-03T10:06:09Z</time>
      </trkpt>
      <trkpt lat="44.91065" lon="6.73824">
        <ele>2294</ele>
        <time>2014-09-03T10:06:53Z</time>
      </trkpt>
      <trkpt lat="44.91058" lon="6.73848">
        <ele>2295</ele>
        <time>2014-09-03T10:07:21Z</time>
      </trkpt>
      <trkpt lat="44.91048" lon="6.7387">
        <ele>2303</ele>
        <time>2014-09-03T10:07:52Z</time>
      </trkpt>
      <trkpt lat="44.9106" lon="6.73889">
        <ele>2304.8</ele>
        <time>2014-09-03T10:08:17Z</time>
      </trkpt>
      <trkpt lat="44.91063" lon="6.73914">
        <ele>2305.2</ele>
        <time>2014-09-03T10:08:49Z</time>
      </trkpt>
      <trkpt lat="44.91058" lon="6.73939">
        <ele>2310.8</ele>
        <time>2014-09-03T10:09:24Z</time>
      </trkpt>
      <trkpt lat="44.91052" lon="6.73964">
        <ele>2320.1</ele>
        <time>2014-09-03T10:09:59Z</time>
      </trkpt>
      <trkpt lat="44.91051" lon="6.7399">
        <ele>2328.5</ele>
        <time>2014-09-03T10:10:47Z</time>
      </trkpt>
      <trkpt lat="44.91045" lon="6.74015">
        <ele>2339</ele>
        <time>2014-09-03T10:11:28Z</time>
      </trkpt>
      <trkpt lat="44.91034" lon="6.74036">
        <ele>2344.9</ele>
        <time>2014-09-03T10:11:58Z</time>
      </trkpt>
      <trkpt lat="44.91031" lon="6.74061">
        <ele>2351.8</ele>
        <time>2014-09-03T10:12:40Z</time>
      </trkpt>
      <trkpt lat="44.91029" lon="6.74087">
        <ele>2358.6</ele>
        <time>2014-09-03T10:13:16Z</time>
      </trkpt>
      <trkpt lat="44.91028" lon="6.74113">
        <ele>2365.2</ele>
        <time>2014-09-03T10:13:42Z</time>
      </trkpt>
      <trkpt lat="44.91027" lon="6.74139">
        <ele>2370</ele>
        <time>2014-09-03T10:14:12Z</time>
      </trkpt>
      <trkpt lat="44.91024" lon="6.74164">
        <ele>2377.7</ele>
        <time>2014-09-03T10:14:44Z</time>
      </trkpt>
      <trkpt lat="44.91017" lon="6.74189">
        <ele>2383.3</ele>
        <time>2014-09-03T10:15:14Z</time>
      </trkpt>
      <trkpt lat="44.91006" lon="6.74209">
        <ele>2387.7</ele>
        <time>2014-09-03T10:15:37Z</time>
      </trkpt>
      <trkpt lat="44.90999" lon="6.74233">
        <ele>2389.9</ele>
        <time>2014-09-03T10:15:59Z</time>
      </trkpt>
      <trkpt lat="44.90997" lon="6.74258">
        <ele>2391.6</ele>
        <time>2014-09-03T10:16:27Z</time>
      </trkpt>
      <trkpt lat="44.90994" lon="6.74285">
        <ele>2397.3</ele>
        <time>2014-09-03T10:16:56Z</time>
      </trkpt>
      <trkpt lat="44.91001" lon="6.74309">
        <ele>2401.1</ele>
        <time>2014-09-03T10:17:15Z</time>
      </trkpt>
      <trkpt lat="44.91006" lon="6.74334">
        <ele>2405</ele>
        <time>2014-09-03T10:17:43Z</time>
      </trkpt>
      <trkpt lat="44.9101" lon="6.74359">
        <ele>2406.4</ele>
        <time>2014-09-03T10:18:21Z</time>
      </trkpt>
      <trkpt lat="44.91007" lon="6.74385">
        <ele>2406.9</ele>
        <time>2014-09-03T10:18:33Z</time>
      </trkpt>
      <trkpt lat="44.91005" lon="6.74411">
        <ele>2406.9</ele>
        <time>2014-09-03T10:18:41Z</time>
      </trkpt>
      <trkpt lat="44.91001" lon="6.74437">
        <ele>2406.7</ele>
        <time>2014-09-03T10:18:50Z</time>
      </trkpt>
      <trkpt lat="44.91006" lon="6.74463">
        <ele>2405.8</ele>
        <time>2014-09-03T10:19:05Z</time>
      </trkpt>
      <trkpt lat="44.91004" lon="6.74489">
        <ele>2404.7</ele>
        <time>2014-09-03T10:19:12Z</time>
      </trkpt>
      <trkpt lat="44.90999" lon="6.74515">
        <ele>2404.6</ele>
        <time>2014-09-03T10:19:23Z</time>
      </trkpt>
      <trkpt lat="44.91007" lon="6.7454">
        <ele>2404.3</ele>
        <time>2014-09-03T10:19:36Z</time>
      </trkpt>
      <trkpt lat="44.91013" lon="6.74565">
        <ele>2405</ele>
        <time>2014-09-03T10:19:46Z</time>
      </trkpt>
      <trkpt lat="44.91008" lon="6.7459">
        <ele>2405.9</ele>
        <time>2014-09-03T10:19:59Z</time>
      </trkpt>
      <trkpt lat="44.91009" lon="6.74616">
        <ele>2406.8</ele>
        <time>2014-09-03T10:21:15Z</time>
      </trkpt>
      <trkpt lat="44.91016" lon="6.74644">
        <ele>2405.8</ele>
        <time>2014-09-03T10:21:21Z</time>
      </trkpt>
      <trkpt lat="44.9102" lon="6.74671">
        <ele>2405.2</ele>
        <time>2014-09-03T10:21:30Z</time>
      </trkpt>
      <trkpt lat="44.91019" lon="6.74702">
        <ele>2404</ele>
        <time>2014-09-03T10:21:36Z</time>
      </trkpt>
      <trkpt lat="44.91016" lon="6.74727">
        <ele>2402.9</ele>
        <time>2014-09-03T10:21:41Z</time>
      </trkpt>
      <trkpt lat="44.91009" lon="6.74753">
        <ele>2401.8</ele>
        <time>2014-09-03T10:21:48Z</time>
      </trkpt>
      <trkpt lat="44.91004" lon="6.74778">
        <ele>2400.1</ele>
        <time>2014-09-03T10:21:59Z</time>
      </trkpt>
      <trkpt lat="44.90993" lon="6.74797">
        <ele>2396.8</ele>
        <time>2014-09-03T10:23:02Z</time>
      </trkpt>
      <trkpt lat="44.90986" lon="6.74822">
        <ele>2396.1</ele>
        <time>2014-09-03T10:23:29Z</time>
      </trkpt>
      <trkpt lat="44.90977" lon="6.74845">
        <ele>2398.3</ele>
        <time>2014-09-03T10:24:06Z</time>
      </trkpt>
      <trkpt lat="44.90978" lon="6.7487">
        <ele>2404.9</ele>
        <time>2014-09-03T10:24:50Z</time>
      </trkpt>
      <trkpt lat="44.90988" lon="6.74892">
        <ele>2409.2</ele>
        <time>2014-09-03T10:25:31Z</time>
      </trkpt>
      <trkpt lat="44.9099" lon="6.74918">
        <ele>2420.8</ele>
        <time>2014-09-03T10:26:28Z</time>
      </trkpt>
      <trkpt lat="44.90999" lon="6.74939">
        <ele>2434.6</ele>
        <time>2014-09-03T10:27:38Z</time>
      </trkpt>
      <trkpt lat="44.91011" lon="6.74959">
        <ele>2443</ele>
        <time>2014-09-03T10:28:16Z</time>
      </trkpt>
      <trkpt lat="44.91028" lon="6.74971">
        <ele>2449.5</ele>
        <time>2014-09-03T10:29:05Z</time>
      </trkpt>
      <trkpt lat="44.91011" lon="6.74978">
        <ele>2459.1</ele>
        <time>2014-09-03T10:30:25Z</time>
      </trkpt>
      <trkpt lat="44.90993" lon="6.74985">
        <ele>2460.1</ele>
        <time>2014-09-03T10:30:44Z</time>
      </trkpt>
      <trkpt lat="44.90975" lon="6.74987">
        <ele>2462.6</ele>
        <time>2014-09-03T10:30:58Z</time>
      </trkpt>
      <trkpt lat="44.90956" lon="6.74991">
        <ele>2467.5</ele>
        <time>2014-09-03T10:31:24Z</time>
      </trkpt>
      <trkpt lat="44.90937" lon="6.74992">
        <ele>2470.9</ele>
        <time>2014-09-03T10:31:44Z</time>
      </trkpt>
      <trkpt lat="44.90923" lon="6.74978">
        <ele>2472.8</ele>
        <time>2014-09-03T10:32:04Z</time>
      </trkpt>
      <trkpt lat="44.90905" lon="6.74969">
        <ele>2476.3</ele>
        <time>2014-09-03T10:32:38Z</time>
      </trkpt>
      <trkpt lat="44.9089" lon="6.74954">
        <ele>2480.4</ele>
        <time>2014-09-03T10:33:04Z</time>
      </trkpt>
      <trkpt lat="44.90887" lon="6.74979">
        <ele>2484.3</ele>
        <time>2014-09-03T10:33:50Z</time>
      </trkpt>
      <trkpt lat="44.90892" lon="6.75005">
        <ele>2487.8</ele>
        <time>2014-09-03T10:34:20Z</time>
      </trkpt>
      <trkpt lat="44.90897" lon="6.75029">
        <ele>2490.9</ele>
        <time>2014-09-03T10:34:35Z</time>
      </trkpt>
      <trkpt lat="44.90906" lon="6.75052">
        <ele>2494.7</ele>
        <time>2014-09-03T10:34:51Z</time>
      </trkpt>
      <trkpt lat="44.90919" lon="6.75072">
        <ele>2498.6</ele>
        <time>2014-09-03T10:35:06Z</time>
      </trkpt>
      <trkpt lat="44.90937" lon="6.75074">
        <ele>2512.2</ele>
        <time>2014-09-03T10:39:21Z</time>
      </trkpt>
      <trkpt lat="44.90918" lon="6.75077">
        <ele>2506.4</ele>
        <time>2014-09-03T11:12:57Z</time>
      </trkpt>
      <trkpt lat="44.90899" lon="6.75084">
        <ele>2507.1</ele>
        <time>2014-09-03T11:13:04Z</time>
      </trkpt>
      <trkpt lat="44.90881" lon="6.75088">
        <ele>2507.4</ele>
        <time>2014-09-03T11:13:08Z</time>
      </trkpt>
      <trkpt lat="44.9086" lon="6.75092">
        <ele>2505.4</ele>
        <time>2014-09-03T11:13:13Z</time>
      </trkpt>
      <trkpt lat="44.9084" lon="6.75102">
        <ele>2502.2</ele>
        <time>2014-09-03T11:13:18Z</time>
      </trkpt>
      <trkpt lat="44.90825" lon="6.75123">
        <ele>2498.6</ele>
        <time>2014-09-03T11:13:22Z</time>
      </trkpt>
      <trkpt lat="44.90825" lon="6.75153">
        <ele>2492.9</ele>
        <time>2014-09-03T11:13:27Z</time>
      </trkpt>
      <trkpt lat="44.90838" lon="6.75177">
        <ele>2485.3</ele>
        <time>2014-09-03T11:13:32Z</time>
      </trkpt>
      <trkpt lat="44.90851" lon="6.75195">
        <ele>2481.3</ele>
        <time>2014-09-03T11:13:37Z</time>
      </trkpt>
      <trkpt lat="44.90849" lon="6.75225">
        <ele>2475.9</ele>
        <time>2014-09-03T11:13:43Z</time>
      </trkpt>
      <trkpt lat="44.90844" lon="6.75249">
        <ele>2470.7</ele>
        <time>2014-09-03T11:14:20Z</time>
      </trkpt>
      <trkpt lat="44.90842" lon="6.75277">
        <ele>2469</ele>
        <time>2014-09-03T11:14:27Z</time>
      </trkpt>
      <trkpt lat="44.90842" lon="6.75303">
        <ele>2467.4</ele>
        <time>2014-09-03T11:14:33Z</time>
      </trkpt>
      <trkpt lat="44.90847" lon="6.7533">
        <ele>2462.1</ele>
        <time>2014-09-03T11:15:07Z</time>
      </trkpt>
      <trkpt lat="44.90853" lon="6.75356">
        <ele>2461.9</ele>
        <time>2014-09-03T11:15:15Z</time>
      </trkpt>
      <trkpt lat="44.90851" lon="6.75381">
        <ele>2458.7</ele>
        <time>2014-09-03T11:15:22Z</time>
      </trkpt>
      <trkpt lat="44.9085" lon="6.75409">
        <ele>2455</ele>
        <time>2014-09-03T11:15:28Z</time>
      </trkpt>
      <trkpt lat="44.9085" lon="6.75436">
        <ele>2453.5</ele>
        <time>2014-09-03T11:15:36Z</time>
      </trkpt>
      <trkpt lat="44.90846" lon="6.75461">
        <ele>2451.5</ele>
        <time>2014-09-03T11:15:43Z</time>
      </trkpt>
      <trkpt lat="44.90843" lon="6.75487">
        <ele>2449.3</ele>
        <time>2014-09-03T11:15:50Z</time>
      </trkpt>
      <trkpt lat="44.90843" lon="6.75513">
        <ele>2445.1</ele>
        <time>2014-09-03T11:15:56Z</time>
      </trkpt>
      <trkpt lat="44.90838" lon="6.75539">
        <ele>2438.4</ele>
        <time>2014-09-03T11:16:01Z</time>
      </trkpt>
      <trkpt lat="44.90857" lon="6.75534">
        <ele>2430.1</ele>
        <time>2014-09-03T11:17:00Z</time>
      </trkpt>
      <trkpt lat="44.90873" lon="6.75547">
        <ele>2428.1</ele>
        <time>2014-09-03T11:17:10Z</time>
      </trkpt>
      <trkpt lat="44.90868" lon="6.75572">
        <ele>2422.8</ele>
        <time>2014-09-03T11:17:44Z</time>
      </trkpt>
      <trkpt lat="44.90857" lon="6.75598">
        <ele>2422.2</ele>
        <time>2014-09-03T11:17:48Z</time>
      </trkpt>
      <trkpt lat="44.90842" lon="6.75617">
        <ele>2418.9</ele>
        <time>2014-09-03T11:17:52Z</time>
      </trkpt>
      <trkpt lat="44.90826" lon="6.75634">
        <ele>2415.4</ele>
        <time>2014-09-03T11:17:56Z</time>
      </trkpt>
      <trkpt lat="44.90814" lon="6.75659">
        <ele>2412.5</ele>
        <time>2014-09-03T11:17:59Z</time>
      </trkpt>
      <trkpt lat="44.90804" lon="6.75687">
        <ele>2409.6</ele>
        <time>2014-09-03T11:18:02Z</time>
      </trkpt>
      <trkpt lat="44.90793" lon="6.75717">
        <ele>2407</ele>
        <time>2014-09-03T11:18:05Z</time>
      </trkpt>
      <trkpt lat="44.90784" lon="6.7574">
        <ele>2405.6</ele>
        <time>2014-09-03T11:18:07Z</time>
      </trkpt>
      <trkpt lat="44.90776" lon="6.75765">
        <ele>2403.9</ele>
        <time>2014-09-03T11:18:10Z</time>
      </trkpt>
      <trkpt lat="44.90763" lon="6.75791">
        <ele>2403.1</ele>
        <time>2014-09-03T11:18:14Z</time>
      </trkpt>
      <trkpt lat="44.9075" lon="6.75814">
        <ele>2405.9</ele>
        <time>2014-09-03T11:18:20Z</time>
      </trkpt>
      <trkpt lat="44.90735" lon="6.75832">
        <ele>2406.3</ele>
        <time>2014-09-03T11:18:27Z</time>
      </trkpt>
      <trkpt lat="44.90717" lon="6.75837">
        <ele>2405</ele>
        <time>2014-09-03T11:18:31Z</time>
      </trkpt>
      <trkpt lat="44.90696" lon="6.75836">
        <ele>2402.8</ele>
        <time>2014-09-03T11:18:34Z</time>
      </trkpt>
      <trkpt lat="44.90671" lon="6.75833">
        <ele>2401.2</ele>
        <time>2014-09-03T11:18:37Z</time>
      </trkpt>
      <trkpt lat="44.90651" lon="6.75834">
        <ele>2399.4</ele>
        <time>2014-09-03T11:18:40Z</time>
      </trkpt>
      <trkpt lat="44.90632" lon="6.75848">
        <ele>2397.1</ele>
        <time>2014-09-03T11:18:43Z</time>
      </trkpt>
      <trkpt lat="44.90617" lon="6.75868">
        <ele>2394.5</ele>
        <time>2014-09-03T11:18:46Z</time>
      </trkpt>
      <trkpt lat="44.90603" lon="6.75886">
        <ele>2392.1</ele>
        <time>2014-09-03T11:18:49Z</time>
      </trkpt>
      <trkpt lat="44.90585" lon="6.75901">
        <ele>2389.4</ele>
        <time>2014-09-03T11:18:52Z</time>
      </trkpt>
      <trkpt lat="44.90566" lon="6.75894">
        <ele>2386.2</ele>
        <time>2014-09-03T11:18:56Z</time>
      </trkpt>
      <trkpt lat="44.90547" lon="6.75886">
        <ele>2383.8</ele>
        <time>2014-09-03T11:18:59Z</time>
      </trkpt>
      <trkpt lat="44.90526" lon="6.75892">
        <ele>2381.7</ele>
        <time>2014-09-03T11:19:02Z</time>
      </trkpt>
      <trkpt lat="44.90502" lon="6.75907">
        <ele>2379</ele>
        <time>2014-09-03T11:19:05Z</time>
      </trkpt>
      <trkpt lat="44.90486" lon="6.75921">
        <ele>2376.9</ele>
        <time>2014-09-03T11:19:07Z</time>
      </trkpt>
      <trkpt lat="44.90472" lon="6.75942">
        <ele>2374.5</ele>
        <time>2014-09-03T11:19:09Z</time>
      </trkpt>
      <trkpt lat="44.90459" lon="6.75963">
        <ele>2371.9</ele>
        <time>2014-09-03T11:19:11Z</time>
      </trkpt>
      <trkpt lat="44.90447" lon="6.75984">
        <ele>2369.4</ele>
        <time>2014-09-03T11:19:13Z</time>
      </trkpt>
      <trkpt lat="44.9043" lon="6.76011">
        <ele>2366.4</ele>
        <time>2014-09-03T11:19:16Z</time>
      </trkpt>
      <trkpt lat="44.90414" lon="6.76033">
        <ele>2364.6</ele>
        <time>2014-09-03T11:19:19Z</time>
      </trkpt>
      <trkpt lat="44.90396" lon="6.76027">
        <ele>2364.8</ele>
        <time>2014-09-03T11:19:42Z</time>
      </trkpt>
      <trkpt lat="44.90377" lon="6.76026">
        <ele>2366.2</ele>
        <time>2014-09-03T11:20:14Z</time>
      </trkpt>
      <trkpt lat="44.90364" lon="6.76044">
        <ele>2366.4</ele>
        <time>2014-09-03T11:20:23Z</time>
      </trkpt>
      <trkpt lat="44.9035" lon="6.76061">
        <ele>2367.3</ele>
        <time>2014-09-03T11:20:35Z</time>
      </trkpt>
      <trkpt lat="44.90337" lon="6.76079">
        <ele>2369.1</ele>
        <time>2014-09-03T11:20:51Z</time>
      </trkpt>
      <trkpt lat="44.90322" lon="6.76093">
        <ele>2371.7</ele>
        <time>2014-09-03T11:21:09Z</time>
      </trkpt>
      <trkpt lat="44.90303" lon="6.76098">
        <ele>2375.9</ele>
        <time>2014-09-03T11:21:35Z</time>
      </trkpt>
      <trkpt lat="44.90286" lon="6.76105">
        <ele>2379.7</ele>
        <time>2014-09-03T11:21:56Z</time>
      </trkpt>
      <trkpt lat="44.90269" lon="6.76118">
        <ele>2382.5</ele>
        <time>2014-09-03T11:22:14Z</time>
      </trkpt>
      <trkpt lat="44.9025" lon="6.76105">
        <ele>2386</ele>
        <time>2014-09-03T11:22:55Z</time>
      </trkpt>
      <trkpt lat="44.90231" lon="6.76103">
        <ele>2385.5</ele>
        <time>2014-09-03T11:23:03Z</time>
      </trkpt>
      <trkpt lat="44.90217" lon="6.76121">
        <ele>2385.7</ele>
        <time>2014-09-03T11:23:13Z</time>
      </trkpt>
      <trkpt lat="44.90204" lon="6.76142">
        <ele>2386</ele>
        <time>2014-09-03T11:23:22Z</time>
      </trkpt>
      <trkpt lat="44.90189" lon="6.76158">
        <ele>2387.8</ele>
        <time>2014-09-03T11:23:37Z</time>
      </trkpt>
      <trkpt lat="44.90173" lon="6.76173">
        <ele>2389.6</ele>
        <time>2014-09-03T11:24:25Z</time>
      </trkpt>
      <trkpt lat="44.90161" lon="6.76194">
        <ele>2388</ele>
        <time>2014-09-03T11:24:29Z</time>
      </trkpt>
      <trkpt lat="44.90145" lon="6.7621">
        <ele>2384.1</ele>
        <time>2014-09-03T11:24:33Z</time>
      </trkpt>
      <trkpt lat="44.90125" lon="6.76217">
        <ele>2381.6</ele>
        <time>2014-09-03T11:24:38Z</time>
      </trkpt>
      <trkpt lat="44.90111" lon="6.76234">
        <ele>2379.6</ele>
        <time>2014-09-03T11:24:47Z</time>
      </trkpt>
      <trkpt lat="44.90101" lon="6.76256">
        <ele>2374.8</ele>
        <time>2014-09-03T11:24:51Z</time>
      </trkpt>
      <trkpt lat="44.90093" lon="6.76281">
        <ele>2368.9</ele>
        <time>2014-09-03T11:25:24Z</time>
      </trkpt>
      <trkpt lat="44.90091" lon="6.76313">
        <ele>2364.3</ele>
        <time>2014-09-03T11:25:28Z</time>
      </trkpt>
      <trkpt lat="44.9008" lon="6.76341">
        <ele>2360.8</ele>
        <time>2014-09-03T11:25:31Z</time>
      </trkpt>
      <trkpt lat="44.90069" lon="6.76362">
        <ele>2356.8</ele>
        <time>2014-09-03T11:25:35Z</time>
      </trkpt>
      <trkpt lat="44.90054" lon="6.76377">
        <ele>2355.2</ele>
        <time>2014-09-03T11:25:43Z</time>
      </trkpt>
      <trkpt lat="44.90036" lon="6.76392">
        <ele>2353.7</ele>
        <time>2014-09-03T11:25:54Z</time>
      </trkpt>
      <trkpt lat="44.90019" lon="6.7641">
        <ele>2350.7</ele>
        <time>2014-09-03T11:25:58Z</time>
      </trkpt>
      <trkpt lat="44.90006" lon="6.76432">
        <ele>2347.4</ele>
        <time>2014-09-03T11:26:01Z</time>
      </trkpt>
      <trkpt lat="44.8999" lon="6.76459">
        <ele>2344.7</ele>
        <time>2014-09-03T11:26:04Z</time>
      </trkpt>
      <trkpt lat="44.89974" lon="6.76489">
        <ele>2341.6</ele>
        <time>2014-09-03T11:26:07Z</time>
      </trkpt>
      <trkpt lat="44.89962" lon="6.76508">
        <ele>2339.4</ele>
        <time>2014-09-03T11:26:09Z</time>
      </trkpt>
      <trkpt lat="44.8995" lon="6.76531">
        <ele>2337.6</ele>
        <time>2014-09-03T11:26:11Z</time>
      </trkpt>
      <trkpt lat="44.89941" lon="6.76555">
        <ele>2335.6</ele>
        <time>2014-09-03T11:26:14Z</time>
      </trkpt>
      <trkpt lat="44.89941" lon="6.76585">
        <ele>2334.4</ele>
        <time>2014-09-03T11:26:18Z</time>
      </trkpt>
      <trkpt lat="44.89951" lon="6.76614">
        <ele>2334.8</ele>
        <time>2014-09-03T11:26:22Z</time>
      </trkpt>
      <trkpt lat="44.89962" lon="6.76642">
        <ele>2335.3</ele>
        <time>2014-09-03T11:26:26Z</time>
      </trkpt>
      <trkpt lat="44.89974" lon="6.76665">
        <ele>2334.8</ele>
        <time>2014-09-03T11:26:29Z</time>
      </trkpt>
      <trkpt lat="44.89992" lon="6.7669">
        <ele>2332.9</ele>
        <time>2014-09-03T11:26:32Z</time>
      </trkpt>
      <trkpt lat="44.90013" lon="6.76712">
        <ele>2330.5</ele>
        <time>2014-09-03T11:26:35Z</time>
      </trkpt>
      <trkpt lat="44.9" lon="6.76695">
        <ele>2328.3</ele>
        <time>2014-09-03T11:27:55Z</time>
      </trkpt>
      <trkpt lat="44.89993" lon="6.7672">
        <ele>2328.6</ele>
        <time>2014-09-03T11:28:11Z</time>
      </trkpt>
      <trkpt lat="44.90003" lon="6.76742">
        <ele>2330.5</ele>
        <time>2014-09-03T11:28:27Z</time>
      </trkpt>
      <trkpt lat="44.90013" lon="6.76764">
        <ele>2332.6</ele>
        <time>2014-09-03T11:28:43Z</time>
      </trkpt>
      <trkpt lat="44.90021" lon="6.76787">
        <ele>2336</ele>
        <time>2014-09-03T11:29:01Z</time>
      </trkpt>
      <trkpt lat="44.9003" lon="6.76809">
        <ele>2338.8</ele>
        <time>2014-09-03T11:29:17Z</time>
      </trkpt>
      <trkpt lat="44.90041" lon="6.7683">
        <ele>2342.3</ele>
        <time>2014-09-03T11:29:35Z</time>
      </trkpt>
      <trkpt lat="44.90055" lon="6.76846">
        <ele>2346.2</ele>
        <time>2014-09-03T11:29:50Z</time>
      </trkpt>
      <trkpt lat="44.90068" lon="6.76867">
        <ele>2351.6</ele>
        <time>2014-09-03T11:30:11Z</time>
      </trkpt>
      <trkpt lat="44.90078" lon="6.76889">
        <ele>2356.9</ele>
        <time>2014-09-03T11:30:29Z</time>
      </trkpt>
      <trkpt lat="44.90092" lon="6.76906">
        <ele>2359.6</ele>
        <time>2014-09-03T11:30:40Z</time>
      </trkpt>
      <trkpt lat="44.90105" lon="6.76923">
        <ele>2362.3</ele>
        <time>2014-09-03T11:30:54Z</time>
      </trkpt>
      <trkpt lat="44.90119" lon="6.76941">
        <ele>2365.8</ele>
        <time>2014-09-03T11:31:08Z</time>
      </trkpt>
      <trkpt lat="44.90134" lon="6.76959">
        <ele>2368.5</ele>
        <time>2014-09-03T11:31:20Z</time>
      </trkpt>
      <trkpt lat="44.90141" lon="6.76983">
        <ele>2370.7</ele>
        <time>2014-09-03T11:31:32Z</time>
      </trkpt>
      <trkpt lat="44.90154" lon="6.77002">
        <ele>2372.6</ele>
        <time>2014-09-03T11:31:43Z</time>
      </trkpt>
      <trkpt lat="44.90166" lon="6.77023">
        <ele>2374.4</ele>
        <time>2014-09-03T11:31:56Z</time>
      </trkpt>
      <trkpt lat="44.90173" lon="6.77049">
        <ele>2376.4</ele>
        <time>2014-09-03T11:32:08Z</time>
      </trkpt>
      <trkpt lat="44.90182" lon="6.77073">
        <ele>2378.4</ele>
        <time>2014-09-03T11:32:17Z</time>
      </trkpt>
      <trkpt lat="44.90192" lon="6.77097">
        <ele>2380</ele>
        <time>2014-09-03T11:32:26Z</time>
      </trkpt>
      <trkpt lat="44.90202" lon="6.77123">
        <ele>2383.3</ele>
        <time>2014-09-03T11:32:31Z</time>
      </trkpt>
      <trkpt lat="44.90201" lon="6.77151">
        <ele>2384.1</ele>
        <time>2014-09-03T11:32:39Z</time>
      </trkpt>
      <trkpt lat="44.90201" lon="6.77178">
        <ele>2384.1</ele>
        <time>2014-09-03T11:32:47Z</time>
      </trkpt>
      <trkpt lat="44.90207" lon="6.77201">
        <ele>2383.8</ele>
        <time>2014-09-03T11:32:58Z</time>
      </trkpt>
      <trkpt lat="44.90206" lon="6.77229">
        <ele>2382.9</ele>
        <time>2014-09-03T11:33:07Z</time>
      </trkpt>
      <trkpt lat="44.90213" lon="6.77254">
        <ele>2375.9</ele>
        <time>2014-09-03T11:35:19Z</time>
      </trkpt>
      <trkpt lat="44.90214" lon="6.77285">
        <ele>2371.5</ele>
        <time>2014-09-03T11:35:25Z</time>
      </trkpt>
      <trkpt lat="44.90221" lon="6.77313">
        <ele>2366.7</ele>
        <time>2014-09-03T11:35:28Z</time>
      </trkpt>
      <trkpt lat="44.90222" lon="6.7734">
        <ele>2362.1</ele>
        <time>2014-09-03T11:35:31Z</time>
      </trkpt>
      <trkpt lat="44.90226" lon="6.77369">
        <ele>2359.4</ele>
        <time>2014-09-03T11:35:38Z</time>
      </trkpt>
      <trkpt lat="44.90236" lon="6.77395">
        <ele>2356.6</ele>
        <time>2014-09-03T11:35:42Z</time>
      </trkpt>
      <trkpt lat="44.90247" lon="6.77418">
        <ele>2352.2</ele>
        <time>2014-09-03T11:35:46Z</time>
      </trkpt>
      <trkpt lat="44.9025" lon="6.7745">
        <ele>2347.4</ele>
        <time>2014-09-03T11:35:50Z</time>
      </trkpt>
      <trkpt lat="44.90246" lon="6.77478">
        <ele>2342.1</ele>
        <time>2014-09-03T11:35:54Z</time>
      </trkpt>
      <trkpt lat="44.90248" lon="6.77506">
        <ele>2337.4</ele>
        <time>2014-09-03T11:35:57Z</time>
      </trkpt>
      <trkpt lat="44.90241" lon="6.7753">
        <ele>2330.8</ele>
        <time>2014-09-03T11:36:01Z</time>
      </trkpt>
      <trkpt lat="44.90229" lon="6.77553">
        <ele>2324.2</ele>
        <time>2014-09-03T11:36:05Z</time>
      </trkpt>
      <trkpt lat="44.90235" lon="6.77583">
        <ele>2318.8</ele>
        <time>2014-09-03T11:36:09Z</time>
      </trkpt>
      <trkpt lat="44.90238" lon="6.77613">
        <ele>2315.4</ele>
        <time>2014-09-03T11:36:12Z</time>
      </trkpt>
      <trkpt lat="44.90224" lon="6.77636">
        <ele>2310.6</ele>
        <time>2014-09-03T11:36:16Z</time>
      </trkpt>
      <trkpt lat="44.90215" lon="6.7766">
        <ele>2306.3</ele>
        <time>2014-09-03T11:36:19Z</time>
      </trkpt>
      <trkpt lat="44.90209" lon="6.77689">
        <ele>2303.8</ele>
        <time>2014-09-03T11:36:22Z</time>
      </trkpt>
      <trkpt lat="44.90204" lon="6.7772">
        <ele>2300.4</ele>
        <time>2014-09-03T11:36:26Z</time>
      </trkpt>
      <trkpt lat="44.90193" lon="6.77744">
        <ele>2297.3</ele>
        <time>2014-09-03T11:36:29Z</time>
      </trkpt>
      <trkpt lat="44.90177" lon="6.77758">
        <ele>2293.5</ele>
        <time>2014-09-03T11:36:33Z</time>
      </trkpt>
      <trkpt lat="44.90187" lon="6.77784">
        <ele>2292.8</ele>
        <time>2014-09-03T11:36:49Z</time>
      </trkpt>
      <trkpt lat="44.90198" lon="6.77808">
        <ele>2292.4</ele>
        <time>2014-09-03T11:36:57Z</time>
      </trkpt>
      <trkpt lat="44.90202" lon="6.77837">
        <ele>2290.9</ele>
        <time>2014-09-03T11:37:02Z</time>
      </trkpt>
      <trkpt lat="44.90195" lon="6.77865">
        <ele>2287.2</ele>
        <time>2014-09-03T11:37:06Z</time>
      </trkpt>
      <trkpt lat="44.90195" lon="6.77897">
        <ele>2282.3</ele>
        <time>2014-09-03T11:37:10Z</time>
      </trkpt>
      <trkpt lat="44.90193" lon="6.77928">
        <ele>2274.4</ele>
        <time>2014-09-03T11:37:15Z</time>
      </trkpt>
      <trkpt lat="44.90212" lon="6.77944">
        <ele>2268.9</ele>
        <time>2014-09-03T11:37:20Z</time>
      </trkpt>
      <trkpt lat="44.90233" lon="6.77957">
        <ele>2263.5</ele>
        <time>2014-09-03T11:37:23Z</time>
      </trkpt>
      <trkpt lat="44.90246" lon="6.77982">
        <ele>2259.1</ele>
        <time>2014-09-03T11:37:26Z</time>
      </trkpt>
      <trkpt lat="44.9025" lon="6.7801">
        <ele>2257</ele>
        <time>2014-09-03T11:37:29Z</time>
      </trkpt>
      <trkpt lat="44.90257" lon="6.78038">
        <ele>2255.4</ele>
        <time>2014-09-03T11:37:32Z</time>
      </trkpt>
      <trkpt lat="44.90266" lon="6.78073">
        <ele>2253.2</ele>
        <time>2014-09-03T11:37:35Z</time>
      </trkpt>
      <trkpt lat="44.90276" lon="6.78108">
        <ele>2250</ele>
        <time>2014-09-03T11:37:38Z</time>
      </trkpt>
      <trkpt lat="44.90289" lon="6.78139">
        <ele>2246.6</ele>
        <time>2014-09-03T11:37:41Z</time>
      </trkpt>
      <trkpt lat="44.90298" lon="6.78168">
        <ele>2243.3</ele>
        <time>2014-09-03T11:37:44Z</time>
      </trkpt>
      <trkpt lat="44.90292" lon="6.78197">
        <ele>2239</ele>
        <time>2014-09-03T11:37:49Z</time>
      </trkpt>
      <trkpt lat="44.90282" lon="6.78225">
        <ele>2234.8</ele>
        <time>2014-09-03T11:37:52Z</time>
      </trkpt>
      <trkpt lat="44.90274" lon="6.78256">
        <ele>2231.2</ele>
        <time>2014-09-03T11:37:55Z</time>
      </trkpt>
      <trkpt lat="44.90261" lon="6.78275">
        <ele>2228</ele>
        <time>2014-09-03T11:37:58Z</time>
      </trkpt>
      <trkpt lat="44.9025" lon="6.78299">
        <ele>2225.9</ele>
        <time>2014-09-03T11:38:01Z</time>
      </trkpt>
      <trkpt lat="44.90244" lon="6.78327">
        <ele>2222.8</ele>
        <time>2014-09-03T11:38:05Z</time>
      </trkpt>
      <trkpt lat="44.90234" lon="6.7835">
        <ele>2219.6</ele>
        <time>2014-09-03T11:38:10Z</time>
      </trkpt>
      <trkpt lat="44.90235" lon="6.78378">
        <ele>2213.9</ele>
        <time>2014-09-03T11:38:15Z</time>
      </trkpt>
      <trkpt lat="44.90232" lon="6.78414">
        <ele>2207.5</ele>
        <time>2014-09-03T11:38:19Z</time>
      </trkpt>
      <trkpt lat="44.90239" lon="6.78441">
        <ele>2203</ele>
        <time>2014-09-03T11:38:22Z</time>
      </trkpt>
      <trkpt lat="44.90239" lon="6.78472">
        <ele>2197.6</ele>
        <time>2014-09-03T11:38:26Z</time>
      </trkpt>
      <trkpt lat="44.90234" lon="6.78497">
        <ele>2194</ele>
        <time>2014-09-03T11:38:29Z</time>
      </trkpt>
      <trkpt lat="44.90232" lon="6.7853">
        <ele>2191.1</ele>
        <time>2014-09-03T11:38:32Z</time>
      </trkpt>
      <trkpt lat="44.9024" lon="6.78559">
        <ele>2188.4</ele>
        <time>2014-09-03T11:38:35Z</time>
      </trkpt>
      <trkpt lat="44.9025" lon="6.78585">
        <ele>2186.5</ele>
        <time>2014-09-03T11:38:50Z</time>
      </trkpt>
      <trkpt lat="44.90232" lon="6.78575">
        <ele>2184.2</ele>
        <time>2014-09-03T11:39:27Z</time>
      </trkpt>
      <trkpt lat="44.90249" lon="6.78589">
        <ele>2181.3</ele>
        <time>2014-09-03T11:39:56Z</time>
      </trkpt>
      <trkpt lat="44.90268" lon="6.78593">
        <ele>2180.4</ele>
        <time>2014-09-03T11:40:07Z</time>
      </trkpt>
      <trkpt lat="44.90282" lon="6.78616">
        <ele>2179.6</ele>
        <time>2014-09-03T11:40:34Z</time>
      </trkpt>
      <trkpt lat="44.90292" lon="6.78638">
        <ele>2178.9</ele>
        <time>2014-09-03T11:40:39Z</time>
      </trkpt>
      <trkpt lat="44.90306" lon="6.7866">
        <ele>2174</ele>
        <time>2014-09-03T11:40:44Z</time>
      </trkpt>
      <trkpt lat="44.90309" lon="6.78686">
        <ele>2171.2</ele>
        <time>2014-09-03T11:40:51Z</time>
      </trkpt>
      <trkpt lat="44.9031" lon="6.78712">
        <ele>2167.4</ele>
        <time>2014-09-03T11:41:15Z</time>
      </trkpt>
      <trkpt lat="44.90304" lon="6.78739">
        <ele>2165.5</ele>
        <time>2014-09-03T11:41:22Z</time>
      </trkpt>
      <trkpt lat="44.90303" lon="6.78764">
        <ele>2162.9</ele>
        <time>2014-09-03T11:41:30Z</time>
      </trkpt>
      <trkpt lat="44.90296" lon="6.7879">
        <ele>2159.4</ele>
        <time>2014-09-03T11:41:39Z</time>
      </trkpt>
      <trkpt lat="44.9029" lon="6.78815">
        <ele>2156</ele>
        <time>2014-09-03T11:41:46Z</time>
      </trkpt>
      <trkpt lat="44.90273" lon="6.78829">
        <ele>2148.1</ele>
        <time>2014-09-03T11:42:06Z</time>
      </trkpt>
      <trkpt lat="44.90261" lon="6.78809">
        <ele>2141</ele>
        <time>2014-09-03T11:42:24Z</time>
      </trkpt>
      <trkpt lat="44.90245" lon="6.78795">
        <ele>2137.1</ele>
        <time>2014-09-03T11:42:43Z</time>
      </trkpt>
      <trkpt lat="44.90233" lon="6.78775">
        <ele>2137.6</ele>
        <time>2014-09-03T11:43:04Z</time>
      </trkpt>
      <trkpt lat="44.90223" lon="6.78754">
        <ele>2139.4</ele>
        <time>2014-09-03T11:43:26Z</time>
      </trkpt>
      <trkpt lat="44.9021" lon="6.78737">
        <ele>2142.3</ele>
        <time>2014-09-03T11:43:55Z</time>
      </trkpt>
      <trkpt lat="44.90203" lon="6.78713">
        <ele>2145.7</ele>
        <time>2014-09-03T11:44:16Z</time>
      </trkpt>
      <trkpt lat="44.90209" lon="6.78688">
        <ele>2149.8</ele>
        <time>2014-09-03T11:44:55Z</time>
      </trkpt>
      <trkpt lat="44.90219" lon="6.78666">
        <ele>2151.8</ele>
        <time>2014-09-03T11:45:16Z</time>
      </trkpt>
      <trkpt lat="44.90223" lon="6.7864">
        <ele>2157.3</ele>
        <time>2014-09-03T11:45:39Z</time>
      </trkpt>
      <trkpt lat="44.9022" lon="6.78614">
        <ele>2164.2</ele>
        <time>2014-09-03T11:46:12Z</time>
      </trkpt>
      <trkpt lat="44.90213" lon="6.78588">
        <ele>2169.9</ele>
        <time>2014-09-03T11:46:48Z</time>
      </trkpt>
      <trkpt lat="44.90226" lon="6.78606">
        <ele>2175.2</ele>
        <time>2014-09-03T11:50:43Z</time>
      </trkpt>
      <trkpt lat="44.90241" lon="6.78622">
        <ele>2174.7</ele>
        <time>2014-09-03T11:50:49Z</time>
      </trkpt>
      <trkpt lat="44.90227" lon="6.78638">
        <ele>2173.7</ele>
        <time>2014-09-03T11:50:57Z</time>
      </trkpt>
      <trkpt lat="44.90219" lon="6.78665">
        <ele>2172.6</ele>
        <time>2014-09-03T11:51:02Z</time>
      </trkpt>
      <trkpt lat="44.90207" lon="6.78691">
        <ele>2166.6</ele>
        <time>2014-09-03T11:51:08Z</time>
      </trkpt>
      <trkpt lat="44.90205" lon="6.7872">
        <ele>2155.8</ele>
        <time>2014-09-03T11:52:00Z</time>
      </trkpt>
      <trkpt lat="44.90216" lon="6.78746">
        <ele>2152.2</ele>
        <time>2014-09-03T11:52:04Z</time>
      </trkpt>
      <trkpt lat="44.90229" lon="6.78768">
        <ele>2148.8</ele>
        <time>2014-09-03T11:52:09Z</time>
      </trkpt>
      <trkpt lat="44.90242" lon="6.7879">
        <ele>2144.3</ele>
        <time>2014-09-03T11:52:14Z</time>
      </trkpt>
      <trkpt lat="44.9026" lon="6.78808">
        <ele>2139</ele>
        <time>2014-09-03T11:52:18Z</time>
      </trkpt>
      <trkpt lat="44.90276" lon="6.78829">
        <ele>2132.2</ele>
        <time>2014-09-03T11:52:22Z</time>
      </trkpt>
      <trkpt lat="44.90288" lon="6.78849">
        <ele>2129.1</ele>
        <time>2014-09-03T11:52:29Z</time>
      </trkpt>
      <trkpt lat="44.90304" lon="6.78866">
        <ele>2125.5</ele>
        <time>2014-09-03T11:52:33Z</time>
      </trkpt>
      <trkpt lat="44.90315" lon="6.7889">
        <ele>2122.4</ele>
        <time>2014-09-03T11:52:39Z</time>
      </trkpt>
      <trkpt lat="44.90325" lon="6.78914">
        <ele>2119.5</ele>
        <time>2014-09-03T11:52:46Z</time>
      </trkpt>
      <trkpt lat="44.9034" lon="6.78936">
        <ele>2115</ele>
        <time>2014-09-03T11:52:50Z</time>
      </trkpt>
      <trkpt lat="44.90341" lon="6.78963">
        <ele>2114</ele>
        <time>2014-09-03T11:53:21Z</time>
      </trkpt>
      <trkpt lat="44.90354" lon="6.78981">
        <ele>2108.4</ele>
        <time>2014-09-03T11:54:07Z</time>
      </trkpt>
      <trkpt lat="44.9037" lon="6.78996">
        <ele>2107.8</ele>
        <time>2014-09-03T11:54:13Z</time>
      </trkpt>
      <trkpt lat="44.90386" lon="6.79015">
        <ele>2107.1</ele>
        <time>2014-09-03T11:54:18Z</time>
      </trkpt>
      <trkpt lat="44.90403" lon="6.79027">
        <ele>2106.9</ele>
        <time>2014-09-03T11:54:24Z</time>
      </trkpt>
      <trkpt lat="44.90425" lon="6.79026">
        <ele>2106.8</ele>
        <time>2014-09-03T11:54:30Z</time>
      </trkpt>
      <trkpt lat="44.90444" lon="6.79022">
        <ele>2106.2</ele>
        <time>2014-09-03T11:54:35Z</time>
      </trkpt>
      <trkpt lat="44.90462" lon="6.79031">
        <ele>2106.7</ele>
        <time>2014-09-03T11:54:39Z</time>
      </trkpt>
      <trkpt lat="44.90481" lon="6.79032">
        <ele>2107.1</ele>
        <time>2014-09-03T11:54:44Z</time>
      </trkpt>
      <trkpt lat="44.90498" lon="6.79041">
        <ele>2107.2</ele>
        <time>2014-09-03T11:54:51Z</time>
      </trkpt>
      <trkpt lat="44.90511" lon="6.79059">
        <ele>2107.4</ele>
        <time>2014-09-03T11:54:56Z</time>
      </trkpt>
      <trkpt lat="44.90527" lon="6.79073">
        <ele>2107.2</ele>
        <time>2014-09-03T11:54:59Z</time>
      </trkpt>
      <trkpt lat="44.90548" lon="6.79083">
        <ele>2105.5</ele>
        <time>2014-09-03T11:55:02Z</time>
      </trkpt>
      <trkpt lat="44.90565" lon="6.79104">
        <ele>2103.2</ele>
        <time>2014-09-03T11:55:07Z</time>
      </trkpt>
      <trkpt lat="44.9057" lon="6.79129">
        <ele>2101.2</ele>
        <time>2014-09-03T11:55:10Z</time>
      </trkpt>
      <trkpt lat="44.90581" lon="6.79152">
        <ele>2099.5</ele>
        <time>2014-09-03T11:55:13Z</time>
      </trkpt>
      <trkpt lat="44.90595" lon="6.79176">
        <ele>2098.1</ele>
        <time>2014-09-03T11:55:16Z</time>
      </trkpt>
      <trkpt lat="44.90607" lon="6.79198">
        <ele>2096.6</ele>
        <time>2014-09-03T11:55:18Z</time>
      </trkpt>
      <trkpt lat="44.90619" lon="6.79217">
        <ele>2094.5</ele>
        <time>2014-09-03T11:55:20Z</time>
      </trkpt>
      <trkpt lat="44.9064" lon="6.79236">
        <ele>2090.6</ele>
        <time>2014-09-03T11:55:23Z</time>
      </trkpt>
      <trkpt lat="44.90661" lon="6.79249">
        <ele>2087</ele>
        <time>2014-09-03T11:55:26Z</time>
      </trkpt>
      <trkpt lat="44.9068" lon="6.79259">
        <ele>2084.6</ele>
        <time>2014-09-03T11:55:30Z</time>
      </trkpt>
      <trkpt lat="44.907" lon="6.7927">
        <ele>2082.5</ele>
        <time>2014-09-03T11:55:34Z</time>
      </trkpt>
      <trkpt lat="44.90721" lon="6.79274">
        <ele>2081.5</ele>
        <time>2014-09-03T11:55:40Z</time>
      </trkpt>
      <trkpt lat="44.90742" lon="6.79272">
        <ele>2081.1</ele>
        <time>2014-09-03T11:55:46Z</time>
      </trkpt>
      <trkpt lat="44.90762" lon="6.7927">
        <ele>2080.2</ele>
        <time>2014-09-03T11:55:51Z</time>
      </trkpt>
      <trkpt lat="44.90785" lon="6.79273">
        <ele>2079.6</ele>
        <time>2014-09-03T11:55:56Z</time>
      </trkpt>
      <trkpt lat="44.90803" lon="6.79285">
        <ele>2079.3</ele>
        <time>2014-09-03T11:56:02Z</time>
      </trkpt>
      <trkpt lat="44.9082" lon="6.79299">
        <ele>2079.3</ele>
        <time>2014-09-03T11:56:08Z</time>
      </trkpt>
      <trkpt lat="44.90837" lon="6.79306">
        <ele>2079.5</ele>
        <time>2014-09-03T11:56:16Z</time>
      </trkpt>
      <trkpt lat="44.90855" lon="6.79308">
        <ele>2079.7</ele>
        <time>2014-09-03T11:56:22Z</time>
      </trkpt>
      <trkpt lat="44.90875" lon="6.79305">
        <ele>2079.7</ele>
        <time>2014-09-03T11:56:28Z</time>
      </trkpt>
      <trkpt lat="44.90896" lon="6.79298">
        <ele>2078.5</ele>
        <time>2014-09-03T11:56:33Z</time>
      </trkpt>
      <trkpt lat="44.90916" lon="6.79291">
        <ele>2078.2</ele>
        <time>2014-09-03T11:56:36Z</time>
      </trkpt>
      <trkpt lat="44.90934" lon="6.79288">
        <ele>2077.5</ele>
        <time>2014-09-03T11:56:39Z</time>
      </trkpt>
      <trkpt lat="44.90957" lon="6.79286">
        <ele>2076.2</ele>
        <time>2014-09-03T11:56:42Z</time>
      </trkpt>
      <trkpt lat="44.90979" lon="6.79286">
        <ele>2074.5</ele>
        <time>2014-09-03T11:56:45Z</time>
      </trkpt>
      <trkpt lat="44.90998" lon="6.7929">
        <ele>2071.9</ele>
        <time>2014-09-03T11:56:49Z</time>
      </trkpt>
      <trkpt lat="44.91016" lon="6.79293">
        <ele>2071.4</ele>
        <time>2014-09-03T11:56:54Z</time>
      </trkpt>
      <trkpt lat="44.91034" lon="6.79295">
        <ele>2071.1</ele>
        <time>2014-09-03T11:57:00Z</time>
      </trkpt>
      <trkpt lat="44.91053" lon="6.7929">
        <ele>2070.4</ele>
        <time>2014-09-03T11:57:29Z</time>
      </trkpt>
      <trkpt lat="44.91075" lon="6.79293">
        <ele>2069.7</ele>
        <time>2014-09-03T11:57:36Z</time>
      </trkpt>
      <trkpt lat="44.91096" lon="6.7929">
        <ele>2068.6</ele>
        <time>2014-09-03T11:57:41Z</time>
      </trkpt>
      <trkpt lat="44.91116" lon="6.79295">
        <ele>2068.8</ele>
        <time>2014-09-03T11:57:46Z</time>
      </trkpt>
      <trkpt lat="44.9114" lon="6.79295">
        <ele>2069.3</ele>
        <time>2014-09-03T11:57:51Z</time>
      </trkpt>
      <trkpt lat="44.91161" lon="6.79295">
        <ele>2068.8</ele>
        <time>2014-09-03T11:57:55Z</time>
      </trkpt>
      <trkpt lat="44.91179" lon="6.79294">
        <ele>2068.7</ele>
        <time>2014-09-03T11:58:00Z</time>
      </trkpt>
      <trkpt lat="44.91198" lon="6.79296">
        <ele>2069</ele>
        <time>2014-09-03T11:58:08Z</time>
      </trkpt>
      <trkpt lat="44.91214" lon="6.79313">
        <ele>2070.2</ele>
        <time>2014-09-03T11:58:20Z</time>
      </trkpt>
      <trkpt lat="44.9123" lon="6.79326">
        <ele>2070.6</ele>
        <time>2014-09-03T11:58:25Z</time>
      </trkpt>
      <trkpt lat="44.91251" lon="6.79338">
        <ele>2070.6</ele>
        <time>2014-09-03T11:58:29Z</time>
      </trkpt>
      <trkpt lat="44.91275" lon="6.7934">
        <ele>2070.3</ele>
        <time>2014-09-03T11:58:33Z</time>
      </trkpt>
      <trkpt lat="44.91294" lon="6.79343">
        <ele>2069.3</ele>
        <time>2014-09-03T11:58:36Z</time>
      </trkpt>
      <trkpt lat="44.91317" lon="6.79347">
        <ele>2068.5</ele>
        <time>2014-09-03T11:58:39Z</time>
      </trkpt>
      <trkpt lat="44.91342" lon="6.79354">
        <ele>2066.4</ele>
        <time>2014-09-03T11:58:42Z</time>
      </trkpt>
      <trkpt lat="44.91367" lon="6.79359">
        <ele>2063.9</ele>
        <time>2014-09-03T11:58:45Z</time>
      </trkpt>
      <trkpt lat="44.91386" lon="6.79359">
        <ele>2062.2</ele>
        <time>2014-09-03T11:58:56Z</time>
      </trkpt>
      <trkpt lat="44.91406" lon="6.79362">
        <ele>2061.8</ele>
        <time>2014-09-03T11:59:01Z</time>
      </trkpt>
      <trkpt lat="44.9141" lon="6.79387">
        <ele>2053.4</ele>
        <time>2014-09-03T12:04:48Z</time>
      </trkpt>
      <trkpt lat="44.9141" lon="6.79361">
        <ele>2054.5</ele>
        <time>2014-09-03T12:08:06Z</time>
      </trkpt>
      <trkpt lat="44.91432" lon="6.79365">
        <ele>2052</ele>
        <time>2014-09-03T12:11:19Z</time>
      </trkpt>
      <trkpt lat="44.91451" lon="6.79371">
        <ele>2049.4</ele>
        <time>2014-09-03T12:11:22Z</time>
      </trkpt>
      <trkpt lat="44.91472" lon="6.79374">
        <ele>2046.4</ele>
        <time>2014-09-03T12:11:25Z</time>
      </trkpt>
      <trkpt lat="44.9149" lon="6.79385">
        <ele>2042.8</ele>
        <time>2014-09-03T12:11:28Z</time>
      </trkpt>
      <trkpt lat="44.91511" lon="6.79393">
        <ele>2040</ele>
        <time>2014-09-03T12:11:31Z</time>
      </trkpt>
      <trkpt lat="44.91533" lon="6.79404">
        <ele>2038.1</ele>
        <time>2014-09-03T12:11:34Z</time>
      </trkpt>
      <trkpt lat="44.91556" lon="6.79419">
        <ele>2036.5</ele>
        <time>2014-09-03T12:11:37Z</time>
      </trkpt>
      <trkpt lat="44.91575" lon="6.79429">
        <ele>2035.6</ele>
        <time>2014-09-03T12:11:40Z</time>
      </trkpt>
      <trkpt lat="44.91593" lon="6.79427">
        <ele>2035.8</ele>
        <time>2014-09-03T12:11:48Z</time>
      </trkpt>
      <trkpt lat="44.91574" lon="6.7943">
        <ele>2035.3</ele>
        <time>2014-09-03T12:12:55Z</time>
      </trkpt>
      <trkpt lat="44.91556" lon="6.79421">
        <ele>2035.6</ele>
        <time>2014-09-03T12:13:03Z</time>
      </trkpt>
      <trkpt lat="44.91538" lon="6.7941">
        <ele>2035.3</ele>
        <time>2014-09-03T12:13:09Z</time>
      </trkpt>
      <trkpt lat="44.91522" lon="6.79398">
        <ele>2035.4</ele>
        <time>2014-09-03T12:13:15Z</time>
      </trkpt>
      <trkpt lat="44.91503" lon="6.79388">
        <ele>2035.8</ele>
        <time>2014-09-03T12:13:24Z</time>
      </trkpt>
      <trkpt lat="44.91485" lon="6.79378">
        <ele>2036.1</ele>
        <time>2014-09-03T12:13:35Z</time>
      </trkpt>
      <trkpt lat="44.91467" lon="6.79371">
        <ele>2037.8</ele>
        <time>2014-09-03T12:13:46Z</time>
      </trkpt>
      <trkpt lat="44.91448" lon="6.79368">
        <ele>2039.5</ele>
        <time>2014-09-03T12:13:57Z</time>
      </trkpt>
      <trkpt lat="44.9143" lon="6.79362">
        <ele>2041.5</ele>
        <time>2014-09-03T12:14:13Z</time>
      </trkpt>
      <trkpt lat="44.9141" lon="6.7936">
        <ele>2042.3</ele>
        <time>2014-09-03T12:14:23Z</time>
      </trkpt>
      <trkpt lat="44.91392" lon="6.79356">
        <ele>2044</ele>
        <time>2014-09-03T12:14:35Z</time>
      </trkpt>
      <trkpt lat="44.91373" lon="6.79351">
        <ele>2046.2</ele>
        <time>2014-09-03T12:14:45Z</time>
      </trkpt>
      <trkpt lat="44.91355" lon="6.79354">
        <ele>2048.1</ele>
        <time>2014-09-03T12:14:58Z</time>
      </trkpt>
      <trkpt lat="44.91337" lon="6.79348">
        <ele>2049.7</ele>
        <time>2014-09-03T12:15:06Z</time>
      </trkpt>
      <trkpt lat="44.91318" lon="6.79344">
        <ele>2052.5</ele>
        <time>2014-09-03T12:15:19Z</time>
      </trkpt>
      <trkpt lat="44.913" lon="6.79337">
        <ele>2054.7</ele>
        <time>2014-09-03T12:15:30Z</time>
      </trkpt>
      <trkpt lat="44.91282" lon="6.79337">
        <ele>2056.4</ele>
        <time>2014-09-03T12:15:40Z</time>
      </trkpt>
      <trkpt lat="44.91262" lon="6.79335">
        <ele>2058.1</ele>
        <time>2014-09-03T12:15:53Z</time>
      </trkpt>
      <trkpt lat="44.91242" lon="6.79331">
        <ele>2059.3</ele>
        <time>2014-09-03T12:16:02Z</time>
      </trkpt>
      <trkpt lat="44.91225" lon="6.79321">
        <ele>2060.6</ele>
        <time>2014-09-03T12:16:09Z</time>
      </trkpt>
      <trkpt lat="44.91208" lon="6.79309">
        <ele>2062.3</ele>
        <time>2014-09-03T12:16:18Z</time>
      </trkpt>
      <trkpt lat="44.91194" lon="6.79289">
        <ele>2063.9</ele>
        <time>2014-09-03T12:16:24Z</time>
      </trkpt>
      <trkpt lat="44.91175" lon="6.79288">
        <ele>2066.7</ele>
        <time>2014-09-03T12:16:27Z</time>
      </trkpt>
      <trkpt lat="44.91155" lon="6.79289">
        <ele>2067.7</ele>
        <time>2014-09-03T12:16:30Z</time>
      </trkpt>
      <trkpt lat="44.91135" lon="6.79288">
        <ele>2067.5</ele>
        <time>2014-09-03T12:16:33Z</time>
      </trkpt>
      <trkpt lat="44.91116" lon="6.79291">
        <ele>2067.7</ele>
        <time>2014-09-03T12:16:39Z</time>
      </trkpt>
      <trkpt lat="44.91095" lon="6.79286">
        <ele>2067.8</ele>
        <time>2014-09-03T12:16:47Z</time>
      </trkpt>
      <trkpt lat="44.91074" lon="6.79285">
        <ele>2067.9</ele>
        <time>2014-09-03T12:16:53Z</time>
      </trkpt>
      <trkpt lat="44.91055" lon="6.79287">
        <ele>2067.8</ele>
        <time>2014-09-03T12:16:59Z</time>
      </trkpt>
      <trkpt lat="44.91041" lon="6.79305">
        <ele>2068.3</ele>
        <time>2014-09-03T12:17:08Z</time>
      </trkpt>
      <trkpt lat="44.91043" lon="6.79337">
        <ele>2068.4</ele>
        <time>2014-09-03T12:17:13Z</time>
      </trkpt>
      <trkpt lat="44.91041" lon="6.79364">
        <ele>2067.5</ele>
        <time>2014-09-03T12:17:18Z</time>
      </trkpt>
      <trkpt lat="44.91032" lon="6.79392">
        <ele>2066</ele>
        <time>2014-09-03T12:17:23Z</time>
      </trkpt>
      <trkpt lat="44.91026" lon="6.79423">
        <ele>2055.4</ele>
        <time>2014-09-03T12:17:27Z</time>
      </trkpt>
      <trkpt lat="44.9102" lon="6.79449">
        <ele>2052.2</ele>
        <time>2014-09-03T12:17:31Z</time>
      </trkpt>
      <trkpt lat="44.91015" lon="6.79476">
        <ele>2050.2</ele>
        <time>2014-09-03T12:17:37Z</time>
      </trkpt>
      <trkpt lat="44.91008" lon="6.79504">
        <ele>2040.8</ele>
        <time>2014-09-03T12:17:41Z</time>
      </trkpt>
      <trkpt lat="44.91001" lon="6.79535">
        <ele>2032.9</ele>
        <time>2014-09-03T12:17:44Z</time>
      </trkpt>
      <trkpt lat="44.90996" lon="6.79561">
        <ele>2028.2</ele>
        <time>2014-09-03T12:17:47Z</time>
      </trkpt>
      <trkpt lat="44.90995" lon="6.79587">
        <ele>2023.6</ele>
        <time>2014-09-03T12:21:00Z</time>
      </trkpt>
      <trkpt lat="44.90984" lon="6.79609">
        <ele>2023.8</ele>
        <time>2014-09-03T12:21:03Z</time>
      </trkpt>
      <trkpt lat="44.90969" lon="6.79631">
        <ele>2021.2</ele>
        <time>2014-09-03T12:21:07Z</time>
      </trkpt>
      <trkpt lat="44.9096" lon="6.79658">
        <ele>2016.3</ele>
        <time>2014-09-03T12:21:11Z</time>
      </trkpt>
      <trkpt lat="44.90951" lon="6.79688">
        <ele>2010.8</ele>
        <time>2014-09-03T12:21:15Z</time>
      </trkpt>
      <trkpt lat="44.90951" lon="6.79714">
        <ele>2006.4</ele>
        <time>2014-09-03T12:22:58Z</time>
      </trkpt>
      <trkpt lat="44.90958" lon="6.79738">
        <ele>2005</ele>
        <time>2014-09-03T12:23:03Z</time>
      </trkpt>
      <trkpt lat="44.90964" lon="6.79766">
        <ele>2004</ele>
        <time>2014-09-03T12:23:08Z</time>
      </trkpt>
      <trkpt lat="44.90963" lon="6.79792">
        <ele>2003.7</ele>
        <time>2014-09-03T12:23:18Z</time>
      </trkpt>
      <trkpt lat="44.90948" lon="6.79806">
        <ele>2003.9</ele>
        <time>2014-09-03T12:23:26Z</time>
      </trkpt>
      <trkpt lat="44.90929" lon="6.79811">
        <ele>2001.8</ele>
        <time>2014-09-03T12:23:37Z</time>
      </trkpt>
      <trkpt lat="44.90921" lon="6.79835">
        <ele>2000.4</ele>
        <time>2014-09-03T12:23:45Z</time>
      </trkpt>
      <trkpt lat="44.90908" lon="6.79855">
        <ele>1999.8</ele>
        <time>2014-09-03T12:23:51Z</time>
      </trkpt>
      <trkpt lat="44.90895" lon="6.79875">
        <ele>1997.7</ele>
        <time>2014-09-03T12:24:02Z</time>
      </trkpt>
      <trkpt lat="44.90886" lon="6.79899">
        <ele>1994.1</ele>
        <time>2014-09-03T12:24:42Z</time>
      </trkpt>
      <trkpt lat="44.90872" lon="6.79919">
        <ele>1992.7</ele>
        <time>2014-09-03T12:24:52Z</time>
      </trkpt>
      <trkpt lat="44.90852" lon="6.79924">
        <ele>1991.4</ele>
        <time>2014-09-03T12:24:57Z</time>
      </trkpt>
      <trkpt lat="44.90832" lon="6.79928">
        <ele>1984.3</ele>
        <time>2014-09-03T12:25:01Z</time>
      </trkpt>
      <trkpt lat="44.90816" lon="6.79941">
        <ele>1981.1</ele>
        <time>2014-09-03T12:25:13Z</time>
      </trkpt>
      <trkpt lat="44.90798" lon="6.79939">
        <ele>1979.9</ele>
        <time>2014-09-03T12:25:28Z</time>
      </trkpt>
      <trkpt lat="44.9078" lon="6.7993">
        <ele>1978.2</ele>
        <time>2014-09-03T12:25:39Z</time>
      </trkpt>
      <trkpt lat="44.90763" lon="6.7992">
        <ele>1977.2</ele>
        <time>2014-09-03T12:25:50Z</time>
      </trkpt>
      <trkpt lat="44.90761" lon="6.79952">
        <ele>1974.8</ele>
        <time>2014-09-03T12:26:04Z</time>
      </trkpt>
      <trkpt lat="44.90762" lon="6.7998">
        <ele>1972.5</ele>
        <time>2014-09-03T12:26:08Z</time>
      </trkpt>
      <trkpt lat="44.90763" lon="6.80006">
        <ele>1969.7</ele>
        <time>2014-09-03T12:26:13Z</time>
      </trkpt>
      <trkpt lat="44.90762" lon="6.80036">
        <ele>1967.1</ele>
        <time>2014-09-03T12:26:20Z</time>
      </trkpt>
      <trkpt lat="44.90752" lon="6.80066">
        <ele>1960.3</ele>
        <time>2014-09-03T12:26:25Z</time>
      </trkpt>
      <trkpt lat="44.90736" lon="6.80085">
        <ele>1952.4</ele>
        <time>2014-09-03T12:26:29Z</time>
      </trkpt>
      <trkpt lat="44.90751" lon="6.8007">
        <ele>1941.8</ele>
        <time>2014-09-03T12:40:44Z</time>
      </trkpt>
      <trkpt lat="44.90769" lon="6.8006">
        <ele>1943</ele>
        <time>2014-09-03T12:40:54Z</time>
      </trkpt>
      <trkpt lat="44.90784" lon="6.80042">
        <ele>1944</ele>
        <time>2014-09-03T12:41:02Z</time>
      </trkpt>
      <trkpt lat="44.90799" lon="6.80028">
        <ele>1945</ele>
        <time>2014-09-03T12:41:11Z</time>
      </trkpt>
      <trkpt lat="44.90817" lon="6.80019">
        <ele>1945.5</ele>
        <time>2014-09-03T12:41:19Z</time>
      </trkpt>
      <trkpt lat="44.90837" lon="6.80021">
        <ele>1945.9</ele>
        <time>2014-09-03T12:41:27Z</time>
      </trkpt>
      <trkpt lat="44.90857" lon="6.80019">
        <ele>1946.4</ele>
        <time>2014-09-03T12:41:34Z</time>
      </trkpt>
      <trkpt lat="44.90874" lon="6.80031">
        <ele>1947.1</ele>
        <time>2014-09-03T12:41:40Z</time>
      </trkpt>
      <trkpt lat="44.90891" lon="6.80043">
        <ele>1947.7</ele>
        <time>2014-09-03T12:41:46Z</time>
      </trkpt>
      <trkpt lat="44.9091" lon="6.80055">
        <ele>1948.3</ele>
        <time>2014-09-03T12:41:53Z</time>
      </trkpt>
      <trkpt lat="44.90929" lon="6.80061">
        <ele>1948.7</ele>
        <time>2014-09-03T12:41:59Z</time>
      </trkpt>
      <trkpt lat="44.90948" lon="6.80064">
        <ele>1949</ele>
        <time>2014-09-03T12:42:06Z</time>
      </trkpt>
      <trkpt lat="44.90965" lon="6.80055">
        <ele>1949.4</ele>
        <time>2014-09-03T12:42:11Z</time>
      </trkpt>
      <trkpt lat="44.90987" lon="6.80053">
        <ele>1949.4</ele>
        <time>2014-09-03T12:42:17Z</time>
      </trkpt>
      <trkpt lat="44.91005" lon="6.80058">
        <ele>1949.3</ele>
        <time>2014-09-03T12:42:23Z</time>
      </trkpt>
      <trkpt lat="44.91024" lon="6.80052">
        <ele>1949.4</ele>
        <time>2014-09-03T12:42:29Z</time>
      </trkpt>
      <trkpt lat="44.91042" lon="6.80041">
        <ele>1949.7</ele>
        <time>2014-09-03T12:42:35Z</time>
      </trkpt>
      <trkpt lat="44.91061" lon="6.80036">
        <ele>1949.9</ele>
        <time>2014-09-03T12:42:40Z</time>
      </trkpt>
      <trkpt lat="44.91044" lon="6.80025">
        <ele>1951.2</ele>
        <time>2014-09-03T12:43:26Z</time>
      </trkpt>
      <trkpt lat="44.91025" lon="6.80028">
        <ele>1951.8</ele>
        <time>2014-09-03T12:43:38Z</time>
      </trkpt>
      <trkpt lat="44.91007" lon="6.80036">
        <ele>1953.1</ele>
        <time>2014-09-03T12:43:52Z</time>
      </trkpt>
      <trkpt lat="44.90989" lon="6.80027">
        <ele>1953.8</ele>
        <time>2014-09-03T12:44:00Z</time>
      </trkpt>
      <trkpt lat="44.90973" lon="6.80016">
        <ele>1954.9</ele>
        <time>2014-09-03T12:44:10Z</time>
      </trkpt>
      <trkpt lat="44.90954" lon="6.80008">
        <ele>1956</ele>
        <time>2014-09-03T12:44:21Z</time>
      </trkpt>
      <trkpt lat="44.90937" lon="6.79999">
        <ele>1957.7</ele>
        <time>2014-09-03T12:44:30Z</time>
      </trkpt>
      <trkpt lat="44.9092" lon="6.79985">
        <ele>1959.4</ele>
        <time>2014-09-03T12:44:40Z</time>
      </trkpt>
      <trkpt lat="44.90903" lon="6.79975">
        <ele>1960.8</ele>
        <time>2014-09-03T12:44:50Z</time>
      </trkpt>
      <trkpt lat="44.90888" lon="6.79956">
        <ele>1963.1</ele>
        <time>2014-09-03T12:44:59Z</time>
      </trkpt>
      <trkpt lat="44.90873" lon="6.79943">
        <ele>1965.3</ele>
        <time>2014-09-03T12:45:10Z</time>
      </trkpt>
      <trkpt lat="44.90856" lon="6.79934">
        <ele>1966.7</ele>
        <time>2014-09-03T12:45:18Z</time>
      </trkpt>
      <trkpt lat="44.90837" lon="6.79934">
        <ele>1967.7</ele>
        <time>2014-09-03T12:45:25Z</time>
      </trkpt>
      <trkpt lat="44.90817" lon="6.79934">
        <ele>1968.9</ele>
        <time>2014-09-03T12:45:34Z</time>
      </trkpt>
      <trkpt lat="44.90797" lon="6.79933">
        <ele>1969.7</ele>
        <time>2014-09-03T12:45:40Z</time>
      </trkpt>
      <trkpt lat="44.90777" lon="6.79927">
        <ele>1970.4</ele>
        <time>2014-09-03T12:45:47Z</time>
      </trkpt>
      <trkpt lat="44.90758" lon="6.79917">
        <ele>1970.9</ele>
        <time>2014-09-03T12:45:54Z</time>
      </trkpt>
      <trkpt lat="44.90739" lon="6.79913">
        <ele>1971.2</ele>
        <time>2014-09-03T12:46:02Z</time>
      </trkpt>
      <trkpt lat="44.90721" lon="6.79925">
        <ele>1972.4</ele>
        <time>2014-09-03T12:46:10Z</time>
      </trkpt>
      <trkpt lat="44.90703" lon="6.7993">
        <ele>1975.5</ele>
        <time>2014-09-03T12:46:24Z</time>
      </trkpt>
      <trkpt lat="44.90687" lon="6.79913">
        <ele>1977.3</ele>
        <time>2014-09-03T12:46:37Z</time>
      </trkpt>
      <trkpt lat="44.9067" lon="6.799">
        <ele>1978.6</ele>
        <time>2014-09-03T12:46:49Z</time>
      </trkpt>
      <trkpt lat="44.90651" lon="6.79899">
        <ele>1980.9</ele>
        <time>2014-09-03T12:47:04Z</time>
      </trkpt>
      <trkpt lat="44.90634" lon="6.7991">
        <ele>1983.7</ele>
        <time>2014-09-03T12:47:17Z</time>
      </trkpt>
      <trkpt lat="44.90614" lon="6.79911">
        <ele>1985.6</ele>
        <time>2014-09-03T12:47:30Z</time>
      </trkpt>
      <trkpt lat="44.90601" lon="6.79892">
        <ele>1987.6</ele>
        <time>2014-09-03T12:47:41Z</time>
      </trkpt>
      <trkpt lat="44.90593" lon="6.79868">
        <ele>1989.7</ele>
        <time>2014-09-03T12:47:53Z</time>
      </trkpt>
      <trkpt lat="44.90578" lon="6.79852">
        <ele>1991.6</ele>
        <time>2014-09-03T12:48:05Z</time>
      </trkpt>
      <trkpt lat="44.90563" lon="6.79836">
        <ele>1993</ele>
        <time>2014-09-03T12:48:17Z</time>
      </trkpt>
      <trkpt lat="44.90553" lon="6.79815">
        <ele>1994.8</ele>
        <time>2014-09-03T12:48:27Z</time>
      </trkpt>
      <trkpt lat="44.90544" lon="6.79791">
        <ele>1996.1</ele>
        <time>2014-09-03T12:48:35Z</time>
      </trkpt>
      <trkpt lat="44.90532" lon="6.79772">
        <ele>1997.4</ele>
        <time>2014-09-03T12:48:42Z</time>
      </trkpt>
      <trkpt lat="44.90516" lon="6.79757">
        <ele>1999</ele>
        <time>2014-09-03T12:48:55Z</time>
      </trkpt>
      <trkpt lat="44.90497" lon="6.79751">
        <ele>2000.6</ele>
        <time>2014-09-03T12:49:06Z</time>
      </trkpt>
      <trkpt lat="44.90478" lon="6.7975">
        <ele>2002.3</ele>
        <time>2014-09-03T12:49:16Z</time>
      </trkpt>
      <trkpt lat="44.90458" lon="6.79744">
        <ele>2003.1</ele>
        <time>2014-09-03T12:49:23Z</time>
      </trkpt>
      <trkpt lat="44.90439" lon="6.79734">
        <ele>2004.4</ele>
        <time>2014-09-03T12:49:30Z</time>
      </trkpt>
      <trkpt lat="44.9042" lon="6.79723">
        <ele>2005.8</ele>
        <time>2014-09-03T12:49:38Z</time>
      </trkpt>
      <trkpt lat="44.90402" lon="6.79708">
        <ele>2006.8</ele>
        <time>2014-09-03T12:49:45Z</time>
      </trkpt>
      <trkpt lat="44.90389" lon="6.79685">
        <ele>2007.6</ele>
        <time>2014-09-03T12:49:52Z</time>
      </trkpt>
      <trkpt lat="44.90376" lon="6.79665">
        <ele>2008.2</ele>
        <time>2014-09-03T12:49:59Z</time>
      </trkpt>
      <trkpt lat="44.90357" lon="6.79665">
        <ele>2008.8</ele>
        <time>2014-09-03T12:50:06Z</time>
      </trkpt>
      <trkpt lat="44.90339" lon="6.79668">
        <ele>2009.8</ele>
        <time>2014-09-03T12:50:12Z</time>
      </trkpt>
      <trkpt lat="44.9032" lon="6.79659">
        <ele>2010.6</ele>
        <time>2014-09-03T12:50:19Z</time>
      </trkpt>
      <trkpt lat="44.90305" lon="6.79646">
        <ele>2010.6</ele>
        <time>2014-09-03T12:50:25Z</time>
      </trkpt>
      <trkpt lat="44.90286" lon="6.79637">
        <ele>2011</ele>
        <time>2014-09-03T12:50:32Z</time>
      </trkpt>
      <trkpt lat="44.90268" lon="6.7963">
        <ele>2011.6</ele>
        <time>2014-09-03T12:50:38Z</time>
      </trkpt>
      <trkpt lat="44.9025" lon="6.79626">
        <ele>2012.4</ele>
        <time>2014-09-03T12:50:47Z</time>
      </trkpt>
      <trkpt lat="44.9023" lon="6.79619">
        <ele>2012.7</ele>
        <time>2014-09-03T12:50:55Z</time>
      </trkpt>
      <trkpt lat="44.9021" lon="6.7961">
        <ele>2013.1</ele>
        <time>2014-09-03T12:51:02Z</time>
      </trkpt>
      <trkpt lat="44.90194" lon="6.79595">
        <ele>2013.3</ele>
        <time>2014-09-03T12:51:09Z</time>
      </trkpt>
      <trkpt lat="44.90179" lon="6.7958">
        <ele>2013.5</ele>
        <time>2014-09-03T12:51:17Z</time>
      </trkpt>
      <trkpt lat="44.90159" lon="6.79577">
        <ele>2013.6</ele>
        <time>2014-09-03T12:51:25Z</time>
      </trkpt>
      <trkpt lat="44.90141" lon="6.7957">
        <ele>2014.1</ele>
        <time>2014-09-03T12:51:35Z</time>
      </trkpt>
      <trkpt lat="44.9013" lon="6.79548">
        <ele>2014.7</ele>
        <time>2014-09-03T12:51:42Z</time>
      </trkpt>
      <trkpt lat="44.90112" lon="6.79545">
        <ele>2015.4</ele>
        <time>2014-09-03T12:51:50Z</time>
      </trkpt>
      <trkpt lat="44.90091" lon="6.79536">
        <ele>2015.3</ele>
        <time>2014-09-03T12:51:56Z</time>
      </trkpt>
      <trkpt lat="44.90072" lon="6.79528">
        <ele>2014.5</ele>
        <time>2014-09-03T12:52:01Z</time>
      </trkpt>
      <trkpt lat="44.90053" lon="6.79524">
        <ele>2014.4</ele>
        <time>2014-09-03T12:52:09Z</time>
      </trkpt>
      <trkpt lat="44.90034" lon="6.79517">
        <ele>2014.5</ele>
        <time>2014-09-03T12:52:17Z</time>
      </trkpt>
      <trkpt lat="44.90013" lon="6.79507">
        <ele>2014.8</ele>
        <time>2014-09-03T12:52:24Z</time>
      </trkpt>
      <trkpt lat="44.89993" lon="6.79503">
        <ele>2015.6</ele>
        <time>2014-09-03T12:52:29Z</time>
      </trkpt>
      <trkpt lat="44.89974" lon="6.79508">
        <ele>2016.2</ele>
        <time>2014-09-03T12:52:42Z</time>
      </trkpt>
      <trkpt lat="44.89956" lon="6.79504">
        <ele>2016.3</ele>
        <time>2014-09-03T12:52:48Z</time>
      </trkpt>
      <trkpt lat="44.89938" lon="6.79499">
        <ele>2016.2</ele>
        <time>2014-09-03T12:52:55Z</time>
      </trkpt>
      <trkpt lat="44.8992" lon="6.79496">
        <ele>2015.9</ele>
        <time>2014-09-03T12:53:16Z</time>
      </trkpt>
      <trkpt lat="44.89939" lon="6.79504">
        <ele>2017.6</ele>
        <time>2014-09-03T12:55:07Z</time>
      </trkpt>
      <trkpt lat="44.89958" lon="6.7951">
        <ele>2018.3</ele>
        <time>2014-09-03T12:55:13Z</time>
      </trkpt>
      <trkpt lat="44.89976" lon="6.79515">
        <ele>2018.5</ele>
        <time>2014-09-03T12:55:19Z</time>
      </trkpt>
      <trkpt lat="44.89994" lon="6.79513">
        <ele>2019</ele>
        <time>2014-09-03T12:55:25Z</time>
      </trkpt>
      <trkpt lat="44.90013" lon="6.79518">
        <ele>2019.2</ele>
        <time>2014-09-03T12:55:31Z</time>
      </trkpt>
      <trkpt lat="44.90032" lon="6.79521">
        <ele>2019.5</ele>
        <time>2014-09-03T12:55:40Z</time>
      </trkpt>
      <trkpt lat="44.90056" lon="6.79522">
        <ele>2018.5</ele>
        <time>2014-09-03T12:55:46Z</time>
      </trkpt>
      <trkpt lat="44.90073" lon="6.7953">
        <ele>2016.6</ele>
        <time>2014-09-03T12:55:50Z</time>
      </trkpt>
      <trkpt lat="44.90091" lon="6.79536">
        <ele>2015.9</ele>
        <time>2014-09-03T12:55:58Z</time>
      </trkpt>
      <trkpt lat="44.90109" lon="6.79544">
        <ele>2015.6</ele>
        <time>2014-09-03T12:56:06Z</time>
      </trkpt>
      <trkpt lat="44.90131" lon="6.79548">
        <ele>2015.8</ele>
        <time>2014-09-03T12:56:12Z</time>
      </trkpt>
      <trkpt lat="44.90142" lon="6.7957">
        <ele>2016.2</ele>
        <time>2014-09-03T12:56:19Z</time>
      </trkpt>
      <trkpt lat="44.9016" lon="6.79576">
        <ele>2016.5</ele>
        <time>2014-09-03T12:56:25Z</time>
      </trkpt>
      <trkpt lat="44.9018" lon="6.79581">
        <ele>2016.9</ele>
        <time>2014-09-03T12:56:29Z</time>
      </trkpt>
      <trkpt lat="44.90196" lon="6.79567">
        <ele>2016.8</ele>
        <time>2014-09-03T12:56:35Z</time>
      </trkpt>
      <trkpt lat="44.90212" lon="6.79554">
        <ele>2016.6</ele>
        <time>2014-09-03T12:56:45Z</time>
      </trkpt>
      <trkpt lat="44.90226" lon="6.79536">
        <ele>2016.7</ele>
        <time>2014-09-03T12:57:08Z</time>
      </trkpt>
      <trkpt lat="44.90244" lon="6.79538">
        <ele>2016.7</ele>
        <time>2014-09-03T12:57:45Z</time>
      </trkpt>
      <trkpt lat="44.90261" lon="6.79548">
        <ele>2016</ele>
        <time>2014-09-03T12:57:50Z</time>
      </trkpt>
      <trkpt lat="44.90281" lon="6.79545">
        <ele>2014.2</ele>
        <time>2014-09-03T12:57:55Z</time>
      </trkpt>
      <trkpt lat="44.90295" lon="6.79529">
        <ele>2014.2</ele>
        <time>2014-09-03T12:58:02Z</time>
      </trkpt>
      <trkpt lat="44.90301" lon="6.79502">
        <ele>2015</ele>
        <time>2014-09-03T12:58:10Z</time>
      </trkpt>
      <trkpt lat="44.90309" lon="6.79476">
        <ele>2016</ele>
        <time>2014-09-03T12:58:18Z</time>
      </trkpt>
      <trkpt lat="44.90314" lon="6.79451">
        <ele>2016.7</ele>
        <time>2014-09-03T12:58:30Z</time>
      </trkpt>
      <trkpt lat="44.90323" lon="6.79428">
        <ele>2019.2</ele>
        <time>2014-09-03T12:58:47Z</time>
      </trkpt>
      <trkpt lat="44.90341" lon="6.79423">
        <ele>2022.3</ele>
        <time>2014-09-03T12:59:01Z</time>
      </trkpt>
      <trkpt lat="44.90345" lon="6.79396">
        <ele>2025.7</ele>
        <time>2014-09-03T12:59:17Z</time>
      </trkpt>
      <trkpt lat="44.90326" lon="6.79391">
        <ele>2028.6</ele>
        <time>2014-09-03T12:59:33Z</time>
      </trkpt>
      <trkpt lat="44.90316" lon="6.7937">
        <ele>2031.1</ele>
        <time>2014-09-03T12:59:48Z</time>
      </trkpt>
      <trkpt lat="44.90315" lon="6.79343">
        <ele>2033.8</ele>
        <time>2014-09-03T13:00:02Z</time>
      </trkpt>
      <trkpt lat="44.90303" lon="6.79323">
        <ele>2037.1</ele>
        <time>2014-09-03T13:00:19Z</time>
      </trkpt>
      <trkpt lat="44.9029" lon="6.79305">
        <ele>2040.6</ele>
        <time>2014-09-03T13:00:32Z</time>
      </trkpt>
      <trkpt lat="44.90283" lon="6.79281">
        <ele>2044.8</ele>
        <time>2014-09-03T13:00:47Z</time>
      </trkpt>
      <trkpt lat="44.90272" lon="6.7926">
        <ele>2049.5</ele>
        <time>2014-09-03T13:01:03Z</time>
      </trkpt>
      <trkpt lat="44.90254" lon="6.79251">
        <ele>2051.2</ele>
        <time>2014-09-03T13:01:16Z</time>
      </trkpt>
      <trkpt lat="44.90241" lon="6.79234">
        <ele>2053.5</ele>
        <time>2014-09-03T13:01:30Z</time>
      </trkpt>
      <trkpt lat="44.90225" lon="6.79222">
        <ele>2055</ele>
        <time>2014-09-03T13:01:41Z</time>
      </trkpt>
      <trkpt lat="44.90215" lon="6.792">
        <ele>2059.3</ele>
        <time>2014-09-03T13:02:12Z</time>
      </trkpt>
      <trkpt lat="44.90228" lon="6.79221">
        <ele>2063.4</ele>
        <time>2014-09-03T13:06:15Z</time>
      </trkpt>
      <trkpt lat="44.90243" lon="6.79235">
        <ele>2061.9</ele>
        <time>2014-09-03T13:06:20Z</time>
      </trkpt>
      <trkpt lat="44.90263" lon="6.79253">
        <ele>2059.5</ele>
        <time>2014-09-03T13:06:24Z</time>
      </trkpt>
      <trkpt lat="44.90285" lon="6.79254">
        <ele>2057.3</ele>
        <time>2014-09-03T13:06:27Z</time>
      </trkpt>
      <trkpt lat="44.90304" lon="6.79257">
        <ele>2057.4</ele>
        <time>2014-09-03T13:06:34Z</time>
      </trkpt>
      <trkpt lat="44.90323" lon="6.79253">
        <ele>2059</ele>
        <time>2014-09-03T13:06:48Z</time>
      </trkpt>
      <trkpt lat="44.9034" lon="6.79243">
        <ele>2061.7</ele>
        <time>2014-09-03T13:07:06Z</time>
      </trkpt>
      <trkpt lat="44.90327" lon="6.79225">
        <ele>2064.5</ele>
        <time>2014-09-03T13:07:26Z</time>
      </trkpt>
      <trkpt lat="44.9033" lon="6.792">
        <ele>2069.4</ele>
        <time>2014-09-03T13:07:54Z</time>
      </trkpt>
      <trkpt lat="44.90349" lon="6.79195">
        <ele>2072</ele>
        <time>2014-09-03T13:08:09Z</time>
      </trkpt>
      <trkpt lat="44.90356" lon="6.7917">
        <ele>2076.9</ele>
        <time>2014-09-03T13:08:31Z</time>
      </trkpt>
      <trkpt lat="44.90342" lon="6.79152">
        <ele>2079.6</ele>
        <time>2014-09-03T13:08:46Z</time>
      </trkpt>
      <trkpt lat="44.90331" lon="6.79128">
        <ele>2087.3</ele>
        <time>2014-09-03T13:11:09Z</time>
      </trkpt>
      <trkpt lat="44.90322" lon="6.79104">
        <ele>2088</ele>
        <time>2014-09-03T13:11:23Z</time>
      </trkpt>
      <trkpt lat="44.90321" lon="6.79078">
        <ele>2089</ele>
        <time>2014-09-03T13:11:35Z</time>
      </trkpt>
      <trkpt lat="44.90331" lon="6.79056">
        <ele>2090.3</ele>
        <time>2014-09-03T13:11:49Z</time>
      </trkpt>
      <trkpt lat="44.90331" lon="6.7903">
        <ele>2092.3</ele>
        <time>2014-09-03T13:12:07Z</time>
      </trkpt>
      <trkpt lat="44.90318" lon="6.79012">
        <ele>2094.7</ele>
        <time>2014-09-03T13:12:22Z</time>
      </trkpt>
      <trkpt lat="44.90316" lon="6.78986">
        <ele>2097.8</ele>
        <time>2014-09-03T13:12:37Z</time>
      </trkpt>
      <trkpt lat="44.90334" lon="6.7898">
        <ele>2099.6</ele>
        <time>2014-09-03T13:12:51Z</time>
      </trkpt>
      <trkpt lat="44.90354" lon="6.7898">
        <ele>2100.8</ele>
        <time>2014-09-03T13:13:02Z</time>
      </trkpt>
      <trkpt lat="44.90369" lon="6.78994">
        <ele>2101.6</ele>
        <time>2014-09-03T13:13:12Z</time>
      </trkpt>
      <trkpt lat="44.90383" lon="6.7901">
        <ele>2102.3</ele>
        <time>2014-09-03T13:13:22Z</time>
      </trkpt>
      <trkpt lat="44.90398" lon="6.79026">
        <ele>2102.9</ele>
        <time>2014-09-03T13:13:29Z</time>
      </trkpt>
      <trkpt lat="44.9042" lon="6.79028">
        <ele>2103.6</ele>
        <time>2014-09-03T13:13:37Z</time>
      </trkpt>
      <trkpt lat="44.90438" lon="6.79021">
        <ele>2106.1</ele>
        <time>2014-09-03T13:13:40Z</time>
      </trkpt>
      <trkpt lat="44.90457" lon="6.79031">
        <ele>2106.3</ele>
        <time>2014-09-03T13:13:45Z</time>
      </trkpt>
      <trkpt lat="44.90475" lon="6.79032">
        <ele>2106.5</ele>
        <time>2014-09-03T13:13:52Z</time>
      </trkpt>
      <trkpt lat="44.90493" lon="6.79035">
        <ele>2106.3</ele>
        <time>2014-09-03T13:13:59Z</time>
      </trkpt>
      <trkpt lat="44.90508" lon="6.79057">
        <ele>2105.7</ele>
        <time>2014-09-03T13:14:06Z</time>
      </trkpt>
      <trkpt lat="44.90527" lon="6.79074">
        <ele>2104.2</ele>
        <time>2014-09-03T13:14:10Z</time>
      </trkpt>
      <trkpt lat="44.90548" lon="6.79083">
        <ele>2102.9</ele>
        <time>2014-09-03T13:14:13Z</time>
      </trkpt>
      <trkpt lat="44.90567" lon="6.79083">
        <ele>2102.7</ele>
        <time>2014-09-03T13:14:16Z</time>
      </trkpt>
      <trkpt lat="44.90586" lon="6.79078">
        <ele>2103.5</ele>
        <time>2014-09-03T13:14:24Z</time>
      </trkpt>
      <trkpt lat="44.90605" lon="6.79077">
        <ele>2104.9</ele>
        <time>2014-09-03T13:14:38Z</time>
      </trkpt>
      <trkpt lat="44.90624" lon="6.79077">
        <ele>2107.1</ele>
        <time>2014-09-03T13:14:53Z</time>
      </trkpt>
      <trkpt lat="44.90643" lon="6.79079">
        <ele>2110.3</ele>
        <time>2014-09-03T13:15:08Z</time>
      </trkpt>
      <trkpt lat="44.9066" lon="6.79071">
        <ele>2113.9</ele>
        <time>2014-09-03T13:15:23Z</time>
      </trkpt>
      <trkpt lat="44.9068" lon="6.79075">
        <ele>2115.1</ele>
        <time>2014-09-03T13:15:31Z</time>
      </trkpt>
      <trkpt lat="44.90699" lon="6.79076">
        <ele>2116.8</ele>
        <time>2014-09-03T13:15:43Z</time>
      </trkpt>
      <trkpt lat="44.90717" lon="6.79078">
        <ele>2118.1</ele>
        <time>2014-09-03T13:15:54Z</time>
      </trkpt>
      <trkpt lat="44.90736" lon="6.79082">
        <ele>2119.4</ele>
        <time>2014-09-03T13:16:06Z</time>
      </trkpt>
      <trkpt lat="44.90754" lon="6.79085">
        <ele>2121.2</ele>
        <time>2014-09-03T13:16:18Z</time>
      </trkpt>
      <trkpt lat="44.90775" lon="6.7908">
        <ele>2122.7</ele>
        <time>2014-09-03T13:16:26Z</time>
      </trkpt>
      <trkpt lat="44.90794" lon="6.79064">
        <ele>2123.5</ele>
        <time>2014-09-03T13:16:31Z</time>
      </trkpt>
      <trkpt lat="44.90808" lon="6.79046">
        <ele>2125.7</ele>
        <time>2014-09-03T13:16:37Z</time>
      </trkpt>
      <trkpt lat="44.90824" lon="6.79031">
        <ele>2126.8</ele>
        <time>2014-09-03T13:16:45Z</time>
      </trkpt>
      <trkpt lat="44.90842" lon="6.79019">
        <ele>2127.7</ele>
        <time>2014-09-03T13:16:53Z</time>
      </trkpt>
      <trkpt lat="44.90862" lon="6.79019">
        <ele>2128.5</ele>
        <time>2014-09-03T13:17:01Z</time>
      </trkpt>
      <trkpt lat="44.9088" lon="6.79019">
        <ele>2129.2</ele>
        <time>2014-09-03T13:17:09Z</time>
      </trkpt>
      <trkpt lat="44.90897" lon="6.79009">
        <ele>2130.8</ele>
        <time>2014-09-03T13:17:18Z</time>
      </trkpt>
      <trkpt lat="44.90915" lon="6.79004">
        <ele>2132.2</ele>
        <time>2014-09-03T13:17:26Z</time>
      </trkpt>
      <trkpt lat="44.90937" lon="6.78996">
        <ele>2137.2</ele>
        <time>2014-09-03T13:17:31Z</time>
      </trkpt>
      <trkpt lat="44.90955" lon="6.78991">
        <ele>2138.6</ele>
        <time>2014-09-03T13:17:34Z</time>
      </trkpt>
      <trkpt lat="44.90974" lon="6.78976">
        <ele>2139.1</ele>
        <time>2014-09-03T13:17:39Z</time>
      </trkpt>
      <trkpt lat="44.90991" lon="6.78964">
        <ele>2138.9</ele>
        <time>2014-09-03T13:17:46Z</time>
      </trkpt>
      <trkpt lat="44.91007" lon="6.78954">
        <ele>2137.2</ele>
        <time>2014-09-03T13:17:50Z</time>
      </trkpt>
      <trkpt lat="44.91025" lon="6.78944">
        <ele>2134.4</ele>
        <time>2014-09-03T13:17:53Z</time>
      </trkpt>
      <trkpt lat="44.91039" lon="6.78927">
        <ele>2134</ele>
        <time>2014-09-03T13:18:04Z</time>
      </trkpt>
      <trkpt lat="44.91049" lon="6.78905">
        <ele>2139.5</ele>
        <time>2014-09-03T13:19:50Z</time>
      </trkpt>
      <trkpt lat="44.91067" lon="6.78905">
        <ele>2142</ele>
        <time>2014-09-03T13:20:39Z</time>
      </trkpt>
      <trkpt lat="44.91087" lon="6.78907">
        <ele>2142.8</ele>
        <time>2014-09-03T13:21:20Z</time>
      </trkpt>
      <trkpt lat="44.91106" lon="6.78898">
        <ele>2143.5</ele>
        <time>2014-09-03T13:21:28Z</time>
      </trkpt>
      <trkpt lat="44.91125" lon="6.78902">
        <ele>2144.3</ele>
        <time>2014-09-03T13:21:36Z</time>
      </trkpt>
      <trkpt lat="44.91143" lon="6.78906">
        <ele>2145.1</ele>
        <time>2014-09-03T13:21:50Z</time>
      </trkpt>
      <trkpt lat="44.91164" lon="6.78912">
        <ele>2145.4</ele>
        <time>2014-09-03T13:21:58Z</time>
      </trkpt>
      <trkpt lat="44.91183" lon="6.78912">
        <ele>2145.4</ele>
        <time>2014-09-03T13:22:04Z</time>
      </trkpt>
      <trkpt lat="44.912" lon="6.7892">
        <ele>2145.8</ele>
        <time>2014-09-03T13:22:11Z</time>
      </trkpt>
      <trkpt lat="44.91215" lon="6.78936">
        <ele>2146.2</ele>
        <time>2014-09-03T13:22:17Z</time>
      </trkpt>
      <trkpt lat="44.91233" lon="6.78945">
        <ele>2146.3</ele>
        <time>2014-09-03T13:22:21Z</time>
      </trkpt>
      <trkpt lat="44.91249" lon="6.78956">
        <ele>2144.6</ele>
        <time>2014-09-03T13:22:25Z</time>
      </trkpt>
      <trkpt lat="44.91269" lon="6.78954">
        <ele>2142.9</ele>
        <time>2014-09-03T13:22:30Z</time>
      </trkpt>
      <trkpt lat="44.91275" lon="6.78927">
        <ele>2142.2</ele>
        <time>2014-09-03T13:22:35Z</time>
      </trkpt>
      <trkpt lat="44.91287" lon="6.78904">
        <ele>2137.6</ele>
        <time>2014-09-03T13:22:40Z</time>
      </trkpt>
      <trkpt lat="44.91305" lon="6.78887">
        <ele>2135.3</ele>
        <time>2014-09-03T13:22:44Z</time>
      </trkpt>
      <trkpt lat="44.91317" lon="6.78867">
        <ele>2134.8</ele>
        <time>2014-09-03T13:22:51Z</time>
      </trkpt>
      <trkpt lat="44.91331" lon="6.78848">
        <ele>2135.4</ele>
        <time>2014-09-03T13:23:05Z</time>
      </trkpt>
      <trkpt lat="44.91344" lon="6.78829">
        <ele>2137.3</ele>
        <time>2014-09-03T13:23:21Z</time>
      </trkpt>
      <trkpt lat="44.91357" lon="6.78811">
        <ele>2138.9</ele>
        <time>2014-09-03T13:23:35Z</time>
      </trkpt>
      <trkpt lat="44.9137" lon="6.7879">
        <ele>2140.8</ele>
        <time>2014-09-03T13:23:47Z</time>
      </trkpt>
      <trkpt lat="44.91379" lon="6.78764">
        <ele>2142.4</ele>
        <time>2014-09-03T13:23:51Z</time>
      </trkpt>
      <trkpt lat="44.91394" lon="6.78744">
        <ele>2142.7</ele>
        <time>2014-09-03T13:23:55Z</time>
      </trkpt>
      <trkpt lat="44.91412" lon="6.78736">
        <ele>2142.1</ele>
        <time>2014-09-03T13:23:59Z</time>
      </trkpt>
      <trkpt lat="44.9143" lon="6.78738">
        <ele>2142</ele>
        <time>2014-09-03T13:24:03Z</time>
      </trkpt>
      <trkpt lat="44.9145" lon="6.78734">
        <ele>2142.3</ele>
        <time>2014-09-03T13:24:07Z</time>
      </trkpt>
      <trkpt lat="44.91465" lon="6.78718">
        <ele>2141.5</ele>
        <time>2014-09-03T13:24:51Z</time>
      </trkpt>
      <trkpt lat="44.91474" lon="6.78694">
        <ele>2140.9</ele>
        <time>2014-09-03T13:25:08Z</time>
      </trkpt>
      <trkpt lat="44.91478" lon="6.78667">
        <ele>2140.3</ele>
        <time>2014-09-03T13:25:18Z</time>
      </trkpt>
      <trkpt lat="44.91486" lon="6.78642">
        <ele>2139.6</ele>
        <time>2014-09-03T13:25:29Z</time>
      </trkpt>
      <trkpt lat="44.91492" lon="6.78618">
        <ele>2139.1</ele>
        <time>2014-09-03T13:25:41Z</time>
      </trkpt>
      <trkpt lat="44.9149" lon="6.78644">
        <ele>2134.9</ele>
        <time>2014-09-03T13:28:57Z</time>
      </trkpt>
      <trkpt lat="44.91497" lon="6.78668">
        <ele>2135.1</ele>
        <time>2014-09-03T13:29:11Z</time>
      </trkpt>
      <trkpt lat="44.9151" lon="6.78687">
        <ele>2135.3</ele>
        <time>2014-09-03T13:29:25Z</time>
      </trkpt>
      <trkpt lat="44.91529" lon="6.78685">
        <ele>2136.6</ele>
        <time>2014-09-03T13:29:39Z</time>
      </trkpt>
      <trkpt lat="44.91545" lon="6.78672">
        <ele>2139.5</ele>
        <time>2014-09-03T13:29:54Z</time>
      </trkpt>
      <trkpt lat="44.91562" lon="6.78665">
        <ele>2142.2</ele>
        <time>2014-09-03T13:30:08Z</time>
      </trkpt>
      <trkpt lat="44.91577" lon="6.78649">
        <ele>2145.1</ele>
        <time>2014-09-03T13:30:20Z</time>
      </trkpt>
      <trkpt lat="44.91595" lon="6.78642">
        <ele>2148.6</ele>
        <time>2014-09-03T13:30:38Z</time>
      </trkpt>
      <trkpt lat="44.91609" lon="6.78625">
        <ele>2151.5</ele>
        <time>2014-09-03T13:30:53Z</time>
      </trkpt>
      <trkpt lat="44.91625" lon="6.7861">
        <ele>2153.8</ele>
        <time>2014-09-03T13:31:09Z</time>
      </trkpt>
      <trkpt lat="44.91641" lon="6.78596">
        <ele>2156</ele>
        <time>2014-09-03T13:31:23Z</time>
      </trkpt>
      <trkpt lat="44.91656" lon="6.78582">
        <ele>2159.5</ele>
        <time>2014-09-03T13:31:41Z</time>
      </trkpt>
      <trkpt lat="44.91671" lon="6.78566">
        <ele>2162.1</ele>
        <time>2014-09-03T13:31:58Z</time>
      </trkpt>
      <trkpt lat="44.91689" lon="6.78558">
        <ele>2164.6</ele>
        <time>2014-09-03T13:32:13Z</time>
      </trkpt>
      <trkpt lat="44.91708" lon="6.78557">
        <ele>2168.1</ele>
        <time>2014-09-03T13:32:28Z</time>
      </trkpt>
      <trkpt lat="44.91726" lon="6.78559">
        <ele>2170.7</ele>
        <time>2014-09-03T13:32:42Z</time>
      </trkpt>
      <trkpt lat="44.91744" lon="6.78562">
        <ele>2173.3</ele>
        <time>2014-09-03T13:32:58Z</time>
      </trkpt>
      <trkpt lat="44.91762" lon="6.78553">
        <ele>2179.2</ele>
        <time>2014-09-03T13:33:17Z</time>
      </trkpt>
      <trkpt lat="44.91777" lon="6.7854">
        <ele>2184.1</ele>
        <time>2014-09-03T13:33:35Z</time>
      </trkpt>
      <trkpt lat="44.91796" lon="6.78538">
        <ele>2187.9</ele>
        <time>2014-09-03T13:33:51Z</time>
      </trkpt>
      <trkpt lat="44.91814" lon="6.78535">
        <ele>2192.8</ele>
        <time>2014-09-03T13:34:06Z</time>
      </trkpt>
      <trkpt lat="44.91833" lon="6.78529">
        <ele>2195.3</ele>
        <time>2014-09-03T13:34:16Z</time>
      </trkpt>
      <trkpt lat="44.91852" lon="6.78521">
        <ele>2196.9</ele>
        <time>2014-09-03T13:34:24Z</time>
      </trkpt>
      <trkpt lat="44.91869" lon="6.78514">
        <ele>2198</ele>
        <time>2014-09-03T13:34:31Z</time>
      </trkpt>
      <trkpt lat="44.91889" lon="6.78506">
        <ele>2199.8</ele>
        <time>2014-09-03T13:34:39Z</time>
      </trkpt>
      <trkpt lat="44.91907" lon="6.78492">
        <ele>2202.5</ele>
        <time>2014-09-03T13:34:43Z</time>
      </trkpt>
      <trkpt lat="44.91923" lon="6.78477">
        <ele>2203.5</ele>
        <time>2014-09-03T13:34:49Z</time>
      </trkpt>
      <trkpt lat="44.91939" lon="6.78462">
        <ele>2204.7</ele>
        <time>2014-09-03T13:34:54Z</time>
      </trkpt>
      <trkpt lat="44.91957" lon="6.78455">
        <ele>2206</ele>
        <time>2014-09-03T13:34:59Z</time>
      </trkpt>
      <trkpt lat="44.91976" lon="6.78453">
        <ele>2205.7</ele>
        <time>2014-09-03T13:35:05Z</time>
      </trkpt>
      <trkpt lat="44.91996" lon="6.78441">
        <ele>2204.8</ele>
        <time>2014-09-03T13:35:10Z</time>
      </trkpt>
      <trkpt lat="44.92013" lon="6.78423">
        <ele>2204</ele>
        <time>2014-09-03T13:35:14Z</time>
      </trkpt>
      <trkpt lat="44.92027" lon="6.78398">
        <ele>2201.6</ele>
        <time>2014-09-03T13:35:18Z</time>
      </trkpt>
      <trkpt lat="44.92042" lon="6.78382">
        <ele>2199.6</ele>
        <time>2014-09-03T13:35:23Z</time>
      </trkpt>
      <trkpt lat="44.9206" lon="6.78373">
        <ele>2199.9</ele>
        <time>2014-09-03T13:35:31Z</time>
      </trkpt>
      <trkpt lat="44.92078" lon="6.78362">
        <ele>2201.2</ele>
        <time>2014-09-03T13:35:45Z</time>
      </trkpt>
      <trkpt lat="44.92096" lon="6.7836">
        <ele>2202.4</ele>
        <time>2014-09-03T13:36:01Z</time>
      </trkpt>
      <trkpt lat="44.92114" lon="6.78358">
        <ele>2203.9</ele>
        <time>2014-09-03T13:36:16Z</time>
      </trkpt>
      <trkpt lat="44.9213" lon="6.78341">
        <ele>2205.1</ele>
        <time>2014-09-03T13:36:25Z</time>
      </trkpt>
      <trkpt lat="44.92141" lon="6.78321">
        <ele>2206.4</ele>
        <time>2014-09-03T13:36:38Z</time>
      </trkpt>
      <trkpt lat="44.92159" lon="6.78316">
        <ele>2207.5</ele>
        <time>2014-09-03T13:36:49Z</time>
      </trkpt>
      <trkpt lat="44.92177" lon="6.78325">
        <ele>2208.2</ele>
        <time>2014-09-03T13:37:01Z</time>
      </trkpt>
      <trkpt lat="44.92195" lon="6.78328">
        <ele>2209.1</ele>
        <time>2014-09-03T13:37:14Z</time>
      </trkpt>
      <trkpt lat="44.92213" lon="6.78334">
        <ele>2210.3</ele>
        <time>2014-09-03T13:37:28Z</time>
      </trkpt>
      <trkpt lat="44.92231" lon="6.78328">
        <ele>2213.3</ele>
        <time>2014-09-03T13:37:45Z</time>
      </trkpt>
      <trkpt lat="44.92235" lon="6.78303">
        <ele>2216.2</ele>
        <time>2014-09-03T13:38:00Z</time>
      </trkpt>
      <trkpt lat="44.92249" lon="6.78285">
        <ele>2219</ele>
        <time>2014-09-03T13:44:33Z</time>
      </trkpt>
      <trkpt lat="44.92241" lon="6.78261">
        <ele>2221.6</ele>
        <time>2014-09-03T13:44:52Z</time>
      </trkpt>
      <trkpt lat="44.92245" lon="6.78236">
        <ele>2224</ele>
        <time>2014-09-03T13:45:08Z</time>
      </trkpt>
      <trkpt lat="44.92256" lon="6.78215">
        <ele>2226.6</ele>
        <time>2014-09-03T13:45:23Z</time>
      </trkpt>
      <trkpt lat="44.92255" lon="6.78189">
        <ele>2229.7</ele>
        <time>2014-09-03T13:45:38Z</time>
      </trkpt>
      <trkpt lat="44.92252" lon="6.78163">
        <ele>2232.5</ele>
        <time>2014-09-03T13:45:53Z</time>
      </trkpt>
      <trkpt lat="44.92254" lon="6.78136">
        <ele>2236</ele>
        <time>2014-09-03T13:46:10Z</time>
      </trkpt>
      <trkpt lat="44.92263" lon="6.78113">
        <ele>2239.1</ele>
        <time>2014-09-03T13:46:24Z</time>
      </trkpt>
      <trkpt lat="44.92272" lon="6.78089">
        <ele>2241.9</ele>
        <time>2014-09-03T13:46:38Z</time>
      </trkpt>
      <trkpt lat="44.92285" lon="6.78072">
        <ele>2244.7</ele>
        <time>2014-09-03T13:46:53Z</time>
      </trkpt>
      <trkpt lat="44.92301" lon="6.78082">
        <ele>2246.7</ele>
        <time>2014-09-03T13:47:08Z</time>
      </trkpt>
      <trkpt lat="44.9232" lon="6.78085">
        <ele>2249.6</ele>
        <time>2014-09-03T13:47:25Z</time>
      </trkpt>
      <trkpt lat="44.92339" lon="6.78087">
        <ele>2253.1</ele>
        <time>2014-09-03T13:47:40Z</time>
      </trkpt>
      <trkpt lat="44.92356" lon="6.78095">
        <ele>2260.1</ele>
        <time>2014-09-03T13:48:22Z</time>
      </trkpt>
      <trkpt lat="44.92375" lon="6.78096">
        <ele>2266.7</ele>
        <time>2014-09-03T13:48:46Z</time>
      </trkpt>
      <trkpt lat="44.92394" lon="6.78098">
        <ele>2271.9</ele>
        <time>2014-09-03T13:49:09Z</time>
      </trkpt>
      <trkpt lat="44.92412" lon="6.78093">
        <ele>2275.7</ele>
        <time>2014-09-03T13:49:23Z</time>
      </trkpt>
      <trkpt lat="44.9243" lon="6.78091">
        <ele>2279.6</ele>
        <time>2014-09-03T13:49:37Z</time>
      </trkpt>
      <trkpt lat="44.9245" lon="6.78083">
        <ele>2291.3</ele>
        <time>2014-09-03T13:54:25Z</time>
      </trkpt>
      <trkpt lat="44.92469" lon="6.78071">
        <ele>2292.3</ele>
        <time>2014-09-03T13:54:31Z</time>
      </trkpt>
      <trkpt lat="44.92489" lon="6.78058">
        <ele>2292.5</ele>
        <time>2014-09-03T13:54:56Z</time>
      </trkpt>
      <trkpt lat="44.92509" lon="6.78045">
        <ele>2292.6</ele>
        <time>2014-09-03T13:55:00Z</time>
      </trkpt>
      <trkpt lat="44.92528" lon="6.78035">
        <ele>2292.5</ele>
        <time>2014-09-03T13:55:05Z</time>
      </trkpt>
      <trkpt lat="44.92547" lon="6.78027">
        <ele>2292.5</ele>
        <time>2014-09-03T13:55:13Z</time>
      </trkpt>
      <trkpt lat="44.92567" lon="6.7802">
        <ele>2292.6</ele>
        <time>2014-09-03T13:55:20Z</time>
      </trkpt>
      <trkpt lat="44.92585" lon="6.78016">
        <ele>2292.6</ele>
        <time>2014-09-03T13:55:27Z</time>
      </trkpt>
      <trkpt lat="44.92604" lon="6.78012">
        <ele>2293</ele>
        <time>2014-09-03T13:55:38Z</time>
      </trkpt>
      <trkpt lat="44.92623" lon="6.78007">
        <ele>2293.1</ele>
        <time>2014-09-03T13:55:52Z</time>
      </trkpt>
      <trkpt lat="44.92641" lon="6.78001">
        <ele>2293.1</ele>
        <time>2014-09-03T13:56:03Z</time>
      </trkpt>
      <trkpt lat="44.92659" lon="6.77997">
        <ele>2294.7</ele>
        <time>2014-09-03T13:56:16Z</time>
      </trkpt>
      <trkpt lat="44.92679" lon="6.77995">
        <ele>2296.1</ele>
        <time>2014-09-03T13:56:28Z</time>
      </trkpt>
      <trkpt lat="44.92695" lon="6.77982">
        <ele>2297.6</ele>
        <time>2014-09-03T13:56:39Z</time>
      </trkpt>
      <trkpt lat="44.92712" lon="6.77973">
        <ele>2299</ele>
        <time>2014-09-03T13:56:51Z</time>
      </trkpt>
      <trkpt lat="44.9273" lon="6.77967">
        <ele>2299.2</ele>
        <time>2014-09-03T13:57:03Z</time>
      </trkpt>
      <trkpt lat="44.92748" lon="6.77964">
        <ele>2300.5</ele>
        <time>2014-09-03T13:57:14Z</time>
      </trkpt>
      <trkpt lat="44.92768" lon="6.77959">
        <ele>2301.9</ele>
        <time>2014-09-03T13:57:25Z</time>
      </trkpt>
      <trkpt lat="44.92787" lon="6.7796">
        <ele>2303.6</ele>
        <time>2014-09-03T13:57:35Z</time>
      </trkpt>
      <trkpt lat="44.92803" lon="6.77949">
        <ele>2304.8</ele>
        <time>2014-09-03T13:57:43Z</time>
      </trkpt>
      <trkpt lat="44.92822" lon="6.7794">
        <ele>2306.6</ele>
        <time>2014-09-03T13:57:53Z</time>
      </trkpt>
      <trkpt lat="44.92841" lon="6.77934">
        <ele>2307.9</ele>
        <time>2014-09-03T13:58:00Z</time>
      </trkpt>
      <trkpt lat="44.9286" lon="6.77929">
        <ele>2308.8</ele>
        <time>2014-09-03T13:58:07Z</time>
      </trkpt>
      <trkpt lat="44.9288" lon="6.77929">
        <ele>2309.3</ele>
        <time>2014-09-03T13:58:13Z</time>
      </trkpt>
      <trkpt lat="44.92898" lon="6.77931">
        <ele>2309.9</ele>
        <time>2014-09-03T13:58:18Z</time>
      </trkpt>
      <trkpt lat="44.92915" lon="6.77942">
        <ele>2310.8</ele>
        <time>2014-09-03T13:58:24Z</time>
      </trkpt>
      <trkpt lat="44.92935" lon="6.77936">
        <ele>2312.8</ele>
        <time>2014-09-03T13:58:53Z</time>
      </trkpt>
      <trkpt lat="44.92949" lon="6.77916">
        <ele>2313.9</ele>
        <time>2014-09-03T13:59:00Z</time>
      </trkpt>
      <trkpt lat="44.9296" lon="6.77893">
        <ele>2314.8</ele>
        <time>2014-09-03T13:59:08Z</time>
      </trkpt>
      <trkpt lat="44.9297" lon="6.7787">
        <ele>2315.5</ele>
        <time>2014-09-03T13:59:15Z</time>
      </trkpt>
      <trkpt lat="44.92982" lon="6.77848">
        <ele>2316.2</ele>
        <time>2014-09-03T13:59:24Z</time>
      </trkpt>
      <trkpt lat="44.92998" lon="6.77832">
        <ele>2316.7</ele>
        <time>2014-09-03T13:59:34Z</time>
      </trkpt>
      <trkpt lat="44.93011" lon="6.7781">
        <ele>2317.3</ele>
        <time>2014-09-03T13:59:42Z</time>
      </trkpt>
      <trkpt lat="44.93024" lon="6.77786">
        <ele>2318.3</ele>
        <time>2014-09-03T13:59:54Z</time>
      </trkpt>
      <trkpt lat="44.9304" lon="6.77765">
        <ele>2317.8</ele>
        <time>2014-09-03T13:59:58Z</time>
      </trkpt>
      <trkpt lat="44.9304" lon="6.77736">
        <ele>2316.4</ele>
        <time>2014-09-03T14:00:07Z</time>
      </trkpt>
      <trkpt lat="44.93044" lon="6.77709">
        <ele>2314.9</ele>
        <time>2014-09-03T14:00:16Z</time>
      </trkpt>
      <trkpt lat="44.93048" lon="6.77684">
        <ele>2311.9</ele>
        <time>2014-09-03T14:00:34Z</time>
      </trkpt>
      <trkpt lat="44.93049" lon="6.77659">
        <ele>2306.2</ele>
        <time>2014-09-03T14:01:52Z</time>
      </trkpt>
      <trkpt lat="44.93062" lon="6.77639">
        <ele>2304.7</ele>
        <time>2014-09-03T14:01:59Z</time>
      </trkpt>
      <trkpt lat="44.93062" lon="6.77613">
        <ele>2302.1</ele>
        <time>2014-09-03T14:02:08Z</time>
      </trkpt>
      <trkpt lat="44.93066" lon="6.77588">
        <ele>2299.5</ele>
        <time>2014-09-03T14:02:15Z</time>
      </trkpt>
      <trkpt lat="44.93071" lon="6.77613">
        <ele>2292.3</ele>
        <time>2014-09-03T14:02:42Z</time>
      </trkpt>
      <trkpt lat="44.93083" lon="6.77591">
        <ele>2285.3</ele>
        <time>2014-09-03T14:02:58Z</time>
      </trkpt>
      <trkpt lat="44.93086" lon="6.77564">
        <ele>2282.1</ele>
        <time>2014-09-03T14:03:04Z</time>
      </trkpt>
      <trkpt lat="44.93102" lon="6.77543">
        <ele>2270.7</ele>
        <time>2014-09-03T14:03:08Z</time>
      </trkpt>
      <trkpt lat="44.93105" lon="6.7757">
        <ele>2251.7</ele>
        <time>2014-09-03T14:03:18Z</time>
      </trkpt>
      <trkpt lat="44.93123" lon="6.77554">
        <ele>2244</ele>
        <time>2014-09-03T14:03:27Z</time>
      </trkpt>
      <trkpt lat="44.93125" lon="6.77526">
        <ele>2237.2</ele>
        <time>2014-09-03T14:03:30Z</time>
      </trkpt>
      <trkpt lat="44.93133" lon="6.77502">
        <ele>2231.6</ele>
        <time>2014-09-03T14:03:34Z</time>
      </trkpt>
      <trkpt lat="44.93143" lon="6.77478">
        <ele>2227.9</ele>
        <time>2014-09-03T14:03:50Z</time>
      </trkpt>
      <trkpt lat="44.93158" lon="6.77459">
        <ele>2225</ele>
        <time>2014-09-03T14:03:56Z</time>
      </trkpt>
      <trkpt lat="44.93169" lon="6.77438">
        <ele>2219.5</ele>
        <time>2014-09-03T14:03:59Z</time>
      </trkpt>
      <trkpt lat="44.93181" lon="6.7742">
        <ele>2214.9</ele>
        <time>2014-09-03T14:04:02Z</time>
      </trkpt>
      <trkpt lat="44.93174" lon="6.77447">
        <ele>2209.8</ele>
        <time>2014-09-03T14:04:37Z</time>
      </trkpt>
      <trkpt lat="44.93193" lon="6.77444">
        <ele>2200.8</ele>
        <time>2014-09-03T14:04:49Z</time>
      </trkpt>
      <trkpt lat="44.93188" lon="6.77474">
        <ele>2195.3</ele>
        <time>2014-09-03T14:04:56Z</time>
      </trkpt>
      <trkpt lat="44.93175" lon="6.77497">
        <ele>2192.6</ele>
        <time>2014-09-03T14:05:04Z</time>
      </trkpt>
      <trkpt lat="44.93167" lon="6.77523">
        <ele>2190.3</ele>
        <time>2014-09-03T14:05:09Z</time>
      </trkpt>
      <trkpt lat="44.93167" lon="6.77552">
        <ele>2185.7</ele>
        <time>2014-09-03T14:05:13Z</time>
      </trkpt>
      <trkpt lat="44.93174" lon="6.77577">
        <ele>2180.9</ele>
        <time>2014-09-03T14:05:17Z</time>
      </trkpt>
      <trkpt lat="44.93171" lon="6.77551">
        <ele>2176.5</ele>
        <time>2014-09-03T14:05:46Z</time>
      </trkpt>
      <trkpt lat="44.9318" lon="6.77522">
        <ele>2174.6</ele>
        <time>2014-09-03T14:05:52Z</time>
      </trkpt>
      <trkpt lat="44.93197" lon="6.7751">
        <ele>2173.8</ele>
        <time>2014-09-03T14:05:55Z</time>
      </trkpt>
      <trkpt lat="44.93212" lon="6.7749">
        <ele>2172.1</ele>
        <time>2014-09-03T14:05:59Z</time>
      </trkpt>
      <trkpt lat="44.93229" lon="6.77478">
        <ele>2169.3</ele>
        <time>2014-09-03T14:06:06Z</time>
      </trkpt>
      <trkpt lat="44.9323" lon="6.77452">
        <ele>2166.9</ele>
        <time>2014-09-03T14:06:12Z</time>
      </trkpt>
      <trkpt lat="44.93242" lon="6.77426">
        <ele>2160.4</ele>
        <time>2014-09-03T14:06:16Z</time>
      </trkpt>
      <trkpt lat="44.93246" lon="6.774">
        <ele>2157.8</ele>
        <time>2014-09-03T14:06:21Z</time>
      </trkpt>
      <trkpt lat="44.93257" lon="6.77425">
        <ele>2148.4</ele>
        <time>2014-09-03T14:07:25Z</time>
      </trkpt>
      <trkpt lat="44.93257" lon="6.77394">
        <ele>2141.5</ele>
        <time>2014-09-03T14:07:32Z</time>
      </trkpt>
      <trkpt lat="44.93268" lon="6.77372">
        <ele>2136.2</ele>
        <time>2014-09-03T14:07:47Z</time>
      </trkpt>
      <trkpt lat="44.93272" lon="6.77346">
        <ele>2128.8</ele>
        <time>2014-09-03T14:07:50Z</time>
      </trkpt>
      <trkpt lat="44.93278" lon="6.7732">
        <ele>2117.7</ele>
        <time>2014-09-03T14:08:03Z</time>
      </trkpt>
      <trkpt lat="44.93286" lon="6.77294">
        <ele>2110.4</ele>
        <time>2014-09-03T14:08:07Z</time>
      </trkpt>
      <trkpt lat="44.93299" lon="6.77271">
        <ele>2103.6</ele>
        <time>2014-09-03T14:08:20Z</time>
      </trkpt>
      <trkpt lat="44.93301" lon="6.77233">
        <ele>2097.8</ele>
        <time>2014-09-03T14:08:23Z</time>
      </trkpt>
      <trkpt lat="44.93309" lon="6.77209">
        <ele>2094.1</ele>
        <time>2014-09-03T14:08:27Z</time>
      </trkpt>
      <trkpt lat="44.93329" lon="6.77213">
        <ele>2087.8</ele>
        <time>2014-09-03T14:08:31Z</time>
      </trkpt>
      <trkpt lat="44.93338" lon="6.77243">
        <ele>2079.9</ele>
        <time>2014-09-03T14:08:35Z</time>
      </trkpt>
      <trkpt lat="44.93347" lon="6.77267">
        <ele>2076.6</ele>
        <time>2014-09-03T14:09:00Z</time>
      </trkpt>
      <trkpt lat="44.93359" lon="6.77295">
        <ele>2075.7</ele>
        <time>2014-09-03T14:09:05Z</time>
      </trkpt>
      <trkpt lat="44.93363" lon="6.77323">
        <ele>2072.5</ele>
        <time>2014-09-03T14:09:08Z</time>
      </trkpt>
      <trkpt lat="44.93372" lon="6.77348">
        <ele>2068.8</ele>
        <time>2014-09-03T14:09:12Z</time>
      </trkpt>
      <trkpt lat="44.93379" lon="6.77378">
        <ele>2066.4</ele>
        <time>2014-09-03T14:09:17Z</time>
      </trkpt>
      <trkpt lat="44.93402" lon="6.77388">
        <ele>2063.4</ele>
        <time>2014-09-03T14:09:25Z</time>
      </trkpt>
      <trkpt lat="44.93425" lon="6.77381">
        <ele>2060</ele>
        <time>2014-09-03T14:09:29Z</time>
      </trkpt>
      <trkpt lat="44.93443" lon="6.77371">
        <ele>2057.9</ele>
        <time>2014-09-03T14:09:32Z</time>
      </trkpt>
      <trkpt lat="44.93443" lon="6.77404">
        <ele>2050.3</ele>
        <time>2014-09-03T14:09:41Z</time>
      </trkpt>
      <trkpt lat="44.93441" lon="6.77435">
        <ele>2044.8</ele>
        <time>2014-09-03T14:09:44Z</time>
      </trkpt>
      <trkpt lat="44.93432" lon="6.77459">
        <ele>2041.4</ele>
        <time>2014-09-03T14:09:48Z</time>
      </trkpt>
      <trkpt lat="44.93444" lon="6.77436">
        <ele>2036.1</ele>
        <time>2014-09-03T14:09:53Z</time>
      </trkpt>
      <trkpt lat="44.93461" lon="6.77415">
        <ele>2030.2</ele>
        <time>2014-09-03T14:09:56Z</time>
      </trkpt>
      <trkpt lat="44.93479" lon="6.77396">
        <ele>2024.4</ele>
        <time>2014-09-03T14:09:59Z</time>
      </trkpt>
      <trkpt lat="44.93483" lon="6.77421">
        <ele>2015.2</ele>
        <time>2014-09-03T14:10:07Z</time>
      </trkpt>
      <trkpt lat="44.93502" lon="6.77426">
        <ele>2010.4</ele>
        <time>2014-09-03T14:10:20Z</time>
      </trkpt>
      <trkpt lat="44.93519" lon="6.77415">
        <ele>2009.7</ele>
        <time>2014-09-03T14:10:24Z</time>
      </trkpt>
      <trkpt lat="44.93537" lon="6.77401">
        <ele>2004.4</ele>
        <time>2014-09-03T14:10:28Z</time>
      </trkpt>
      <trkpt lat="44.93555" lon="6.77393">
        <ele>2001.7</ele>
        <time>2014-09-03T14:10:33Z</time>
      </trkpt>
      <trkpt lat="44.93574" lon="6.77391">
        <ele>2000.3</ele>
        <time>2014-09-03T14:10:38Z</time>
      </trkpt>
      <trkpt lat="44.93594" lon="6.77384">
        <ele>1998.5</ele>
        <time>2014-09-03T14:10:44Z</time>
      </trkpt>
      <trkpt lat="44.93604" lon="6.77355">
        <ele>1994.1</ele>
        <time>2014-09-03T14:10:50Z</time>
      </trkpt>
      <trkpt lat="44.93611" lon="6.77328">
        <ele>1986.6</ele>
        <time>2014-09-03T14:10:53Z</time>
      </trkpt>
      <trkpt lat="44.93618" lon="6.77299">
        <ele>1981.4</ele>
        <time>2014-09-03T14:10:56Z</time>
      </trkpt>
      <trkpt lat="44.9363" lon="6.77275">
        <ele>1976.4</ele>
        <time>2014-09-03T14:10:59Z</time>
      </trkpt>
      <trkpt lat="44.9364" lon="6.77248">
        <ele>1970.8</ele>
        <time>2014-09-03T14:11:02Z</time>
      </trkpt>
      <trkpt lat="44.93657" lon="6.77217">
        <ele>1965.9</ele>
        <time>2014-09-03T14:11:05Z</time>
      </trkpt>
      <trkpt lat="44.9367" lon="6.77194">
        <ele>1961.6</ele>
        <time>2014-09-03T14:11:08Z</time>
      </trkpt>
      <trkpt lat="44.93677" lon="6.77169">
        <ele>1958</ele>
        <time>2014-09-03T14:11:14Z</time>
      </trkpt>
      <trkpt lat="44.93663" lon="6.77151">
        <ele>1957</ele>
        <time>2014-09-03T14:13:52Z</time>
      </trkpt>
      <trkpt lat="44.93646" lon="6.77138">
        <ele>1955.8</ele>
        <time>2014-09-03T14:14:03Z</time>
      </trkpt>
      <trkpt lat="44.93628" lon="6.77128">
        <ele>1955.6</ele>
        <time>2014-09-03T14:14:17Z</time>
      </trkpt>
      <trkpt lat="44.93611" lon="6.77121">
        <ele>1956</ele>
        <time>2014-09-03T14:14:32Z</time>
      </trkpt>
      <trkpt lat="44.93593" lon="6.77118">
        <ele>1956.2</ele>
        <time>2014-09-03T14:14:46Z</time>
      </trkpt>
      <trkpt lat="44.93575" lon="6.77123">
        <ele>1956.3</ele>
        <time>2014-09-03T14:14:59Z</time>
      </trkpt>
      <trkpt lat="44.93556" lon="6.77123">
        <ele>1957.7</ele>
        <time>2014-09-03T14:15:14Z</time>
      </trkpt>
      <trkpt lat="44.93537" lon="6.77126">
        <ele>1959.1</ele>
        <time>2014-09-03T14:15:27Z</time>
      </trkpt>
      <trkpt lat="44.93518" lon="6.77125">
        <ele>1964.8</ele>
        <time>2014-09-03T14:15:54Z</time>
      </trkpt>
      <trkpt lat="44.93501" lon="6.77115">
        <ele>1971.8</ele>
        <time>2014-09-03T14:16:19Z</time>
      </trkpt>
      <trkpt lat="44.93482" lon="6.77111">
        <ele>1976.3</ele>
        <time>2014-09-03T14:16:41Z</time>
      </trkpt>
      <trkpt lat="44.93465" lon="6.771">
        <ele>1978.1</ele>
        <time>2014-09-03T14:16:53Z</time>
      </trkpt>
      <trkpt lat="44.93448" lon="6.77086">
        <ele>1979.6</ele>
        <time>2014-09-03T14:17:03Z</time>
      </trkpt>
      <trkpt lat="44.93431" lon="6.77076">
        <ele>1980.3</ele>
        <time>2014-09-03T14:17:12Z</time>
      </trkpt>
      <trkpt lat="44.93414" lon="6.77065">
        <ele>1981.3</ele>
        <time>2014-09-03T14:17:21Z</time>
      </trkpt>
      <trkpt lat="44.93399" lon="6.7705">
        <ele>1982.3</ele>
        <time>2014-09-03T14:17:37Z</time>
      </trkpt>
      <trkpt lat="44.93382" lon="6.77042">
        <ele>1984.4</ele>
        <time>2014-09-03T14:17:53Z</time>
      </trkpt>
      <trkpt lat="44.93364" lon="6.77039">
        <ele>1986.9</ele>
        <time>2014-09-03T14:18:09Z</time>
      </trkpt>
      <trkpt lat="44.93346" lon="6.77031">
        <ele>1988.9</ele>
        <time>2014-09-03T14:18:25Z</time>
      </trkpt>
      <trkpt lat="44.93329" lon="6.77025">
        <ele>1991.8</ele>
        <time>2014-09-03T14:18:42Z</time>
      </trkpt>
      <trkpt lat="44.9331" lon="6.77021">
        <ele>1995.1</ele>
        <time>2014-09-03T14:18:58Z</time>
      </trkpt>
      <trkpt lat="44.93291" lon="6.77022">
        <ele>1998.6</ele>
        <time>2014-09-03T14:19:16Z</time>
      </trkpt>
      <trkpt lat="44.93274" lon="6.7703">
        <ele>2001.4</ele>
        <time>2014-09-03T14:19:32Z</time>
      </trkpt>
      <trkpt lat="44.93256" lon="6.7703">
        <ele>2003.5</ele>
        <time>2014-09-03T14:19:45Z</time>
      </trkpt>
      <trkpt lat="44.93237" lon="6.77032">
        <ele>2005.8</ele>
        <time>2014-09-03T14:19:57Z</time>
      </trkpt>
      <trkpt lat="44.93219" lon="6.77032">
        <ele>2007.6</ele>
        <time>2014-09-03T14:20:08Z</time>
      </trkpt>
      <trkpt lat="44.93203" lon="6.77018">
        <ele>2009.2</ele>
        <time>2014-09-03T14:20:15Z</time>
      </trkpt>
      <trkpt lat="44.93189" lon="6.76998">
        <ele>2010.5</ele>
        <time>2014-09-03T14:20:23Z</time>
      </trkpt>
      <trkpt lat="44.93178" lon="6.76978">
        <ele>2010.7</ele>
        <time>2014-09-03T14:20:29Z</time>
      </trkpt>
      <trkpt lat="44.93164" lon="6.76959">
        <ele>2011</ele>
        <time>2014-09-03T14:20:38Z</time>
      </trkpt>
      <trkpt lat="44.93153" lon="6.76938">
        <ele>2011.4</ele>
        <time>2014-09-03T14:20:47Z</time>
      </trkpt>
      <trkpt lat="44.93141" lon="6.76917">
        <ele>2013.2</ele>
        <time>2014-09-03T14:20:59Z</time>
      </trkpt>
      <trkpt lat="44.93128" lon="6.76898">
        <ele>2015.4</ele>
        <time>2014-09-03T14:21:17Z</time>
      </trkpt>
      <trkpt lat="44.93117" lon="6.76877">
        <ele>2022.1</ele>
        <time>2014-09-03T14:21:47Z</time>
      </trkpt>
      <trkpt lat="44.93101" lon="6.76865">
        <ele>2027.3</ele>
        <time>2014-09-03T14:22:12Z</time>
      </trkpt>
      <trkpt lat="44.93083" lon="6.76858">
        <ele>2031.5</ele>
        <time>2014-09-03T14:22:35Z</time>
      </trkpt>
      <trkpt lat="44.93066" lon="6.7685">
        <ele>2035.8</ele>
        <time>2014-09-03T14:22:57Z</time>
      </trkpt>
      <trkpt lat="44.93045" lon="6.76851">
        <ele>2038.3</ele>
        <time>2014-09-03T14:23:24Z</time>
      </trkpt>
      <trkpt lat="44.93024" lon="6.76858">
        <ele>2040.3</ele>
        <time>2014-09-03T14:23:28Z</time>
      </trkpt>
      <trkpt lat="44.93001" lon="6.76858">
        <ele>2041.6</ele>
        <time>2014-09-03T14:23:31Z</time>
      </trkpt>
      <trkpt lat="44.92982" lon="6.76853">
        <ele>2041.7</ele>
        <time>2014-09-03T14:23:34Z</time>
      </trkpt>
      <trkpt lat="44.92961" lon="6.76848">
        <ele>2041.5</ele>
        <time>2014-09-03T14:23:38Z</time>
      </trkpt>
      <trkpt lat="44.92943" lon="6.76839">
        <ele>2041.8</ele>
        <time>2014-09-03T14:23:46Z</time>
      </trkpt>
      <trkpt lat="44.92927" lon="6.76827">
        <ele>2041.6</ele>
        <time>2014-09-03T14:23:55Z</time>
      </trkpt>
      <trkpt lat="44.92913" lon="6.7681">
        <ele>2041.3</ele>
        <time>2014-09-03T14:24:03Z</time>
      </trkpt>
      <trkpt lat="44.929" lon="6.76791">
        <ele>2041.4</ele>
        <time>2014-09-03T14:24:12Z</time>
      </trkpt>
      <trkpt lat="44.92883" lon="6.76777">
        <ele>2042</ele>
        <time>2014-09-03T14:24:21Z</time>
      </trkpt>
      <trkpt lat="44.92867" lon="6.76763">
        <ele>2042.4</ele>
        <time>2014-09-03T14:24:29Z</time>
      </trkpt>
      <trkpt lat="44.92848" lon="6.76755">
        <ele>2043.3</ele>
        <time>2014-09-03T14:24:38Z</time>
      </trkpt>
      <trkpt lat="44.92829" lon="6.76749">
        <ele>2044</ele>
        <time>2014-09-03T14:24:45Z</time>
      </trkpt>
      <trkpt lat="44.9281" lon="6.76745">
        <ele>2045</ele>
        <time>2014-09-03T14:24:53Z</time>
      </trkpt>
      <trkpt lat="44.92792" lon="6.76737">
        <ele>2046.3</ele>
        <time>2014-09-03T14:25:01Z</time>
      </trkpt>
      <trkpt lat="44.92774" lon="6.7673">
        <ele>2048.1</ele>
        <time>2014-09-03T14:25:11Z</time>
      </trkpt>
      <trkpt lat="44.92754" lon="6.76728">
        <ele>2049.9</ele>
        <time>2014-09-03T14:25:20Z</time>
      </trkpt>
      <trkpt lat="44.92735" lon="6.76728">
        <ele>2051.1</ele>
        <time>2014-09-03T14:25:28Z</time>
      </trkpt>
      <trkpt lat="44.92716" lon="6.76731">
        <ele>2052.4</ele>
        <time>2014-09-03T14:25:36Z</time>
      </trkpt>
      <trkpt lat="44.92696" lon="6.76735">
        <ele>2053.5</ele>
        <time>2014-09-03T14:25:43Z</time>
      </trkpt>
      <trkpt lat="44.92679" lon="6.7674">
        <ele>2054.4</ele>
        <time>2014-09-03T14:25:49Z</time>
      </trkpt>
      <trkpt lat="44.92661" lon="6.76745">
        <ele>2055.1</ele>
        <time>2014-09-03T14:25:55Z</time>
      </trkpt>
      <trkpt lat="44.92641" lon="6.76744">
        <ele>2055.7</ele>
        <time>2014-09-03T14:26:00Z</time>
      </trkpt>
      <trkpt lat="44.92623" lon="6.76735">
        <ele>2056.3</ele>
        <time>2014-09-03T14:26:05Z</time>
      </trkpt>
      <trkpt lat="44.92605" lon="6.76726">
        <ele>2056.7</ele>
        <time>2014-09-03T14:26:10Z</time>
      </trkpt>
      <trkpt lat="44.92586" lon="6.76724">
        <ele>2057.7</ele>
        <time>2014-09-03T14:26:16Z</time>
      </trkpt>
      <trkpt lat="44.92568" lon="6.76728">
        <ele>2061.5</ele>
        <time>2014-09-03T14:26:20Z</time>
      </trkpt>
      <trkpt lat="44.92546" lon="6.76731">
        <ele>2061.8</ele>
        <time>2014-09-03T14:26:25Z</time>
      </trkpt>
      <trkpt lat="44.92528" lon="6.76731">
        <ele>2061.6</ele>
        <time>2014-09-03T14:26:28Z</time>
      </trkpt>
      <trkpt lat="44.9251" lon="6.76727">
        <ele>2061.5</ele>
        <time>2014-09-03T14:26:31Z</time>
      </trkpt>
      <trkpt lat="44.92492" lon="6.76717">
        <ele>2061.1</ele>
        <time>2014-09-03T14:26:34Z</time>
      </trkpt>
      <trkpt lat="44.92474" lon="6.76708">
        <ele>2060.5</ele>
        <time>2014-09-03T14:26:37Z</time>
      </trkpt>
      <trkpt lat="44.92453" lon="6.76699">
        <ele>2060.6</ele>
        <time>2014-09-03T14:26:40Z</time>
      </trkpt>
      <trkpt lat="44.92432" lon="6.76693">
        <ele>2060.5</ele>
        <time>2014-09-03T14:26:43Z</time>
      </trkpt>
      <trkpt lat="44.92412" lon="6.76689">
        <ele>2060.7</ele>
        <time>2014-09-03T14:26:46Z</time>
      </trkpt>
      <trkpt lat="44.92394" lon="6.76686">
        <ele>2062.2</ele>
        <time>2014-09-03T14:26:49Z</time>
      </trkpt>
      <trkpt lat="44.92375" lon="6.76685">
        <ele>2063</ele>
        <time>2014-09-03T14:26:52Z</time>
      </trkpt>
      <trkpt lat="44.92356" lon="6.76686">
        <ele>2062</ele>
        <time>2014-09-03T14:26:55Z</time>
      </trkpt>
      <trkpt lat="44.92336" lon="6.76685">
        <ele>2060.6</ele>
        <time>2014-09-03T14:26:58Z</time>
      </trkpt>
      <trkpt lat="44.92316" lon="6.76679">
        <ele>2060.2</ele>
        <time>2014-09-03T14:27:01Z</time>
      </trkpt>
      <trkpt lat="44.92295" lon="6.7667">
        <ele>2060</ele>
        <time>2014-09-03T14:27:04Z</time>
      </trkpt>
      <trkpt lat="44.92277" lon="6.76665">
        <ele>2059.2</ele>
        <time>2014-09-03T14:27:08Z</time>
      </trkpt>
      <trkpt lat="44.92258" lon="6.76662">
        <ele>2059.4</ele>
        <time>2014-09-03T14:27:12Z</time>
      </trkpt>
      <trkpt lat="44.92238" lon="6.76656">
        <ele>2059.4</ele>
        <time>2014-09-03T14:27:17Z</time>
      </trkpt>
      <trkpt lat="44.92219" lon="6.76642">
        <ele>2059.2</ele>
        <time>2014-09-03T14:27:21Z</time>
      </trkpt>
      <trkpt lat="44.922" lon="6.76632">
        <ele>2058.4</ele>
        <time>2014-09-03T14:27:26Z</time>
      </trkpt>
      <trkpt lat="44.92179" lon="6.76619">
        <ele>2058.5</ele>
        <time>2014-09-03T14:27:30Z</time>
      </trkpt>
      <trkpt lat="44.92162" lon="6.76605">
        <ele>2057.4</ele>
        <time>2014-09-03T14:27:33Z</time>
      </trkpt>
      <trkpt lat="44.92144" lon="6.76596">
        <ele>2056.1</ele>
        <time>2014-09-03T14:27:43Z</time>
      </trkpt>
      <trkpt lat="44.92126" lon="6.76598">
        <ele>2054.1</ele>
        <time>2014-09-03T14:28:27Z</time>
      </trkpt>
      <trkpt lat="44.92108" lon="6.76594">
        <ele>2056.1</ele>
        <time>2014-09-03T14:35:43Z</time>
      </trkpt>
      <trkpt lat="44.92093" lon="6.76576">
        <ele>2054.2</ele>
        <time>2014-09-03T14:35:48Z</time>
      </trkpt>
      <trkpt lat="44.92084" lon="6.76547">
        <ele>2053.4</ele>
        <time>2014-09-03T14:35:53Z</time>
      </trkpt>
      <trkpt lat="44.9208" lon="6.76518">
        <ele>2052.1</ele>
        <time>2014-09-03T14:35:58Z</time>
      </trkpt>
      <trkpt lat="44.92098" lon="6.76518">
        <ele>2050</ele>
        <time>2014-09-03T14:36:46Z</time>
      </trkpt>
      <trkpt lat="44.92118" lon="6.76519">
        <ele>2050.8</ele>
        <time>2014-09-03T14:36:55Z</time>
      </trkpt>
      <trkpt lat="44.92123" lon="6.76493">
        <ele>2053</ele>
        <time>2014-09-03T14:37:09Z</time>
      </trkpt>
      <trkpt lat="44.92142" lon="6.76479">
        <ele>2052.3</ele>
        <time>2014-09-03T14:37:15Z</time>
      </trkpt>
      <trkpt lat="44.9216" lon="6.76474">
        <ele>2051.2</ele>
        <time>2014-09-03T14:37:20Z</time>
      </trkpt>
      <trkpt lat="44.92178" lon="6.76469">
        <ele>2049.5</ele>
        <time>2014-09-03T14:37:28Z</time>
      </trkpt>
      <trkpt lat="44.92195" lon="6.76479">
        <ele>2048.4</ele>
        <time>2014-09-03T14:37:34Z</time>
      </trkpt>
      <trkpt lat="44.92204" lon="6.76502">
        <ele>2046.5</ele>
        <time>2014-09-03T14:37:41Z</time>
      </trkpt>
      <trkpt lat="44.92217" lon="6.76521">
        <ele>2041.9</ele>
        <time>2014-09-03T14:38:02Z</time>
      </trkpt>
      <trkpt lat="44.92236" lon="6.76519">
        <ele>2040.9</ele>
        <time>2014-09-03T14:38:08Z</time>
      </trkpt>
      <trkpt lat="44.92257" lon="6.76513">
        <ele>2036.1</ele>
        <time>2014-09-03T14:38:12Z</time>
      </trkpt>
      <trkpt lat="44.92279" lon="6.76507">
        <ele>2028.5</ele>
        <time>2014-09-03T14:38:16Z</time>
      </trkpt>
      <trkpt lat="44.92283" lon="6.76482">
        <ele>2023.6</ele>
        <time>2014-09-03T14:38:20Z</time>
      </trkpt>
      <trkpt lat="44.92298" lon="6.76461">
        <ele>2022.7</ele>
        <time>2014-09-03T14:38:27Z</time>
      </trkpt>
      <trkpt lat="44.92317" lon="6.76449">
        <ele>2022.2</ele>
        <time>2014-09-03T14:38:33Z</time>
      </trkpt>
      <trkpt lat="44.92338" lon="6.76446">
        <ele>2020.3</ele>
        <time>2014-09-03T14:38:38Z</time>
      </trkpt>
      <trkpt lat="44.92356" lon="6.76445">
        <ele>2017.5</ele>
        <time>2014-09-03T14:38:41Z</time>
      </trkpt>
      <trkpt lat="44.92378" lon="6.76439">
        <ele>2013.5</ele>
        <time>2014-09-03T14:38:45Z</time>
      </trkpt>
      <trkpt lat="44.92401" lon="6.76431">
        <ele>2012</ele>
        <time>2014-09-03T14:38:49Z</time>
      </trkpt>
      <trkpt lat="44.92423" lon="6.76431">
        <ele>2008.2</ele>
        <time>2014-09-03T14:38:53Z</time>
      </trkpt>
      <trkpt lat="44.92442" lon="6.76421">
        <ele>2007.8</ele>
        <time>2014-09-03T14:38:59Z</time>
      </trkpt>
      <trkpt lat="44.92457" lon="6.76404">
        <ele>2008.4</ele>
        <time>2014-09-03T14:39:04Z</time>
      </trkpt>
      <trkpt lat="44.92475" lon="6.7639">
        <ele>2009.1</ele>
        <time>2014-09-03T14:39:07Z</time>
      </trkpt>
      <trkpt lat="44.92497" lon="6.76377">
        <ele>2008.9</ele>
        <time>2014-09-03T14:39:10Z</time>
      </trkpt>
      <trkpt lat="44.92513" lon="6.76357">
        <ele>2007.9</ele>
        <time>2014-09-03T14:39:17Z</time>
      </trkpt>
      <trkpt lat="44.92532" lon="6.76348">
        <ele>2006.7</ele>
        <time>2014-09-03T14:39:21Z</time>
      </trkpt>
      <trkpt lat="44.92551" lon="6.76328">
        <ele>2004.3</ele>
        <time>2014-09-03T14:39:25Z</time>
      </trkpt>
      <trkpt lat="44.92568" lon="6.7631">
        <ele>2003.8</ele>
        <time>2014-09-03T14:39:28Z</time>
      </trkpt>
      <trkpt lat="44.92586" lon="6.76292">
        <ele>2003.3</ele>
        <time>2014-09-03T14:39:31Z</time>
      </trkpt>
      <trkpt lat="44.926" lon="6.76273">
        <ele>2000.5</ele>
        <time>2014-09-03T14:39:34Z</time>
      </trkpt>
      <trkpt lat="44.92615" lon="6.76258">
        <ele>1999.3</ele>
        <time>2014-09-03T14:39:39Z</time>
      </trkpt>
      <trkpt lat="44.92634" lon="6.76252">
        <ele>1996.5</ele>
        <time>2014-09-03T14:39:44Z</time>
      </trkpt>
      <trkpt lat="44.92655" lon="6.76242">
        <ele>1992.7</ele>
        <time>2014-09-03T14:39:48Z</time>
      </trkpt>
      <trkpt lat="44.92676" lon="6.76232">
        <ele>1988.9</ele>
        <time>2014-09-03T14:39:52Z</time>
      </trkpt>
      <trkpt lat="44.92692" lon="6.76218">
        <ele>1984.7</ele>
        <time>2014-09-03T14:39:55Z</time>
      </trkpt>
      <trkpt lat="44.92712" lon="6.7621">
        <ele>1983.6</ele>
        <time>2014-09-03T14:39:58Z</time>
      </trkpt>
      <trkpt lat="44.92733" lon="6.76205">
        <ele>1983.7</ele>
        <time>2014-09-03T14:40:01Z</time>
      </trkpt>
      <trkpt lat="44.92753" lon="6.76199">
        <ele>1983.9</ele>
        <time>2014-09-03T14:40:04Z</time>
      </trkpt>
      <trkpt lat="44.92769" lon="6.76186">
        <ele>1983.3</ele>
        <time>2014-09-03T14:40:07Z</time>
      </trkpt>
      <trkpt lat="44.9279" lon="6.76168">
        <ele>1982.6</ele>
        <time>2014-09-03T14:40:10Z</time>
      </trkpt>
      <trkpt lat="44.92807" lon="6.76151">
        <ele>1980.2</ele>
        <time>2014-09-03T14:40:13Z</time>
      </trkpt>
      <trkpt lat="44.92826" lon="6.76132">
        <ele>1977.3</ele>
        <time>2014-09-03T14:40:16Z</time>
      </trkpt>
      <trkpt lat="44.92846" lon="6.76119">
        <ele>1975.6</ele>
        <time>2014-09-03T14:40:19Z</time>
      </trkpt>
      <trkpt lat="44.92867" lon="6.76112">
        <ele>1972.9</ele>
        <time>2014-09-03T14:40:22Z</time>
      </trkpt>
      <trkpt lat="44.92886" lon="6.76107">
        <ele>1969.6</ele>
        <time>2014-09-03T14:40:25Z</time>
      </trkpt>
      <trkpt lat="44.92905" lon="6.76109">
        <ele>1964.9</ele>
        <time>2014-09-03T14:40:28Z</time>
      </trkpt>
      <trkpt lat="44.92926" lon="6.76114">
        <ele>1959.7</ele>
        <time>2014-09-03T14:40:31Z</time>
      </trkpt>
      <trkpt lat="44.92945" lon="6.76124">
        <ele>1957.4</ele>
        <time>2014-09-03T14:41:02Z</time>
      </trkpt>
      <trkpt lat="44.92963" lon="6.7613">
        <ele>1956.5</ele>
        <time>2014-09-03T14:41:07Z</time>
      </trkpt>
      <trkpt lat="44.92981" lon="6.76136">
        <ele>1955.3</ele>
        <time>2014-09-03T14:41:13Z</time>
      </trkpt>
      <trkpt lat="44.92999" lon="6.76135">
        <ele>1950</ele>
        <time>2014-09-03T14:41:16Z</time>
      </trkpt>
      <trkpt lat="44.9302" lon="6.7613">
        <ele>1943.1</ele>
        <time>2014-09-03T14:41:19Z</time>
      </trkpt>
      <trkpt lat="44.9304" lon="6.76119">
        <ele>1937.5</ele>
        <time>2014-09-03T14:41:23Z</time>
      </trkpt>
      <trkpt lat="44.93054" lon="6.76104">
        <ele>1935.5</ele>
        <time>2014-09-03T14:41:26Z</time>
      </trkpt>
      <trkpt lat="44.93059" lon="6.76078">
        <ele>1934</ele>
        <time>2014-09-03T14:41:33Z</time>
      </trkpt>
      <trkpt lat="44.93063" lon="6.76053">
        <ele>1933.8</ele>
        <time>2014-09-03T14:41:49Z</time>
      </trkpt>
      <trkpt lat="44.93069" lon="6.76028">
        <ele>1934.7</ele>
        <time>2014-09-03T14:42:04Z</time>
      </trkpt>
      <trkpt lat="44.93074" lon="6.76003">
        <ele>1937.7</ele>
        <time>2014-09-03T14:42:24Z</time>
      </trkpt>
      <trkpt lat="44.93072" lon="6.75976">
        <ele>1942.5</ele>
        <time>2014-09-03T14:42:40Z</time>
      </trkpt>
      <trkpt lat="44.93072" lon="6.75946">
        <ele>1944.9</ele>
        <time>2014-09-03T14:42:57Z</time>
      </trkpt>
      <trkpt lat="44.93079" lon="6.75917">
        <ele>1948</ele>
        <time>2014-09-03T14:43:17Z</time>
      </trkpt>
      <trkpt lat="44.93087" lon="6.75893">
        <ele>1952</ele>
        <time>2014-09-03T14:43:39Z</time>
      </trkpt>
      <trkpt lat="44.93098" lon="6.75871">
        <ele>1955.7</ele>
        <time>2014-09-03T14:43:57Z</time>
      </trkpt>
      <trkpt lat="44.93108" lon="6.75848">
        <ele>1960.2</ele>
        <time>2014-09-03T14:44:17Z</time>
      </trkpt>
      <trkpt lat="44.93114" lon="6.75823">
        <ele>1963.8</ele>
        <time>2014-09-03T14:44:34Z</time>
      </trkpt>
      <trkpt lat="44.93117" lon="6.75796">
        <ele>1968.1</ele>
        <time>2014-09-03T14:44:53Z</time>
      </trkpt>
      <trkpt lat="44.93116" lon="6.7577">
        <ele>1972.9</ele>
        <time>2014-09-03T14:45:12Z</time>
      </trkpt>
      <trkpt lat="44.93117" lon="6.75743">
        <ele>1975.4</ele>
        <time>2014-09-03T14:45:25Z</time>
      </trkpt>
      <trkpt lat="44.93121" lon="6.75718">
        <ele>1978.2</ele>
        <time>2014-09-03T14:45:41Z</time>
      </trkpt>
      <trkpt lat="44.93132" lon="6.75698">
        <ele>1979.6</ele>
        <time>2014-09-03T14:45:54Z</time>
      </trkpt>
      <trkpt lat="44.93145" lon="6.7568">
        <ele>1980.9</ele>
        <time>2014-09-03T14:46:08Z</time>
      </trkpt>
      <trkpt lat="44.93159" lon="6.75662">
        <ele>1982.8</ele>
        <time>2014-09-03T14:46:25Z</time>
      </trkpt>
      <trkpt lat="44.93168" lon="6.75639">
        <ele>1984.2</ele>
        <time>2014-09-03T14:46:39Z</time>
      </trkpt>
      <trkpt lat="44.93184" lon="6.75626">
        <ele>1985.6</ele>
        <time>2014-09-03T14:46:48Z</time>
      </trkpt>
      <trkpt lat="44.93199" lon="6.75642">
        <ele>1986.7</ele>
        <time>2014-09-03T14:46:52Z</time>
      </trkpt>
      <trkpt lat="44.93217" lon="6.75658">
        <ele>1987.6</ele>
        <time>2014-09-03T14:46:56Z</time>
      </trkpt>
      <trkpt lat="44.93234" lon="6.75669">
        <ele>1987</ele>
        <time>2014-09-03T14:47:00Z</time>
      </trkpt>
      <trkpt lat="44.93252" lon="6.75671">
        <ele>1986.1</ele>
        <time>2014-09-03T14:47:05Z</time>
      </trkpt>
      <trkpt lat="44.9327" lon="6.75674">
        <ele>1984.4</ele>
        <time>2014-09-03T14:47:12Z</time>
      </trkpt>
      <trkpt lat="44.9329" lon="6.75674">
        <ele>1983.4</ele>
        <time>2014-09-03T14:47:21Z</time>
      </trkpt>
      <trkpt lat="44.93306" lon="6.75692">
        <ele>1979.9</ele>
        <time>2014-09-03T14:47:27Z</time>
      </trkpt>
      <trkpt lat="44.93321" lon="6.75706">
        <ele>1976.6</ele>
        <time>2014-09-03T14:47:30Z</time>
      </trkpt>
      <trkpt lat="44.93346" lon="6.75722">
        <ele>1973.5</ele>
        <time>2014-09-03T14:47:33Z</time>
      </trkpt>
      <trkpt lat="44.93334" lon="6.75747">
        <ele>1970.8</ele>
        <time>2014-09-03T14:47:41Z</time>
      </trkpt>
      <trkpt lat="44.93315" lon="6.75764">
        <ele>1967.8</ele>
        <time>2014-09-03T14:47:44Z</time>
      </trkpt>
      <trkpt lat="44.93336" lon="6.75775">
        <ele>1960.9</ele>
        <time>2014-09-03T14:47:53Z</time>
      </trkpt>
      <trkpt lat="44.93356" lon="6.75774">
        <ele>1957.2</ele>
        <time>2014-09-03T14:47:56Z</time>
      </trkpt>
      <trkpt lat="44.93377" lon="6.7578">
        <ele>1951.5</ele>
        <time>2014-09-03T14:48:00Z</time>
      </trkpt>
      <trkpt lat="44.93393" lon="6.75765">
        <ele>1946</ele>
        <time>2014-09-03T14:48:04Z</time>
      </trkpt>
      <trkpt lat="44.93411" lon="6.7575">
        <ele>1942.4</ele>
        <time>2014-09-03T14:48:08Z</time>
      </trkpt>
      <trkpt lat="44.9343" lon="6.75736">
        <ele>1938.2</ele>
        <time>2014-09-03T14:48:12Z</time>
      </trkpt>
      <trkpt lat="44.93446" lon="6.75719">
        <ele>1935.3</ele>
        <time>2014-09-03T14:48:16Z</time>
      </trkpt>
      <trkpt lat="44.93462" lon="6.75703">
        <ele>1932.8</ele>
        <time>2014-09-03T14:48:20Z</time>
      </trkpt>
      <trkpt lat="44.93479" lon="6.75686">
        <ele>1930.3</ele>
        <time>2014-09-03T14:48:25Z</time>
      </trkpt>
      <trkpt lat="44.93488" lon="6.75661">
        <ele>1928.9</ele>
        <time>2014-09-03T14:48:30Z</time>
      </trkpt>
      <trkpt lat="44.93494" lon="6.75636">
        <ele>1927</ele>
        <time>2014-09-03T14:48:34Z</time>
      </trkpt>
      <trkpt lat="44.93497" lon="6.75606">
        <ele>1926.3</ele>
        <time>2014-09-03T14:48:39Z</time>
      </trkpt>
      <trkpt lat="44.93502" lon="6.75579">
        <ele>1922.4</ele>
        <time>2014-09-03T14:48:42Z</time>
      </trkpt>
      <trkpt lat="44.93515" lon="6.75555">
        <ele>1918.8</ele>
        <time>2014-09-03T14:48:45Z</time>
      </trkpt>
      <trkpt lat="44.93529" lon="6.75537">
        <ele>1916.6</ele>
        <time>2014-09-03T14:48:47Z</time>
      </trkpt>
      <trkpt lat="44.93543" lon="6.75512">
        <ele>1912</ele>
        <time>2014-09-03T14:48:50Z</time>
      </trkpt>
      <trkpt lat="44.93556" lon="6.75493">
        <ele>1905.2</ele>
        <time>2014-09-03T14:48:54Z</time>
      </trkpt>
      <trkpt lat="44.93568" lon="6.75468">
        <ele>1897.2</ele>
        <time>2014-09-03T14:48:58Z</time>
      </trkpt>
      <trkpt lat="44.93563" lon="6.75442">
        <ele>1894.4</ele>
        <time>2014-09-03T14:49:07Z</time>
      </trkpt>
      <trkpt lat="44.93556" lon="6.75417">
        <ele>1892.4</ele>
        <time>2014-09-03T14:49:12Z</time>
      </trkpt>
      <trkpt lat="44.93547" lon="6.75388">
        <ele>1889.5</ele>
        <time>2014-09-03T14:49:15Z</time>
      </trkpt>
      <trkpt lat="44.93541" lon="6.75362">
        <ele>1886</ele>
        <time>2014-09-03T14:49:18Z</time>
      </trkpt>
      <trkpt lat="44.93537" lon="6.75337">
        <ele>1883.5</ele>
        <time>2014-09-03T14:49:21Z</time>
      </trkpt>
      <trkpt lat="44.93524" lon="6.75316">
        <ele>1881.6</ele>
        <time>2014-09-03T14:49:26Z</time>
      </trkpt>
      <trkpt lat="44.93512" lon="6.75296">
        <ele>1880.5</ele>
        <time>2014-09-03T14:49:30Z</time>
      </trkpt>
      <trkpt lat="44.935" lon="6.75271">
        <ele>1878.8</ele>
        <time>2014-09-03T14:49:36Z</time>
      </trkpt>
      <trkpt lat="44.93495" lon="6.75243">
        <ele>1875.7</ele>
        <time>2014-09-03T14:49:41Z</time>
      </trkpt>
      <trkpt lat="44.93502" lon="6.75217">
        <ele>1877.4</ele>
        <time>2014-09-03T15:03:00Z</time>
      </trkpt>
      <trkpt lat="44.93496" lon="6.75188">
        <ele>1878.3</ele>
        <time>2014-09-03T15:03:10Z</time>
      </trkpt>
      <trkpt lat="44.93497" lon="6.7515">
        <ele>1877.4</ele>
        <time>2014-09-03T15:03:14Z</time>
      </trkpt>
      <trkpt lat="44.93517" lon="6.75163">
        <ele>1872.9</ele>
        <time>2014-09-03T15:03:21Z</time>
      </trkpt>
      <trkpt lat="44.93512" lon="6.75131">
        <ele>1860.5</ele>
        <time>2014-09-03T15:03:31Z</time>
      </trkpt>
      <trkpt lat="44.93523" lon="6.75108">
        <ele>1851.6</ele>
        <time>2014-09-03T15:03:41Z</time>
      </trkpt>
      <trkpt lat="44.93523" lon="6.75083">
        <ele>1843.4</ele>
        <time>2014-09-03T15:03:46Z</time>
      </trkpt>
      <trkpt lat="44.93516" lon="6.75058">
        <ele>1837.4</ele>
        <time>2014-09-03T15:03:49Z</time>
      </trkpt>
      <trkpt lat="44.93505" lon="6.75035">
        <ele>1834.8</ele>
        <time>2014-09-03T15:03:52Z</time>
      </trkpt>
      <trkpt lat="44.93493" lon="6.75005">
        <ele>1834.5</ele>
        <time>2014-09-03T15:03:55Z</time>
      </trkpt>
      <trkpt lat="44.93481" lon="6.74984">
        <ele>1834.1</ele>
        <time>2014-09-03T15:03:58Z</time>
      </trkpt>
      <trkpt lat="44.93473" lon="6.74961">
        <ele>1834.7</ele>
        <time>2014-09-03T15:04:01Z</time>
      </trkpt>
      <trkpt lat="44.93466" lon="6.74929">
        <ele>1835.5</ele>
        <time>2014-09-03T15:04:04Z</time>
      </trkpt>
      <trkpt lat="44.93459" lon="6.74901">
        <ele>1835.4</ele>
        <time>2014-09-03T15:04:07Z</time>
      </trkpt>
      <trkpt lat="44.93455" lon="6.74871">
        <ele>1833.3</ele>
        <time>2014-09-03T15:04:10Z</time>
      </trkpt>
      <trkpt lat="44.93442" lon="6.74846">
        <ele>1829.4</ele>
        <time>2014-09-03T15:04:13Z</time>
      </trkpt>
      <trkpt lat="44.93429" lon="6.74824">
        <ele>1828.3</ele>
        <time>2014-09-03T15:04:16Z</time>
      </trkpt>
      <trkpt lat="44.93419" lon="6.748">
        <ele>1828.8</ele>
        <time>2014-09-03T15:04:20Z</time>
      </trkpt>
      <trkpt lat="44.93412" lon="6.74771">
        <ele>1828.6</ele>
        <time>2014-09-03T15:04:24Z</time>
      </trkpt>
      <trkpt lat="44.93406" lon="6.74738">
        <ele>1825.1</ele>
        <time>2014-09-03T15:04:28Z</time>
      </trkpt>
      <trkpt lat="44.93403" lon="6.74712">
        <ele>1824.6</ele>
        <time>2014-09-03T15:05:22Z</time>
      </trkpt>
      <trkpt lat="44.93397" lon="6.74688">
        <ele>1825.9</ele>
        <time>2014-09-03T15:05:31Z</time>
      </trkpt>
      <trkpt lat="44.93395" lon="6.74658">
        <ele>1826.7</ele>
        <time>2014-09-03T15:05:37Z</time>
      </trkpt>
      <trkpt lat="44.9339" lon="6.74632">
        <ele>1826.8</ele>
        <time>2014-09-03T15:05:43Z</time>
      </trkpt>
      <trkpt lat="44.93385" lon="6.74608">
        <ele>1825.4</ele>
        <time>2014-09-03T15:05:52Z</time>
      </trkpt>
      <trkpt lat="44.93385" lon="6.74583">
        <ele>1825.9</ele>
        <time>2014-09-03T15:06:06Z</time>
      </trkpt>
      <trkpt lat="44.93382" lon="6.74557">
        <ele>1826.4</ele>
        <time>2014-09-03T15:06:18Z</time>
      </trkpt>
      <trkpt lat="44.93368" lon="6.74539">
        <ele>1826.4</ele>
        <time>2014-09-03T15:06:30Z</time>
      </trkpt>
      <trkpt lat="44.93357" lon="6.74516">
        <ele>1826.6</ele>
        <time>2014-09-03T15:06:37Z</time>
      </trkpt>
      <trkpt lat="44.93354" lon="6.7449">
        <ele>1825.8</ele>
        <time>2014-09-03T15:06:50Z</time>
      </trkpt>
      <trkpt lat="44.93351" lon="6.74461">
        <ele>1826.2</ele>
        <time>2014-09-03T15:08:15Z</time>
      </trkpt>
      <trkpt lat="44.93357" lon="6.74436">
        <ele>1825.7</ele>
        <time>2014-09-03T15:08:19Z</time>
      </trkpt>
      <trkpt lat="44.93359" lon="6.7441">
        <ele>1823</ele>
        <time>2014-09-03T15:08:30Z</time>
      </trkpt>
      <trkpt lat="44.93367" lon="6.74387">
        <ele>1820.4</ele>
        <time>2014-09-03T15:08:40Z</time>
      </trkpt>
      <trkpt lat="44.93361" lon="6.74363">
        <ele>1818</ele>
        <time>2014-09-03T15:08:50Z</time>
      </trkpt>
      <trkpt lat="44.93343" lon="6.74356">
        <ele>1816.8</ele>
        <time>2014-09-03T15:08:59Z</time>
      </trkpt>
      <trkpt lat="44.93326" lon="6.74347">
        <ele>1815.5</ele>
        <time>2014-09-03T15:09:07Z</time>
      </trkpt>
      <trkpt lat="44.93312" lon="6.7433">
        <ele>1814.4</ele>
        <time>2014-09-03T15:09:17Z</time>
      </trkpt>
      <trkpt lat="44.93297" lon="6.74317">
        <ele>1813.6</ele>
        <time>2014-09-03T15:09:31Z</time>
      </trkpt>
      <trkpt lat="44.93283" lon="6.74299">
        <ele>1814.4</ele>
        <time>2014-09-03T15:09:43Z</time>
      </trkpt>
      <trkpt lat="44.93266" lon="6.74289">
        <ele>1816.8</ele>
        <time>2014-09-03T15:09:57Z</time>
      </trkpt>
      <trkpt lat="44.93249" lon="6.74282">
        <ele>1819.1</ele>
        <time>2014-09-03T15:10:11Z</time>
      </trkpt>
      <trkpt lat="44.93232" lon="6.74271">
        <ele>1819.4</ele>
        <time>2014-09-03T15:10:24Z</time>
      </trkpt>
      <trkpt lat="44.93231" lon="6.74243">
        <ele>1820.2</ele>
        <time>2014-09-03T15:10:35Z</time>
      </trkpt>
      <trkpt lat="44.93231" lon="6.74217">
        <ele>1821.2</ele>
        <time>2014-09-03T15:10:43Z</time>
      </trkpt>
      <trkpt lat="44.93219" lon="6.74195">
        <ele>1823.2</ele>
        <time>2014-09-03T15:10:54Z</time>
      </trkpt>
      <trkpt lat="44.93207" lon="6.74174">
        <ele>1824.2</ele>
        <time>2014-09-03T15:11:11Z</time>
      </trkpt>
      <trkpt lat="44.93193" lon="6.74158">
        <ele>1826.5</ele>
        <time>2014-09-03T15:11:35Z</time>
      </trkpt>
      <trkpt lat="44.93189" lon="6.74132">
        <ele>1828.1</ele>
        <time>2014-09-03T15:11:45Z</time>
      </trkpt>
      <trkpt lat="44.93178" lon="6.74112">
        <ele>1829.1</ele>
        <time>2014-09-03T15:11:57Z</time>
      </trkpt>
      <trkpt lat="44.93166" lon="6.74093">
        <ele>1830.1</ele>
        <time>2014-09-03T15:12:34Z</time>
      </trkpt>
      <trkpt lat="44.93155" lon="6.74072">
        <ele>1830.4</ele>
        <time>2014-09-03T15:12:51Z</time>
      </trkpt>
      <trkpt lat="44.93161" lon="6.74047">
        <ele>1830.2</ele>
        <time>2014-09-03T15:13:03Z</time>
      </trkpt>
      <trkpt lat="44.93169" lon="6.74019">
        <ele>1828.8</ele>
        <time>2014-09-03T15:13:09Z</time>
      </trkpt>
      <trkpt lat="44.93178" lon="6.73989">
        <ele>1825.6</ele>
        <time>2014-09-03T15:13:13Z</time>
      </trkpt>
      <trkpt lat="44.93186" lon="6.73961">
        <ele>1822.1</ele>
        <time>2014-09-03T15:13:17Z</time>
      </trkpt>
      <trkpt lat="44.93175" lon="6.73938">
        <ele>1820</ele>
        <time>2014-09-03T15:13:28Z</time>
      </trkpt>
      <trkpt lat="44.93169" lon="6.73911">
        <ele>1819.6</ele>
        <time>2014-09-03T15:13:38Z</time>
      </trkpt>
      <trkpt lat="44.93161" lon="6.73887">
        <ele>1819.1</ele>
        <time>2014-09-03T15:13:46Z</time>
      </trkpt>
      <trkpt lat="44.93149" lon="6.73865">
        <ele>1818.6</ele>
        <time>2014-09-03T15:13:55Z</time>
      </trkpt>
      <trkpt lat="44.93138" lon="6.73842">
        <ele>1818.2</ele>
        <time>2014-09-03T15:14:04Z</time>
      </trkpt>
      <trkpt lat="44.9313" lon="6.73818">
        <ele>1817.6</ele>
        <time>2014-09-03T15:14:11Z</time>
      </trkpt>
      <trkpt lat="44.93114" lon="6.73802">
        <ele>1816.7</ele>
        <time>2014-09-03T15:14:31Z</time>
      </trkpt>
      <trkpt lat="44.93101" lon="6.73782">
        <ele>1816.1</ele>
        <time>2014-09-03T15:14:41Z</time>
      </trkpt>
      <trkpt lat="44.93084" lon="6.73767">
        <ele>1815.4</ele>
        <time>2014-09-03T15:14:49Z</time>
      </trkpt>
      <trkpt lat="44.93068" lon="6.73754">
        <ele>1814.8</ele>
        <time>2014-09-03T15:14:57Z</time>
      </trkpt>
      <trkpt lat="44.93053" lon="6.73736">
        <ele>1814.8</ele>
        <time>2014-09-03T15:15:06Z</time>
      </trkpt>
      <trkpt lat="44.93045" lon="6.7371">
        <ele>1815.5</ele>
        <time>2014-09-03T15:15:14Z</time>
      </trkpt>
      <trkpt lat="44.93044" lon="6.73677">
        <ele>1816.4</ele>
        <time>2014-09-03T15:15:18Z</time>
      </trkpt>
      <trkpt lat="44.93052" lon="6.73654">
        <ele>1816.6</ele>
        <time>2014-09-03T15:15:21Z</time>
      </trkpt>
      <trkpt lat="44.93067" lon="6.73632">
        <ele>1816.7</ele>
        <time>2014-09-03T15:15:24Z</time>
      </trkpt>
      <trkpt lat="44.93083" lon="6.73615">
        <ele>1815.9</ele>
        <time>2014-09-03T15:15:27Z</time>
      </trkpt>
      <trkpt lat="44.93099" lon="6.73602">
        <ele>1815.8</ele>
        <time>2014-09-03T15:15:32Z</time>
      </trkpt>
      <trkpt lat="44.93116" lon="6.73588">
        <ele>1816.1</ele>
        <time>2014-09-03T15:15:38Z</time>
      </trkpt>
      <trkpt lat="44.9313" lon="6.73571">
        <ele>1816.5</ele>
        <time>2014-09-03T15:15:45Z</time>
      </trkpt>
      <trkpt lat="44.93142" lon="6.73549">
        <ele>1816.8</ele>
        <time>2014-09-03T15:15:53Z</time>
      </trkpt>
      <trkpt lat="44.9315" lon="6.73523">
        <ele>1816.7</ele>
        <time>2014-09-03T15:16:02Z</time>
      </trkpt>
      <trkpt lat="44.93156" lon="6.73497">
        <ele>1817.6</ele>
        <time>2014-09-03T15:16:11Z</time>
      </trkpt>
      <trkpt lat="44.9316" lon="6.7347">
        <ele>1818.6</ele>
        <time>2014-09-03T15:16:20Z</time>
      </trkpt>
      <trkpt lat="44.93174" lon="6.73453">
        <ele>1820</ele>
        <time>2014-09-03T15:16:30Z</time>
      </trkpt>
      <trkpt lat="44.93192" lon="6.73446">
        <ele>1821.9</ele>
        <time>2014-09-03T15:16:40Z</time>
      </trkpt>
      <trkpt lat="44.93209" lon="6.73432">
        <ele>1823.6</ele>
        <time>2014-09-03T15:16:49Z</time>
      </trkpt>
      <trkpt lat="44.93208" lon="6.73406">
        <ele>1825.3</ele>
        <time>2014-09-03T15:16:58Z</time>
      </trkpt>
      <trkpt lat="44.93198" lon="6.73383">
        <ele>1826.7</ele>
        <time>2014-09-03T15:17:06Z</time>
      </trkpt>
      <trkpt lat="44.93189" lon="6.7336">
        <ele>1828</ele>
        <time>2014-09-03T15:17:13Z</time>
      </trkpt>
      <trkpt lat="44.93184" lon="6.73335">
        <ele>1829.7</ele>
        <time>2014-09-03T15:17:21Z</time>
      </trkpt>
      <trkpt lat="44.93177" lon="6.7331">
        <ele>1831.4</ele>
        <time>2014-09-03T15:17:30Z</time>
      </trkpt>
      <trkpt lat="44.9317" lon="6.73282">
        <ele>1833.5</ele>
        <time>2014-09-03T15:17:39Z</time>
      </trkpt>
      <trkpt lat="44.93165" lon="6.73257">
        <ele>1834.4</ele>
        <time>2014-09-03T15:17:46Z</time>
      </trkpt>
      <trkpt lat="44.93161" lon="6.73229">
        <ele>1835.9</ele>
        <time>2014-09-03T15:17:55Z</time>
      </trkpt>
      <trkpt lat="44.93158" lon="6.73203">
        <ele>1836.8</ele>
        <time>2014-09-03T15:18:03Z</time>
      </trkpt>
      <trkpt lat="44.93157" lon="6.73176">
        <ele>1838.9</ele>
        <time>2014-09-03T15:18:13Z</time>
      </trkpt>
      <trkpt lat="44.93152" lon="6.73149">
        <ele>1840.6</ele>
        <time>2014-09-03T15:18:19Z</time>
      </trkpt>
      <trkpt lat="44.93148" lon="6.73123">
        <ele>1842</ele>
        <time>2014-09-03T15:18:25Z</time>
      </trkpt>
      <trkpt lat="44.93146" lon="6.73097">
        <ele>1843.6</ele>
        <time>2014-09-03T15:18:31Z</time>
      </trkpt>
      <trkpt lat="44.93144" lon="6.73071">
        <ele>1845.2</ele>
        <time>2014-09-03T15:18:39Z</time>
      </trkpt>
      <trkpt lat="44.93144" lon="6.73097">
        <ele>1845.8</ele>
        <time>2014-09-03T15:18:49Z</time>
      </trkpt>
      <trkpt lat="44.93153" lon="6.73071">
        <ele>1845.8</ele>
        <time>2014-09-03T15:18:55Z</time>
      </trkpt>
      <trkpt lat="44.93165" lon="6.73052">
        <ele>1845.6</ele>
        <time>2014-09-03T15:19:01Z</time>
      </trkpt>
      <trkpt lat="44.93169" lon="6.73025">
        <ele>1845</ele>
        <time>2014-09-03T15:19:09Z</time>
      </trkpt>
      <trkpt lat="44.93169" lon="6.73">
        <ele>1844.6</ele>
        <time>2014-09-03T15:19:16Z</time>
      </trkpt>
      <trkpt lat="44.93164" lon="6.72971">
        <ele>1844.5</ele>
        <time>2014-09-03T15:19:22Z</time>
      </trkpt>
      <trkpt lat="44.93159" lon="6.72946">
        <ele>1844.6</ele>
        <time>2014-09-03T15:19:27Z</time>
      </trkpt>
      <trkpt lat="44.93157" lon="6.72918">
        <ele>1844.5</ele>
        <time>2014-09-03T15:19:34Z</time>
      </trkpt>
      <trkpt lat="44.93151" lon="6.72894">
        <ele>1844.7</ele>
        <time>2014-09-03T15:19:44Z</time>
      </trkpt>
      <trkpt lat="44.93142" lon="6.72871">
        <ele>1845</ele>
        <time>2014-09-03T15:19:53Z</time>
      </trkpt>
      <trkpt lat="44.9313" lon="6.7285">
        <ele>1845.4</ele>
        <time>2014-09-03T15:20:03Z</time>
      </trkpt>
      <trkpt lat="44.93121" lon="6.72827">
        <ele>1846.2</ele>
        <time>2014-09-03T15:20:15Z</time>
      </trkpt>
      <trkpt lat="44.93105" lon="6.72814">
        <ele>1847.4</ele>
        <time>2014-09-03T15:20:26Z</time>
      </trkpt>
      <trkpt lat="44.93097" lon="6.72789">
        <ele>1849.3</ele>
        <time>2014-09-03T15:20:36Z</time>
      </trkpt>
      <trkpt lat="44.93088" lon="6.72765">
        <ele>1851.6</ele>
        <time>2014-09-03T15:20:44Z</time>
      </trkpt>
      <trkpt lat="44.93081" lon="6.72742">
        <ele>1853.1</ele>
        <time>2014-09-03T15:20:52Z</time>
      </trkpt>
      <trkpt lat="44.93069" lon="6.72722">
        <ele>1854.6</ele>
        <time>2014-09-03T15:21:00Z</time>
      </trkpt>
      <trkpt lat="44.93073" lon="6.72694">
        <ele>1855.4</ele>
        <time>2014-09-03T15:21:06Z</time>
      </trkpt>
      <trkpt lat="44.93082" lon="6.72665">
        <ele>1856.2</ele>
        <time>2014-09-03T15:21:10Z</time>
      </trkpt>
      <trkpt lat="44.9309" lon="6.7264">
        <ele>1855.9</ele>
        <time>2014-09-03T15:21:13Z</time>
      </trkpt>
      <trkpt lat="44.93098" lon="6.72612">
        <ele>1854.4</ele>
        <time>2014-09-03T15:21:16Z</time>
      </trkpt>
      <trkpt lat="44.93108" lon="6.7258">
        <ele>1852.3</ele>
        <time>2014-09-03T15:21:19Z</time>
      </trkpt>
      <trkpt lat="44.93107" lon="6.72547">
        <ele>1850.6</ele>
        <time>2014-09-03T15:21:22Z</time>
      </trkpt>
      <trkpt lat="44.93088" lon="6.72522">
        <ele>1849.2</ele>
        <time>2014-09-03T15:21:25Z</time>
      </trkpt>
      <trkpt lat="44.93077" lon="6.72489">
        <ele>1848.4</ele>
        <time>2014-09-03T15:21:28Z</time>
      </trkpt>
      <trkpt lat="44.93068" lon="6.72455">
        <ele>1847.1</ele>
        <time>2014-09-03T15:21:31Z</time>
      </trkpt>
      <trkpt lat="44.9306" lon="6.72421">
        <ele>1845.9</ele>
        <time>2014-09-03T15:21:34Z</time>
      </trkpt>
      <trkpt lat="44.93053" lon="6.72389">
        <ele>1845</ele>
        <time>2014-09-03T15:21:37Z</time>
      </trkpt>
      <trkpt lat="44.93045" lon="6.72361">
        <ele>1844.2</ele>
        <time>2014-09-03T15:21:40Z</time>
      </trkpt>
      <trkpt lat="44.9304" lon="6.72335">
        <ele>1844.2</ele>
        <time>2014-09-03T15:21:46Z</time>
      </trkpt>
      <trkpt lat="44.93055" lon="6.7232">
        <ele>1844.6</ele>
        <time>2014-09-03T15:21:56Z</time>
      </trkpt>
      <trkpt lat="44.93059" lon="6.72293">
        <ele>1845.3</ele>
        <time>2014-09-03T15:22:07Z</time>
      </trkpt>
      <trkpt lat="44.93075" lon="6.7231">
        <ele>1846.5</ele>
        <time>2014-09-03T15:22:18Z</time>
      </trkpt>
      <trkpt lat="44.93093" lon="6.72319">
        <ele>1846.8</ele>
        <time>2014-09-03T15:22:26Z</time>
      </trkpt>
      <trkpt lat="44.931" lon="6.72346">
        <ele>1847.4</ele>
        <time>2014-09-03T15:22:34Z</time>
      </trkpt>
      <trkpt lat="44.93104" lon="6.72374">
        <ele>1847.8</ele>
        <time>2014-09-03T15:22:41Z</time>
      </trkpt>
      <trkpt lat="44.9311" lon="6.72399">
        <ele>1848.2</ele>
        <time>2014-09-03T15:22:47Z</time>
      </trkpt>
      <trkpt lat="44.93116" lon="6.72423">
        <ele>1848.7</ele>
        <time>2014-09-03T15:22:54Z</time>
      </trkpt>
      <trkpt lat="44.93122" lon="6.72448">
        <ele>1848.8</ele>
        <time>2014-09-03T15:23:01Z</time>
      </trkpt>
      <trkpt lat="44.9313" lon="6.72474">
        <ele>1849</ele>
        <time>2014-09-03T15:23:08Z</time>
      </trkpt>
      <trkpt lat="44.93137" lon="6.72498">
        <ele>1849.4</ele>
        <time>2014-09-03T15:23:14Z</time>
      </trkpt>
      <trkpt lat="44.93147" lon="6.72524">
        <ele>1849.4</ele>
        <time>2014-09-03T15:23:20Z</time>
      </trkpt>
      <trkpt lat="44.93159" lon="6.72547">
        <ele>1849.4</ele>
        <time>2014-09-03T15:23:26Z</time>
      </trkpt>
      <trkpt lat="44.93172" lon="6.72567">
        <ele>1849.3</ele>
        <time>2014-09-03T15:23:33Z</time>
      </trkpt>
      <trkpt lat="44.93185" lon="6.72587">
        <ele>1849</ele>
        <time>2014-09-03T15:23:40Z</time>
      </trkpt>
      <trkpt lat="44.93198" lon="6.72609">
        <ele>1848.9</ele>
        <time>2014-09-03T15:23:47Z</time>
      </trkpt>
      <trkpt lat="44.93209" lon="6.72629">
        <ele>1848.9</ele>
        <time>2014-09-03T15:23:54Z</time>
      </trkpt>
      <trkpt lat="44.93221" lon="6.7265">
        <ele>1848.9</ele>
        <time>2014-09-03T15:24:03Z</time>
      </trkpt>
      <trkpt lat="44.93238" lon="6.72664">
        <ele>1848.9</ele>
        <time>2014-09-03T15:24:10Z</time>
      </trkpt>
      <trkpt lat="44.93246" lon="6.7264">
        <ele>1848.8</ele>
        <time>2014-09-03T15:24:18Z</time>
      </trkpt>
      <trkpt lat="44.93238" lon="6.72615">
        <ele>1849.5</ele>
        <time>2014-09-03T15:24:26Z</time>
      </trkpt>
      <trkpt lat="44.93229" lon="6.72592">
        <ele>1849.9</ele>
        <time>2014-09-03T15:24:32Z</time>
      </trkpt>
      <trkpt lat="44.93221" lon="6.72567">
        <ele>1850</ele>
        <time>2014-09-03T15:24:38Z</time>
      </trkpt>
      <trkpt lat="44.9321" lon="6.72543">
        <ele>1850.3</ele>
        <time>2014-09-03T15:24:45Z</time>
      </trkpt>
      <trkpt lat="44.93203" lon="6.7252">
        <ele>1850.6</ele>
        <time>2014-09-03T15:24:52Z</time>
      </trkpt>
      <trkpt lat="44.93194" lon="6.72497">
        <ele>1850.8</ele>
        <time>2014-09-03T15:25:00Z</time>
      </trkpt>
      <trkpt lat="44.93186" lon="6.72474">
        <ele>1851.1</ele>
        <time>2014-09-03T15:25:08Z</time>
      </trkpt>
      <trkpt lat="44.93176" lon="6.72451">
        <ele>1851.9</ele>
        <time>2014-09-03T15:25:15Z</time>
      </trkpt>
      <trkpt lat="44.9317" lon="6.72426">
        <ele>1853</ele>
        <time>2014-09-03T15:25:22Z</time>
      </trkpt>
      <trkpt lat="44.93161" lon="6.72404">
        <ele>1854.1</ele>
        <time>2014-09-03T15:25:30Z</time>
      </trkpt>
      <trkpt lat="44.93154" lon="6.7238">
        <ele>1855.8</ele>
        <time>2014-09-03T15:25:37Z</time>
      </trkpt>
      <trkpt lat="44.93148" lon="6.72352">
        <ele>1856.8</ele>
        <time>2014-09-03T15:25:43Z</time>
      </trkpt>
      <trkpt lat="44.93142" lon="6.72327">
        <ele>1857.1</ele>
        <time>2014-09-03T15:25:51Z</time>
      </trkpt>
      <trkpt lat="44.93134" lon="6.72301">
        <ele>1857.1</ele>
        <time>2014-09-03T15:25:59Z</time>
      </trkpt>
      <trkpt lat="44.93125" lon="6.72277">
        <ele>1857.1</ele>
        <time>2014-09-03T15:26:06Z</time>
      </trkpt>
      <trkpt lat="44.93117" lon="6.72252">
        <ele>1857.2</ele>
        <time>2014-09-03T15:26:13Z</time>
      </trkpt>
      <trkpt lat="44.93109" lon="6.72227">
        <ele>1857.2</ele>
        <time>2014-09-03T15:26:19Z</time>
      </trkpt>
      <trkpt lat="44.93087" lon="6.72221">
        <ele>1856.3</ele>
        <time>2014-09-03T15:26:36Z</time>
      </trkpt>
      <trkpt lat="44.93068" lon="6.72226">
        <ele>1855.8</ele>
        <time>2014-09-03T15:26:40Z</time>
      </trkpt>
      <trkpt lat="44.93055" lon="6.72201">
        <ele>1854</ele>
        <time>2014-09-03T15:26:47Z</time>
      </trkpt>
      <trkpt lat="44.93043" lon="6.7218">
        <ele>1852.1</ele>
        <time>2014-09-03T15:26:52Z</time>
      </trkpt>
      <trkpt lat="44.9303" lon="6.72159">
        <ele>1851.4</ele>
        <time>2014-09-03T15:26:58Z</time>
      </trkpt>
      <trkpt lat="44.93017" lon="6.72139">
        <ele>1850.8</ele>
        <time>2014-09-03T15:27:04Z</time>
      </trkpt>
      <trkpt lat="44.93005" lon="6.72114">
        <ele>1848.1</ele>
        <time>2014-09-03T15:27:09Z</time>
      </trkpt>
      <trkpt lat="44.92992" lon="6.72096">
        <ele>1844.9</ele>
        <time>2014-09-03T15:27:12Z</time>
      </trkpt>
      <trkpt lat="44.92974" lon="6.72067">
        <ele>1841.8</ele>
        <time>2014-09-03T15:27:15Z</time>
      </trkpt>
      <trkpt lat="44.92964" lon="6.72033">
        <ele>1839.4</ele>
        <time>2014-09-03T15:27:18Z</time>
      </trkpt>
      <trkpt lat="44.92953" lon="6.72">
        <ele>1838</ele>
        <time>2014-09-03T15:27:21Z</time>
      </trkpt>
      <trkpt lat="44.92946" lon="6.71975">
        <ele>1836.9</ele>
        <time>2014-09-03T15:27:25Z</time>
      </trkpt>
      <trkpt lat="44.92941" lon="6.71947">
        <ele>1836</ele>
        <time>2014-09-03T15:27:48Z</time>
      </trkpt>
      <trkpt lat="44.92931" lon="6.71922">
        <ele>1835.7</ele>
        <time>2014-09-03T15:27:54Z</time>
      </trkpt>
      <trkpt lat="44.92917" lon="6.71907">
        <ele>1835.6</ele>
        <time>2014-09-03T15:27:59Z</time>
      </trkpt>
      <trkpt lat="44.92899" lon="6.71913">
        <ele>1835.4</ele>
        <time>2014-09-03T15:28:07Z</time>
      </trkpt>
      <trkpt lat="44.92881" lon="6.71904">
        <ele>1835.1</ele>
        <time>2014-09-03T15:28:18Z</time>
      </trkpt>
      <trkpt lat="44.92865" lon="6.71893">
        <ele>1835.5</ele>
        <time>2014-09-03T15:28:28Z</time>
      </trkpt>
      <trkpt lat="44.92853" lon="6.71914">
        <ele>1835.9</ele>
        <time>2014-09-03T15:28:39Z</time>
      </trkpt>
      <trkpt lat="44.92865" lon="6.71936">
        <ele>1836.8</ele>
        <time>2014-09-03T15:28:50Z</time>
      </trkpt>
      <trkpt lat="44.92881" lon="6.71951">
        <ele>1837.7</ele>
        <time>2014-09-03T15:28:59Z</time>
      </trkpt>
      <trkpt lat="44.92896" lon="6.71968">
        <ele>1839.1</ele>
        <time>2014-09-03T15:29:10Z</time>
      </trkpt>
      <trkpt lat="44.92894" lon="6.71996">
        <ele>1840.3</ele>
        <time>2014-09-03T15:29:18Z</time>
      </trkpt>
      <trkpt lat="44.92874" lon="6.72001">
        <ele>1841.4</ele>
        <time>2014-09-03T15:29:27Z</time>
      </trkpt>
      <trkpt lat="44.92856" lon="6.71994">
        <ele>1842.9</ele>
        <time>2014-09-03T15:29:37Z</time>
      </trkpt>
      <trkpt lat="44.92837" lon="6.71993">
        <ele>1844.2</ele>
        <time>2014-09-03T15:29:45Z</time>
      </trkpt>
      <trkpt lat="44.92817" lon="6.7199">
        <ele>1845.5</ele>
        <time>2014-09-03T15:29:53Z</time>
      </trkpt>
      <trkpt lat="44.92802" lon="6.72005">
        <ele>1846.8</ele>
        <time>2014-09-03T15:30:00Z</time>
      </trkpt>
      <trkpt lat="44.92798" lon="6.72032">
        <ele>1848.5</ele>
        <time>2014-09-03T15:30:08Z</time>
      </trkpt>
    </trkseg>
  </trk>
</gpx>